<?xml version="1.0" encoding="UTF-8" standalone="no" ?>
<gpx xmlns="http://www.topografix.com/GPX/1/1" xmlns:xsi="http://www.w3.org/2001/XMLSchema-instance" xsi:schemaLocation="http://www.topografix.com/GPX/1/1 http://www.topografix.com/GPX/1/1/gpx.xsd" version="1.1" creator="VisuGPX - https://www.visugpx.com">
  <metadata>
    <name>Vers les lacs des Tempêtes</name>
    <desc><![CDATA[Départ barrage du lac de Saint Guérin, passant par le Col de la Louze pour aller aux Lacs des Tempêtes.
Il manque une partie du retour autour du lac de Saint Guérin: problème GPS déconnecté.]]></desc>
  </metadata>
  <trk>
    <name><![CDATA[15 juil. 2014]]></name>
    <cmt><![CDATA[09:16:13]]></cmt>
    <desc><![CDATA[comment ...]]></desc>
    <trkseg>
      <trkpt lat="45.65157" lon="6.5819">
        <ele>1553</ele>
        <time>2014-07-15T09:16:13Z</time>
      </trkpt>
      <trkpt lat="45.65157" lon="6.5819">
        <ele>1553</ele>
        <time>2014-07-15T09:16:14Z</time>
      </trkpt>
      <trkpt lat="45.65147" lon="6.58191">
        <ele>1546</ele>
        <time>2014-07-15T09:16:28Z</time>
      </trkpt>
      <trkpt lat="45.65147" lon="6.58187">
        <ele>1544</ele>
        <time>2014-07-15T09:17:04Z</time>
      </trkpt>
      <trkpt lat="45.65145" lon="6.58186">
        <ele>1544</ele>
        <time>2014-07-15T09:17:06Z</time>
      </trkpt>
      <trkpt lat="45.65144" lon="6.58184">
        <ele>1544</ele>
        <time>2014-07-15T09:17:09Z</time>
      </trkpt>
      <trkpt lat="45.65142" lon="6.58182">
        <ele>1543</ele>
        <time>2014-07-15T09:17:12Z</time>
      </trkpt>
      <trkpt lat="45.65141" lon="6.58185">
        <ele>1543</ele>
        <time>2014-07-15T09:17:15Z</time>
      </trkpt>
      <trkpt lat="45.65141" lon="6.58188">
        <ele>1543</ele>
        <time>2014-07-15T09:17:17Z</time>
      </trkpt>
      <trkpt lat="45.65139" lon="6.58191">
        <ele>1543</ele>
        <time>2014-07-15T09:17:24Z</time>
      </trkpt>
      <trkpt lat="45.65142" lon="6.58184">
        <ele>1540</ele>
        <time>2014-07-15T09:17:58Z</time>
      </trkpt>
      <trkpt lat="45.65133" lon="6.58179">
        <ele>1539</ele>
        <time>2014-07-15T09:18:02Z</time>
      </trkpt>
      <trkpt lat="45.65133" lon="6.58177">
        <ele>1539</ele>
        <time>2014-07-15T09:18:03Z</time>
      </trkpt>
      <trkpt lat="45.65131" lon="6.58173">
        <ele>1539</ele>
        <time>2014-07-15T09:18:05Z</time>
      </trkpt>
      <trkpt lat="45.65131" lon="6.58166">
        <ele>1539</ele>
        <time>2014-07-15T09:18:08Z</time>
      </trkpt>
      <trkpt lat="45.65129" lon="6.58162">
        <ele>1539</ele>
        <time>2014-07-15T09:18:10Z</time>
      </trkpt>
      <trkpt lat="45.65118" lon="6.58106">
        <ele>1537</ele>
        <time>2014-07-15T09:18:40Z</time>
      </trkpt>
      <trkpt lat="45.65116" lon="6.58104">
        <ele>1536</ele>
        <time>2014-07-15T09:18:42Z</time>
      </trkpt>
      <trkpt lat="45.65114" lon="6.58103">
        <ele>1536</ele>
        <time>2014-07-15T09:18:43Z</time>
      </trkpt>
      <trkpt lat="45.65113" lon="6.58103">
        <ele>1536</ele>
        <time>2014-07-15T09:18:44Z</time>
      </trkpt>
      <trkpt lat="45.65101" lon="6.58111">
        <ele>1535</ele>
        <time>2014-07-15T09:18:54Z</time>
      </trkpt>
      <trkpt lat="45.651" lon="6.58114">
        <ele>1535</ele>
        <time>2014-07-15T09:18:56Z</time>
      </trkpt>
      <trkpt lat="45.651" lon="6.58119">
        <ele>1534</ele>
        <time>2014-07-15T09:18:59Z</time>
      </trkpt>
      <trkpt lat="45.651" lon="6.58121">
        <ele>1534</ele>
        <time>2014-07-15T09:19:00Z</time>
      </trkpt>
      <trkpt lat="45.65114" lon="6.58177">
        <ele>1531</ele>
        <time>2014-07-15T09:19:31Z</time>
      </trkpt>
      <trkpt lat="45.6512" lon="6.58235">
        <ele>1529</ele>
        <time>2014-07-15T09:20:02Z</time>
      </trkpt>
      <trkpt lat="45.6512" lon="6.58246">
        <ele>1529</ele>
        <time>2014-07-15T09:20:07Z</time>
      </trkpt>
      <trkpt lat="45.65115" lon="6.5826">
        <ele>1528</ele>
        <time>2014-07-15T09:20:15Z</time>
      </trkpt>
      <trkpt lat="45.6511" lon="6.58267">
        <ele>1528</ele>
        <time>2014-07-15T09:20:21Z</time>
      </trkpt>
      <trkpt lat="45.65111" lon="6.58276">
        <ele>1526</ele>
        <time>2014-07-15T09:20:34Z</time>
      </trkpt>
      <trkpt lat="45.65083" lon="6.58321">
        <ele>1525</ele>
        <time>2014-07-15T09:21:04Z</time>
      </trkpt>
      <trkpt lat="45.65074" lon="6.58383">
        <ele>1526</ele>
        <time>2014-07-15T09:21:35Z</time>
      </trkpt>
      <trkpt lat="45.65055" lon="6.58438">
        <ele>1527</ele>
        <time>2014-07-15T09:22:05Z</time>
      </trkpt>
      <trkpt lat="45.65054" lon="6.58445">
        <ele>1527</ele>
        <time>2014-07-15T09:22:09Z</time>
      </trkpt>
      <trkpt lat="45.65052" lon="6.58446">
        <ele>1528</ele>
        <time>2014-07-15T09:22:11Z</time>
      </trkpt>
      <trkpt lat="45.65048" lon="6.58447">
        <ele>1528</ele>
        <time>2014-07-15T09:22:14Z</time>
      </trkpt>
      <trkpt lat="45.65045" lon="6.58446">
        <ele>1527</ele>
        <time>2014-07-15T09:22:16Z</time>
      </trkpt>
      <trkpt lat="45.65038" lon="6.58447">
        <ele>1528</ele>
        <time>2014-07-15T09:22:20Z</time>
      </trkpt>
      <trkpt lat="45.65018" lon="6.58435">
        <ele>1530</ele>
        <time>2014-07-15T09:22:33Z</time>
      </trkpt>
      <trkpt lat="45.65011" lon="6.58421">
        <ele>1530</ele>
        <time>2014-07-15T09:22:42Z</time>
      </trkpt>
      <trkpt lat="45.65011" lon="6.5841">
        <ele>1531</ele>
        <time>2014-07-15T09:22:48Z</time>
      </trkpt>
      <trkpt lat="45.65007" lon="6.58398">
        <ele>1532</ele>
        <time>2014-07-15T09:22:53Z</time>
      </trkpt>
      <trkpt lat="45.65003" lon="6.58395">
        <ele>1532</ele>
        <time>2014-07-15T09:22:54Z</time>
      </trkpt>
      <trkpt lat="45.65001" lon="6.58389">
        <ele>1532</ele>
        <time>2014-07-15T09:22:57Z</time>
      </trkpt>
      <trkpt lat="45.64998" lon="6.58388">
        <ele>1532</ele>
        <time>2014-07-15T09:22:59Z</time>
      </trkpt>
      <trkpt lat="45.64963" lon="6.58397">
        <ele>1533</ele>
        <time>2014-07-15T09:23:29Z</time>
      </trkpt>
      <trkpt lat="45.64959" lon="6.58398">
        <ele>1533</ele>
        <time>2014-07-15T09:23:32Z</time>
      </trkpt>
      <trkpt lat="45.64957" lon="6.58398">
        <ele>1533</ele>
        <time>2014-07-15T09:23:33Z</time>
      </trkpt>
      <trkpt lat="45.64917" lon="6.5839">
        <ele>1528</ele>
        <time>2014-07-15T09:24:03Z</time>
      </trkpt>
      <trkpt lat="45.64915" lon="6.58389">
        <ele>1528</ele>
        <time>2014-07-15T09:24:04Z</time>
      </trkpt>
      <trkpt lat="45.64913" lon="6.58389">
        <ele>1528</ele>
        <time>2014-07-15T09:24:05Z</time>
      </trkpt>
      <trkpt lat="45.64912" lon="6.58389">
        <ele>1528</ele>
        <time>2014-07-15T09:24:06Z</time>
      </trkpt>
      <trkpt lat="45.6491" lon="6.58389">
        <ele>1528</ele>
        <time>2014-07-15T09:24:07Z</time>
      </trkpt>
      <trkpt lat="45.64905" lon="6.58386">
        <ele>1527</ele>
        <time>2014-07-15T09:24:12Z</time>
      </trkpt>
      <trkpt lat="45.64865" lon="6.58383">
        <ele>1523</ele>
        <time>2014-07-15T09:24:43Z</time>
      </trkpt>
      <trkpt lat="45.64828" lon="6.58391">
        <ele>1521</ele>
        <time>2014-07-15T09:25:13Z</time>
      </trkpt>
      <trkpt lat="45.64798" lon="6.5843">
        <ele>1520</ele>
        <time>2014-07-15T09:25:43Z</time>
      </trkpt>
      <trkpt lat="45.64769" lon="6.5847">
        <ele>1518</ele>
        <time>2014-07-15T09:26:13Z</time>
      </trkpt>
      <trkpt lat="45.64764" lon="6.58476">
        <ele>1517</ele>
        <time>2014-07-15T09:26:19Z</time>
      </trkpt>
      <trkpt lat="45.64725" lon="6.58485">
        <ele>1515</ele>
        <time>2014-07-15T09:26:50Z</time>
      </trkpt>
      <trkpt lat="45.64723" lon="6.58485">
        <ele>1515</ele>
        <time>2014-07-15T09:26:52Z</time>
      </trkpt>
      <trkpt lat="45.6471" lon="6.5847">
        <ele>1514</ele>
        <time>2014-07-15T09:27:02Z</time>
      </trkpt>
      <trkpt lat="45.64706" lon="6.5847">
        <ele>1515</ele>
        <time>2014-07-15T09:27:04Z</time>
      </trkpt>
      <trkpt lat="45.6468" lon="6.58426">
        <ele>1515</ele>
        <time>2014-07-15T09:27:34Z</time>
      </trkpt>
      <trkpt lat="45.64678" lon="6.58422">
        <ele>1515</ele>
        <time>2014-07-15T09:27:36Z</time>
      </trkpt>
      <trkpt lat="45.64669" lon="6.5841">
        <ele>1515</ele>
        <time>2014-07-15T09:27:45Z</time>
      </trkpt>
      <trkpt lat="45.64667" lon="6.584">
        <ele>1516</ele>
        <time>2014-07-15T09:27:51Z</time>
      </trkpt>
      <trkpt lat="45.64664" lon="6.58397">
        <ele>1516</ele>
        <time>2014-07-15T09:27:53Z</time>
      </trkpt>
      <trkpt lat="45.64663" lon="6.58396">
        <ele>1516</ele>
        <time>2014-07-15T09:27:54Z</time>
      </trkpt>
      <trkpt lat="45.64658" lon="6.58389">
        <ele>1516</ele>
        <time>2014-07-15T09:27:59Z</time>
      </trkpt>
      <trkpt lat="45.64658" lon="6.58385">
        <ele>1516</ele>
        <time>2014-07-15T09:28:01Z</time>
      </trkpt>
      <trkpt lat="45.64659" lon="6.58353">
        <ele>1515</ele>
        <time>2014-07-15T09:28:17Z</time>
      </trkpt>
      <trkpt lat="45.64638" lon="6.58314">
        <ele>1514</ele>
        <time>2014-07-15T09:28:42Z</time>
      </trkpt>
      <trkpt lat="45.64637" lon="6.58313">
        <ele>1514</ele>
        <time>2014-07-15T09:28:43Z</time>
      </trkpt>
      <trkpt lat="45.64633" lon="6.58312">
        <ele>1514</ele>
        <time>2014-07-15T09:28:46Z</time>
      </trkpt>
      <trkpt lat="45.64625" lon="6.58317">
        <ele>1512</ele>
        <time>2014-07-15T09:28:53Z</time>
      </trkpt>
      <trkpt lat="45.64601" lon="6.5833">
        <ele>1511</ele>
        <time>2014-07-15T09:29:20Z</time>
      </trkpt>
      <trkpt lat="45.64586" lon="6.58311">
        <ele>1512</ele>
        <time>2014-07-15T09:29:38Z</time>
      </trkpt>
      <trkpt lat="45.64558" lon="6.58303">
        <ele>1510</ele>
        <time>2014-07-15T09:30:03Z</time>
      </trkpt>
      <trkpt lat="45.64555" lon="6.58305">
        <ele>1510</ele>
        <time>2014-07-15T09:30:06Z</time>
      </trkpt>
      <trkpt lat="45.64553" lon="6.58305">
        <ele>1509</ele>
        <time>2014-07-15T09:30:08Z</time>
      </trkpt>
      <trkpt lat="45.64551" lon="6.58303">
        <ele>1509</ele>
        <time>2014-07-15T09:30:10Z</time>
      </trkpt>
      <trkpt lat="45.64546" lon="6.58302">
        <ele>1509</ele>
        <time>2014-07-15T09:30:16Z</time>
      </trkpt>
      <trkpt lat="45.64541" lon="6.583">
        <ele>1508</ele>
        <time>2014-07-15T09:30:20Z</time>
      </trkpt>
      <trkpt lat="45.64514" lon="6.58304">
        <ele>1507</ele>
        <time>2014-07-15T09:30:46Z</time>
      </trkpt>
      <trkpt lat="45.64511" lon="6.58303">
        <ele>1506</ele>
        <time>2014-07-15T09:30:50Z</time>
      </trkpt>
      <trkpt lat="45.64503" lon="6.58306">
        <ele>1506</ele>
        <time>2014-07-15T09:30:55Z</time>
      </trkpt>
      <trkpt lat="45.64499" lon="6.58307">
        <ele>1506</ele>
        <time>2014-07-15T09:30:57Z</time>
      </trkpt>
      <trkpt lat="45.64496" lon="6.58308">
        <ele>1506</ele>
        <time>2014-07-15T09:30:58Z</time>
      </trkpt>
      <trkpt lat="45.64488" lon="6.58315">
        <ele>1506</ele>
        <time>2014-07-15T09:31:02Z</time>
      </trkpt>
      <trkpt lat="45.64483" lon="6.58316">
        <ele>1506</ele>
        <time>2014-07-15T09:31:06Z</time>
      </trkpt>
      <trkpt lat="45.64479" lon="6.58314">
        <ele>1506</ele>
        <time>2014-07-15T09:31:10Z</time>
      </trkpt>
      <trkpt lat="45.64476" lon="6.58314">
        <ele>1505</ele>
        <time>2014-07-15T09:31:12Z</time>
      </trkpt>
      <trkpt lat="45.64473" lon="6.58313">
        <ele>1505</ele>
        <time>2014-07-15T09:31:14Z</time>
      </trkpt>
      <trkpt lat="45.64465" lon="6.58312">
        <ele>1504</ele>
        <time>2014-07-15T09:31:21Z</time>
      </trkpt>
      <trkpt lat="45.64462" lon="6.58315">
        <ele>1504</ele>
        <time>2014-07-15T09:31:23Z</time>
      </trkpt>
      <trkpt lat="45.64459" lon="6.58315">
        <ele>1504</ele>
        <time>2014-07-15T09:31:25Z</time>
      </trkpt>
      <trkpt lat="45.64458" lon="6.58313">
        <ele>1504</ele>
        <time>2014-07-15T09:31:26Z</time>
      </trkpt>
      <trkpt lat="45.64427" lon="6.58312">
        <ele>1500</ele>
        <time>2014-07-15T09:31:57Z</time>
      </trkpt>
      <trkpt lat="45.64424" lon="6.58314">
        <ele>1500</ele>
        <time>2014-07-15T09:31:59Z</time>
      </trkpt>
      <trkpt lat="45.64423" lon="6.58318">
        <ele>1500</ele>
        <time>2014-07-15T09:32:01Z</time>
      </trkpt>
      <trkpt lat="45.6442" lon="6.58318">
        <ele>1500</ele>
        <time>2014-07-15T09:32:03Z</time>
      </trkpt>
      <trkpt lat="45.64406" lon="6.58307">
        <ele>1501</ele>
        <time>2014-07-15T09:32:13Z</time>
      </trkpt>
      <trkpt lat="45.64402" lon="6.58309">
        <ele>1502</ele>
        <time>2014-07-15T09:32:16Z</time>
      </trkpt>
      <trkpt lat="45.644" lon="6.58315">
        <ele>1502</ele>
        <time>2014-07-15T09:32:21Z</time>
      </trkpt>
      <trkpt lat="45.64366" lon="6.58338">
        <ele>1499</ele>
        <time>2014-07-15T09:32:52Z</time>
      </trkpt>
      <trkpt lat="45.64363" lon="6.58338">
        <ele>1499</ele>
        <time>2014-07-15T09:32:54Z</time>
      </trkpt>
      <trkpt lat="45.64359" lon="6.58335">
        <ele>1499</ele>
        <time>2014-07-15T09:32:58Z</time>
      </trkpt>
      <trkpt lat="45.64349" lon="6.5833">
        <ele>1499</ele>
        <time>2014-07-15T09:33:03Z</time>
      </trkpt>
      <trkpt lat="45.64345" lon="6.58332">
        <ele>1499</ele>
        <time>2014-07-15T09:33:05Z</time>
      </trkpt>
      <trkpt lat="45.64343" lon="6.58335">
        <ele>1499</ele>
        <time>2014-07-15T09:33:07Z</time>
      </trkpt>
      <trkpt lat="45.64339" lon="6.58323">
        <ele>1499</ele>
        <time>2014-07-15T09:33:11Z</time>
      </trkpt>
      <trkpt lat="45.64336" lon="6.58322">
        <ele>1500</ele>
        <time>2014-07-15T09:33:14Z</time>
      </trkpt>
      <trkpt lat="45.64334" lon="6.58323">
        <ele>1500</ele>
        <time>2014-07-15T09:33:18Z</time>
      </trkpt>
      <trkpt lat="45.64334" lon="6.58327">
        <ele>1500</ele>
        <time>2014-07-15T09:33:22Z</time>
      </trkpt>
      <trkpt lat="45.64329" lon="6.58331">
        <ele>1500</ele>
        <time>2014-07-15T09:33:27Z</time>
      </trkpt>
      <trkpt lat="45.64321" lon="6.58345">
        <ele>1500</ele>
        <time>2014-07-15T09:33:37Z</time>
      </trkpt>
      <trkpt lat="45.64318" lon="6.58346">
        <ele>1501</ele>
        <time>2014-07-15T09:33:39Z</time>
      </trkpt>
      <trkpt lat="45.64315" lon="6.58348">
        <ele>1501</ele>
        <time>2014-07-15T09:33:40Z</time>
      </trkpt>
      <trkpt lat="45.64309" lon="6.58348">
        <ele>1502</ele>
        <time>2014-07-15T09:33:45Z</time>
      </trkpt>
      <trkpt lat="45.64307" lon="6.58344">
        <ele>1502</ele>
        <time>2014-07-15T09:33:47Z</time>
      </trkpt>
      <trkpt lat="45.64304" lon="6.58345">
        <ele>1502</ele>
        <time>2014-07-15T09:33:52Z</time>
      </trkpt>
      <trkpt lat="45.64299" lon="6.58349">
        <ele>1503</ele>
        <time>2014-07-15T09:34:01Z</time>
      </trkpt>
      <trkpt lat="45.64296" lon="6.58348">
        <ele>1503</ele>
        <time>2014-07-15T09:34:04Z</time>
      </trkpt>
      <trkpt lat="45.64289" lon="6.58344">
        <ele>1505</ele>
        <time>2014-07-15T09:34:14Z</time>
      </trkpt>
      <trkpt lat="45.64266" lon="6.58326">
        <ele>1512</ele>
        <time>2014-07-15T09:34:33Z</time>
      </trkpt>
      <trkpt lat="45.64258" lon="6.58317">
        <ele>1514</ele>
        <time>2014-07-15T09:34:37Z</time>
      </trkpt>
      <trkpt lat="45.64258" lon="6.58311">
        <ele>1515</ele>
        <time>2014-07-15T09:34:53Z</time>
      </trkpt>
      <trkpt lat="45.64262" lon="6.58308">
        <ele>1516</ele>
        <time>2014-07-15T09:34:57Z</time>
      </trkpt>
      <trkpt lat="45.64261" lon="6.58303">
        <ele>1518</ele>
        <time>2014-07-15T09:35:03Z</time>
      </trkpt>
      <trkpt lat="45.64237" lon="6.58284">
        <ele>1519</ele>
        <time>2014-07-15T09:35:16Z</time>
      </trkpt>
      <trkpt lat="45.64231" lon="6.58284">
        <ele>1520</ele>
        <time>2014-07-15T09:35:30Z</time>
      </trkpt>
      <trkpt lat="45.64229" lon="6.58278">
        <ele>1520</ele>
        <time>2014-07-15T09:35:45Z</time>
      </trkpt>
      <trkpt lat="45.6424" lon="6.5828">
        <ele>1524</ele>
        <time>2014-07-15T09:35:59Z</time>
      </trkpt>
      <trkpt lat="45.64242" lon="6.58275">
        <ele>1524</ele>
        <time>2014-07-15T09:36:12Z</time>
      </trkpt>
      <trkpt lat="45.64252" lon="6.58278">
        <ele>1525</ele>
        <time>2014-07-15T09:36:20Z</time>
      </trkpt>
      <trkpt lat="45.6425" lon="6.58275">
        <ele>1525</ele>
        <time>2014-07-15T09:36:24Z</time>
      </trkpt>
      <trkpt lat="45.64242" lon="6.5827">
        <ele>1526</ele>
        <time>2014-07-15T09:36:30Z</time>
      </trkpt>
      <trkpt lat="45.64245" lon="6.58272">
        <ele>1526</ele>
        <time>2014-07-15T09:36:31Z</time>
      </trkpt>
      <trkpt lat="45.6424" lon="6.58278">
        <ele>1528</ele>
        <time>2014-07-15T09:36:52Z</time>
      </trkpt>
      <trkpt lat="45.64236" lon="6.58279">
        <ele>1528</ele>
        <time>2014-07-15T09:37:11Z</time>
      </trkpt>
      <trkpt lat="45.64234" lon="6.58277">
        <ele>1529</ele>
        <time>2014-07-15T09:37:13Z</time>
      </trkpt>
      <trkpt lat="45.64218" lon="6.58262">
        <ele>1530</ele>
        <time>2014-07-15T09:37:29Z</time>
      </trkpt>
      <trkpt lat="45.64225" lon="6.58269">
        <ele>1529</ele>
        <time>2014-07-15T09:37:43Z</time>
      </trkpt>
      <trkpt lat="45.64224" lon="6.58269">
        <ele>1527</ele>
        <time>2014-07-15T09:38:24Z</time>
      </trkpt>
      <trkpt lat="45.64203" lon="6.58253">
        <ele>1527</ele>
        <time>2014-07-15T09:38:36Z</time>
      </trkpt>
      <trkpt lat="45.64203" lon="6.58249">
        <ele>1527</ele>
        <time>2014-07-15T09:38:44Z</time>
      </trkpt>
      <trkpt lat="45.64203" lon="6.58248">
        <ele>1528</ele>
        <time>2014-07-15T09:39:06Z</time>
      </trkpt>
      <trkpt lat="45.64189" lon="6.58236">
        <ele>1528</ele>
        <time>2014-07-15T09:39:37Z</time>
      </trkpt>
      <trkpt lat="45.64185" lon="6.58232">
        <ele>1528</ele>
        <time>2014-07-15T09:39:41Z</time>
      </trkpt>
      <trkpt lat="45.64183" lon="6.58227">
        <ele>1528</ele>
        <time>2014-07-15T09:39:49Z</time>
      </trkpt>
      <trkpt lat="45.64183" lon="6.58224">
        <ele>1527</ele>
        <time>2014-07-15T09:39:52Z</time>
      </trkpt>
      <trkpt lat="45.64184" lon="6.58221">
        <ele>1527</ele>
        <time>2014-07-15T09:40:23Z</time>
      </trkpt>
      <trkpt lat="45.64183" lon="6.58216">
        <ele>1527</ele>
        <time>2014-07-15T09:40:29Z</time>
      </trkpt>
      <trkpt lat="45.64179" lon="6.58212">
        <ele>1527</ele>
        <time>2014-07-15T09:40:34Z</time>
      </trkpt>
      <trkpt lat="45.64175" lon="6.58209">
        <ele>1527</ele>
        <time>2014-07-15T09:40:37Z</time>
      </trkpt>
      <trkpt lat="45.64177" lon="6.58199">
        <ele>1526</ele>
        <time>2014-07-15T09:40:49Z</time>
      </trkpt>
      <trkpt lat="45.64176" lon="6.58196">
        <ele>1526</ele>
        <time>2014-07-15T09:40:51Z</time>
      </trkpt>
      <trkpt lat="45.64175" lon="6.58186">
        <ele>1526</ele>
        <time>2014-07-15T09:40:57Z</time>
      </trkpt>
      <trkpt lat="45.64174" lon="6.58184">
        <ele>1526</ele>
        <time>2014-07-15T09:40:58Z</time>
      </trkpt>
      <trkpt lat="45.6417" lon="6.58145">
        <ele>1525</ele>
        <time>2014-07-15T09:41:20Z</time>
      </trkpt>
      <trkpt lat="45.64172" lon="6.58144">
        <ele>1525</ele>
        <time>2014-07-15T09:41:21Z</time>
      </trkpt>
      <trkpt lat="45.64174" lon="6.58129">
        <ele>1525</ele>
        <time>2014-07-15T09:41:27Z</time>
      </trkpt>
      <trkpt lat="45.64172" lon="6.58122">
        <ele>1525</ele>
        <time>2014-07-15T09:41:30Z</time>
      </trkpt>
      <trkpt lat="45.64191" lon="6.58063">
        <ele>1523</ele>
        <time>2014-07-15T09:42:01Z</time>
      </trkpt>
      <trkpt lat="45.64207" lon="6.58029">
        <ele>1521</ele>
        <time>2014-07-15T09:42:20Z</time>
      </trkpt>
      <trkpt lat="45.64205" lon="6.58018">
        <ele>1520</ele>
        <time>2014-07-15T09:42:25Z</time>
      </trkpt>
      <trkpt lat="45.64206" lon="6.5801">
        <ele>1520</ele>
        <time>2014-07-15T09:42:29Z</time>
      </trkpt>
      <trkpt lat="45.64205" lon="6.58002">
        <ele>1519</ele>
        <time>2014-07-15T09:42:33Z</time>
      </trkpt>
      <trkpt lat="45.64206" lon="6.58">
        <ele>1519</ele>
        <time>2014-07-15T09:42:35Z</time>
      </trkpt>
      <trkpt lat="45.64205" lon="6.57996">
        <ele>1518</ele>
        <time>2014-07-15T09:42:38Z</time>
      </trkpt>
      <trkpt lat="45.64202" lon="6.57991">
        <ele>1518</ele>
        <time>2014-07-15T09:42:40Z</time>
      </trkpt>
      <trkpt lat="45.64201" lon="6.57988">
        <ele>1518</ele>
        <time>2014-07-15T09:42:42Z</time>
      </trkpt>
      <trkpt lat="45.64203" lon="6.57984">
        <ele>1518</ele>
        <time>2014-07-15T09:42:44Z</time>
      </trkpt>
      <trkpt lat="45.64203" lon="6.5798">
        <ele>1518</ele>
        <time>2014-07-15T09:42:46Z</time>
      </trkpt>
      <trkpt lat="45.64204" lon="6.57977">
        <ele>1518</ele>
        <time>2014-07-15T09:42:48Z</time>
      </trkpt>
      <trkpt lat="45.64203" lon="6.57972">
        <ele>1518</ele>
        <time>2014-07-15T09:42:50Z</time>
      </trkpt>
      <trkpt lat="45.64199" lon="6.57964">
        <ele>1517</ele>
        <time>2014-07-15T09:42:53Z</time>
      </trkpt>
      <trkpt lat="45.64199" lon="6.57962">
        <ele>1517</ele>
        <time>2014-07-15T09:42:54Z</time>
      </trkpt>
      <trkpt lat="45.642" lon="6.57959">
        <ele>1516</ele>
        <time>2014-07-15T09:42:55Z</time>
      </trkpt>
      <trkpt lat="45.64201" lon="6.57951">
        <ele>1515</ele>
        <time>2014-07-15T09:42:59Z</time>
      </trkpt>
      <trkpt lat="45.64199" lon="6.57949">
        <ele>1515</ele>
        <time>2014-07-15T09:43:00Z</time>
      </trkpt>
      <trkpt lat="45.64199" lon="6.57945">
        <ele>1515</ele>
        <time>2014-07-15T09:43:02Z</time>
      </trkpt>
      <trkpt lat="45.64194" lon="6.57938">
        <ele>1514</ele>
        <time>2014-07-15T09:43:07Z</time>
      </trkpt>
      <trkpt lat="45.64187" lon="6.5793">
        <ele>1513</ele>
        <time>2014-07-15T09:43:14Z</time>
      </trkpt>
      <trkpt lat="45.64186" lon="6.57928">
        <ele>1512</ele>
        <time>2014-07-15T09:43:16Z</time>
      </trkpt>
      <trkpt lat="45.64184" lon="6.57925">
        <ele>1512</ele>
        <time>2014-07-15T09:43:19Z</time>
      </trkpt>
      <trkpt lat="45.64184" lon="6.57921">
        <ele>1512</ele>
        <time>2014-07-15T09:43:21Z</time>
      </trkpt>
      <trkpt lat="45.64186" lon="6.57917">
        <ele>1512</ele>
        <time>2014-07-15T09:43:23Z</time>
      </trkpt>
      <trkpt lat="45.64181" lon="6.57875">
        <ele>1510</ele>
        <time>2014-07-15T09:43:43Z</time>
      </trkpt>
      <trkpt lat="45.64168" lon="6.57859">
        <ele>1508</ele>
        <time>2014-07-15T09:43:54Z</time>
      </trkpt>
      <trkpt lat="45.64165" lon="6.57855">
        <ele>1508</ele>
        <time>2014-07-15T09:43:58Z</time>
      </trkpt>
      <trkpt lat="45.64162" lon="6.57847">
        <ele>1507</ele>
        <time>2014-07-15T09:44:03Z</time>
      </trkpt>
      <trkpt lat="45.64164" lon="6.5784">
        <ele>1507</ele>
        <time>2014-07-15T09:44:07Z</time>
      </trkpt>
      <trkpt lat="45.64162" lon="6.57833">
        <ele>1507</ele>
        <time>2014-07-15T09:44:11Z</time>
      </trkpt>
      <trkpt lat="45.64161" lon="6.57813">
        <ele>1507</ele>
        <time>2014-07-15T09:44:21Z</time>
      </trkpt>
      <trkpt lat="45.64162" lon="6.57811">
        <ele>1507</ele>
        <time>2014-07-15T09:44:22Z</time>
      </trkpt>
      <trkpt lat="45.64162" lon="6.57807">
        <ele>1507</ele>
        <time>2014-07-15T09:44:24Z</time>
      </trkpt>
      <trkpt lat="45.64161" lon="6.57804">
        <ele>1507</ele>
        <time>2014-07-15T09:44:26Z</time>
      </trkpt>
      <trkpt lat="45.64145" lon="6.57778">
        <ele>1506</ele>
        <time>2014-07-15T09:44:41Z</time>
      </trkpt>
      <trkpt lat="45.64147" lon="6.57775">
        <ele>1507</ele>
        <time>2014-07-15T09:44:42Z</time>
      </trkpt>
      <trkpt lat="45.64141" lon="6.57715">
        <ele>1506</ele>
        <time>2014-07-15T09:45:13Z</time>
      </trkpt>
      <trkpt lat="45.64139" lon="6.5771">
        <ele>1506</ele>
        <time>2014-07-15T09:45:15Z</time>
      </trkpt>
      <trkpt lat="45.64138" lon="6.57704">
        <ele>1506</ele>
        <time>2014-07-15T09:45:20Z</time>
      </trkpt>
      <trkpt lat="45.64129" lon="6.57694">
        <ele>1507</ele>
        <time>2014-07-15T09:45:26Z</time>
      </trkpt>
      <trkpt lat="45.64127" lon="6.57692">
        <ele>1507</ele>
        <time>2014-07-15T09:45:28Z</time>
      </trkpt>
      <trkpt lat="45.64124" lon="6.57687">
        <ele>1506</ele>
        <time>2014-07-15T09:45:32Z</time>
      </trkpt>
      <trkpt lat="45.64122" lon="6.57686">
        <ele>1506</ele>
        <time>2014-07-15T09:45:34Z</time>
      </trkpt>
      <trkpt lat="45.64116" lon="6.57686">
        <ele>1506</ele>
        <time>2014-07-15T09:45:40Z</time>
      </trkpt>
      <trkpt lat="45.64114" lon="6.57685">
        <ele>1506</ele>
        <time>2014-07-15T09:45:42Z</time>
      </trkpt>
      <trkpt lat="45.64087" lon="6.57667">
        <ele>1501</ele>
        <time>2014-07-15T09:46:12Z</time>
      </trkpt>
      <trkpt lat="45.64075" lon="6.57645">
        <ele>1500</ele>
        <time>2014-07-15T09:46:24Z</time>
      </trkpt>
      <trkpt lat="45.64075" lon="6.5764">
        <ele>1500</ele>
        <time>2014-07-15T09:46:26Z</time>
      </trkpt>
      <trkpt lat="45.64067" lon="6.57622">
        <ele>1501</ele>
        <time>2014-07-15T09:46:33Z</time>
      </trkpt>
      <trkpt lat="45.64074" lon="6.57621">
        <ele>1501</ele>
        <time>2014-07-15T09:46:45Z</time>
      </trkpt>
      <trkpt lat="45.64069" lon="6.5763">
        <ele>1501</ele>
        <time>2014-07-15T09:47:01Z</time>
      </trkpt>
      <trkpt lat="45.64067" lon="6.57629">
        <ele>1503</ele>
        <time>2014-07-15T09:47:08Z</time>
      </trkpt>
      <trkpt lat="45.64068" lon="6.5762">
        <ele>1503</ele>
        <time>2014-07-15T09:47:12Z</time>
      </trkpt>
      <trkpt lat="45.64062" lon="6.57596">
        <ele>1503</ele>
        <time>2014-07-15T09:47:23Z</time>
      </trkpt>
      <trkpt lat="45.64064" lon="6.57591">
        <ele>1503</ele>
        <time>2014-07-15T09:47:28Z</time>
      </trkpt>
      <trkpt lat="45.64059" lon="6.57581">
        <ele>1504</ele>
        <time>2014-07-15T09:47:36Z</time>
      </trkpt>
      <trkpt lat="45.64058" lon="6.57572">
        <ele>1508</ele>
        <time>2014-07-15T09:48:04Z</time>
      </trkpt>
      <trkpt lat="45.64062" lon="6.5756">
        <ele>1510</ele>
        <time>2014-07-15T09:48:12Z</time>
      </trkpt>
      <trkpt lat="45.64071" lon="6.57557">
        <ele>1511</ele>
        <time>2014-07-15T09:48:17Z</time>
      </trkpt>
      <trkpt lat="45.64079" lon="6.57552">
        <ele>1512</ele>
        <time>2014-07-15T09:48:25Z</time>
      </trkpt>
      <trkpt lat="45.64096" lon="6.57562">
        <ele>1512</ele>
        <time>2014-07-15T09:49:52Z</time>
      </trkpt>
      <trkpt lat="45.641" lon="6.57565">
        <ele>1512</ele>
        <time>2014-07-15T09:49:56Z</time>
      </trkpt>
      <trkpt lat="45.64105" lon="6.57577">
        <ele>1511</ele>
        <time>2014-07-15T09:50:03Z</time>
      </trkpt>
      <trkpt lat="45.64146" lon="6.57593">
        <ele>1513</ele>
        <time>2014-07-15T09:50:34Z</time>
      </trkpt>
      <trkpt lat="45.64163" lon="6.57582">
        <ele>1517</ele>
        <time>2014-07-15T09:50:51Z</time>
      </trkpt>
      <trkpt lat="45.64161" lon="6.57581">
        <ele>1518</ele>
        <time>2014-07-15T09:50:57Z</time>
      </trkpt>
      <trkpt lat="45.64159" lon="6.57586">
        <ele>1518</ele>
        <time>2014-07-15T09:51:00Z</time>
      </trkpt>
      <trkpt lat="45.64157" lon="6.57585">
        <ele>1518</ele>
        <time>2014-07-15T09:51:03Z</time>
      </trkpt>
      <trkpt lat="45.64156" lon="6.57583">
        <ele>1518</ele>
        <time>2014-07-15T09:51:04Z</time>
      </trkpt>
      <trkpt lat="45.6415" lon="6.57577">
        <ele>1518</ele>
        <time>2014-07-15T09:51:15Z</time>
      </trkpt>
      <trkpt lat="45.64148" lon="6.57577">
        <ele>1518</ele>
        <time>2014-07-15T09:51:19Z</time>
      </trkpt>
      <trkpt lat="45.64147" lon="6.57576">
        <ele>1518</ele>
        <time>2014-07-15T09:51:22Z</time>
      </trkpt>
      <trkpt lat="45.64143" lon="6.57575">
        <ele>1519</ele>
        <time>2014-07-15T09:51:28Z</time>
      </trkpt>
      <trkpt lat="45.6414" lon="6.57562">
        <ele>1521</ele>
        <time>2014-07-15T09:51:39Z</time>
      </trkpt>
      <trkpt lat="45.64139" lon="6.57559">
        <ele>1522</ele>
        <time>2014-07-15T09:51:42Z</time>
      </trkpt>
      <trkpt lat="45.64139" lon="6.57557">
        <ele>1522</ele>
        <time>2014-07-15T09:51:45Z</time>
      </trkpt>
      <trkpt lat="45.64135" lon="6.57533">
        <ele>1526</ele>
        <time>2014-07-15T09:52:04Z</time>
      </trkpt>
      <trkpt lat="45.64133" lon="6.5753">
        <ele>1526</ele>
        <time>2014-07-15T09:52:07Z</time>
      </trkpt>
      <trkpt lat="45.64132" lon="6.57527">
        <ele>1526</ele>
        <time>2014-07-15T09:52:09Z</time>
      </trkpt>
      <trkpt lat="45.64132" lon="6.57525">
        <ele>1526</ele>
        <time>2014-07-15T09:52:10Z</time>
      </trkpt>
      <trkpt lat="45.64129" lon="6.57519">
        <ele>1527</ele>
        <time>2014-07-15T09:52:16Z</time>
      </trkpt>
      <trkpt lat="45.64124" lon="6.57514">
        <ele>1528</ele>
        <time>2014-07-15T09:52:24Z</time>
      </trkpt>
      <trkpt lat="45.64123" lon="6.57514">
        <ele>1528</ele>
        <time>2014-07-15T09:52:25Z</time>
      </trkpt>
      <trkpt lat="45.64121" lon="6.57513">
        <ele>1529</ele>
        <time>2014-07-15T09:52:27Z</time>
      </trkpt>
      <trkpt lat="45.6412" lon="6.57512">
        <ele>1529</ele>
        <time>2014-07-15T09:52:29Z</time>
      </trkpt>
      <trkpt lat="45.64119" lon="6.57511">
        <ele>1529</ele>
        <time>2014-07-15T09:52:31Z</time>
      </trkpt>
      <trkpt lat="45.64117" lon="6.57509">
        <ele>1529</ele>
        <time>2014-07-15T09:52:33Z</time>
      </trkpt>
      <trkpt lat="45.64116" lon="6.57508">
        <ele>1529</ele>
        <time>2014-07-15T09:52:35Z</time>
      </trkpt>
      <trkpt lat="45.64114" lon="6.57507">
        <ele>1529</ele>
        <time>2014-07-15T09:52:37Z</time>
      </trkpt>
      <trkpt lat="45.6409" lon="6.57482">
        <ele>1531</ele>
        <time>2014-07-15T09:53:08Z</time>
      </trkpt>
      <trkpt lat="45.64089" lon="6.57481">
        <ele>1531</ele>
        <time>2014-07-15T09:53:10Z</time>
      </trkpt>
      <trkpt lat="45.64088" lon="6.5748">
        <ele>1532</ele>
        <time>2014-07-15T09:53:12Z</time>
      </trkpt>
      <trkpt lat="45.64087" lon="6.57479">
        <ele>1532</ele>
        <time>2014-07-15T09:53:14Z</time>
      </trkpt>
      <trkpt lat="45.64085" lon="6.57478">
        <ele>1532</ele>
        <time>2014-07-15T09:53:17Z</time>
      </trkpt>
      <trkpt lat="45.64062" lon="6.57474">
        <ele>1535</ele>
        <time>2014-07-15T09:53:48Z</time>
      </trkpt>
      <trkpt lat="45.64062" lon="6.57472">
        <ele>1536</ele>
        <time>2014-07-15T09:53:51Z</time>
      </trkpt>
      <trkpt lat="45.64044" lon="6.57444">
        <ele>1536</ele>
        <time>2014-07-15T09:54:21Z</time>
      </trkpt>
      <trkpt lat="45.64041" lon="6.57441">
        <ele>1537</ele>
        <time>2014-07-15T09:54:25Z</time>
      </trkpt>
      <trkpt lat="45.64026" lon="6.57434">
        <ele>1538</ele>
        <time>2014-07-15T09:54:38Z</time>
      </trkpt>
      <trkpt lat="45.64024" lon="6.57436">
        <ele>1538</ele>
        <time>2014-07-15T09:54:40Z</time>
      </trkpt>
      <trkpt lat="45.64013" lon="6.57436">
        <ele>1540</ele>
        <time>2014-07-15T09:54:50Z</time>
      </trkpt>
      <trkpt lat="45.64012" lon="6.57434">
        <ele>1540</ele>
        <time>2014-07-15T09:54:52Z</time>
      </trkpt>
      <trkpt lat="45.6401" lon="6.57433">
        <ele>1540</ele>
        <time>2014-07-15T09:54:54Z</time>
      </trkpt>
      <trkpt lat="45.64009" lon="6.57431">
        <ele>1540</ele>
        <time>2014-07-15T09:54:56Z</time>
      </trkpt>
      <trkpt lat="45.64007" lon="6.5743">
        <ele>1540</ele>
        <time>2014-07-15T09:54:58Z</time>
      </trkpt>
      <trkpt lat="45.64007" lon="6.57428">
        <ele>1540</ele>
        <time>2014-07-15T09:55:00Z</time>
      </trkpt>
      <trkpt lat="45.64005" lon="6.57421">
        <ele>1541</ele>
        <time>2014-07-15T09:55:06Z</time>
      </trkpt>
      <trkpt lat="45.64001" lon="6.57378">
        <ele>1543</ele>
        <time>2014-07-15T09:55:36Z</time>
      </trkpt>
      <trkpt lat="45.64" lon="6.57377">
        <ele>1544</ele>
        <time>2014-07-15T09:55:38Z</time>
      </trkpt>
      <trkpt lat="45.63998" lon="6.57373">
        <ele>1544</ele>
        <time>2014-07-15T09:55:42Z</time>
      </trkpt>
      <trkpt lat="45.63996" lon="6.57373">
        <ele>1544</ele>
        <time>2014-07-15T09:55:43Z</time>
      </trkpt>
      <trkpt lat="45.63966" lon="6.57351">
        <ele>1548</ele>
        <time>2014-07-15T09:56:13Z</time>
      </trkpt>
      <trkpt lat="45.6396" lon="6.57347">
        <ele>1549</ele>
        <time>2014-07-15T09:56:19Z</time>
      </trkpt>
      <trkpt lat="45.63952" lon="6.57348">
        <ele>1550</ele>
        <time>2014-07-15T09:56:27Z</time>
      </trkpt>
      <trkpt lat="45.63951" lon="6.57346">
        <ele>1550</ele>
        <time>2014-07-15T09:56:29Z</time>
      </trkpt>
      <trkpt lat="45.63951" lon="6.57343">
        <ele>1550</ele>
        <time>2014-07-15T09:56:32Z</time>
      </trkpt>
      <trkpt lat="45.63949" lon="6.57343">
        <ele>1550</ele>
        <time>2014-07-15T09:56:34Z</time>
      </trkpt>
      <trkpt lat="45.63943" lon="6.57338">
        <ele>1551</ele>
        <time>2014-07-15T09:56:40Z</time>
      </trkpt>
      <trkpt lat="45.63936" lon="6.5734">
        <ele>1552</ele>
        <time>2014-07-15T09:56:48Z</time>
      </trkpt>
      <trkpt lat="45.63935" lon="6.57339">
        <ele>1552</ele>
        <time>2014-07-15T09:56:50Z</time>
      </trkpt>
      <trkpt lat="45.63933" lon="6.57337">
        <ele>1552</ele>
        <time>2014-07-15T09:56:52Z</time>
      </trkpt>
      <trkpt lat="45.63932" lon="6.57336">
        <ele>1552</ele>
        <time>2014-07-15T09:56:54Z</time>
      </trkpt>
      <trkpt lat="45.63931" lon="6.57335">
        <ele>1552</ele>
        <time>2014-07-15T09:56:56Z</time>
      </trkpt>
      <trkpt lat="45.63931" lon="6.57333">
        <ele>1552</ele>
        <time>2014-07-15T09:56:58Z</time>
      </trkpt>
      <trkpt lat="45.63929" lon="6.57331">
        <ele>1552</ele>
        <time>2014-07-15T09:57:00Z</time>
      </trkpt>
      <trkpt lat="45.63928" lon="6.57326">
        <ele>1553</ele>
        <time>2014-07-15T09:57:04Z</time>
      </trkpt>
      <trkpt lat="45.63924" lon="6.57319">
        <ele>1554</ele>
        <time>2014-07-15T09:57:12Z</time>
      </trkpt>
      <trkpt lat="45.63922" lon="6.57318">
        <ele>1554</ele>
        <time>2014-07-15T09:57:14Z</time>
      </trkpt>
      <trkpt lat="45.63921" lon="6.57316">
        <ele>1554</ele>
        <time>2014-07-15T09:57:16Z</time>
      </trkpt>
      <trkpt lat="45.63921" lon="6.57314">
        <ele>1554</ele>
        <time>2014-07-15T09:57:17Z</time>
      </trkpt>
      <trkpt lat="45.63921" lon="6.57312">
        <ele>1554</ele>
        <time>2014-07-15T09:57:19Z</time>
      </trkpt>
      <trkpt lat="45.63919" lon="6.57311">
        <ele>1555</ele>
        <time>2014-07-15T09:57:21Z</time>
      </trkpt>
      <trkpt lat="45.63919" lon="6.57309">
        <ele>1555</ele>
        <time>2014-07-15T09:57:23Z</time>
      </trkpt>
      <trkpt lat="45.63917" lon="6.57306">
        <ele>1555</ele>
        <time>2014-07-15T09:57:25Z</time>
      </trkpt>
      <trkpt lat="45.63917" lon="6.57304">
        <ele>1555</ele>
        <time>2014-07-15T09:57:27Z</time>
      </trkpt>
      <trkpt lat="45.63899" lon="6.57275">
        <ele>1559</ele>
        <time>2014-07-15T09:57:58Z</time>
      </trkpt>
      <trkpt lat="45.63899" lon="6.57273">
        <ele>1559</ele>
        <time>2014-07-15T09:58:00Z</time>
      </trkpt>
      <trkpt lat="45.63899" lon="6.57271">
        <ele>1560</ele>
        <time>2014-07-15T09:58:02Z</time>
      </trkpt>
      <trkpt lat="45.63898" lon="6.5727">
        <ele>1560</ele>
        <time>2014-07-15T09:58:04Z</time>
      </trkpt>
      <trkpt lat="45.63896" lon="6.57268">
        <ele>1560</ele>
        <time>2014-07-15T09:58:06Z</time>
      </trkpt>
      <trkpt lat="45.63893" lon="6.57259">
        <ele>1561</ele>
        <time>2014-07-15T09:58:16Z</time>
      </trkpt>
      <trkpt lat="45.63891" lon="6.57258">
        <ele>1562</ele>
        <time>2014-07-15T09:58:19Z</time>
      </trkpt>
      <trkpt lat="45.6389" lon="6.57254">
        <ele>1563</ele>
        <time>2014-07-15T09:58:23Z</time>
      </trkpt>
      <trkpt lat="45.6389" lon="6.57253">
        <ele>1563</ele>
        <time>2014-07-15T09:58:25Z</time>
      </trkpt>
      <trkpt lat="45.63889" lon="6.57251">
        <ele>1563</ele>
        <time>2014-07-15T09:58:27Z</time>
      </trkpt>
      <trkpt lat="45.63879" lon="6.5724">
        <ele>1565</ele>
        <time>2014-07-15T09:58:38Z</time>
      </trkpt>
      <trkpt lat="45.63863" lon="6.57211">
        <ele>1570</ele>
        <time>2014-07-15T09:59:09Z</time>
      </trkpt>
      <trkpt lat="45.63862" lon="6.57209">
        <ele>1571</ele>
        <time>2014-07-15T09:59:12Z</time>
      </trkpt>
      <trkpt lat="45.63859" lon="6.57208">
        <ele>1571</ele>
        <time>2014-07-15T09:59:14Z</time>
      </trkpt>
      <trkpt lat="45.63855" lon="6.57202">
        <ele>1572</ele>
        <time>2014-07-15T09:59:22Z</time>
      </trkpt>
      <trkpt lat="45.63854" lon="6.57202">
        <ele>1573</ele>
        <time>2014-07-15T09:59:25Z</time>
      </trkpt>
      <trkpt lat="45.63852" lon="6.57203">
        <ele>1573</ele>
        <time>2014-07-15T09:59:27Z</time>
      </trkpt>
      <trkpt lat="45.6385" lon="6.572">
        <ele>1574</ele>
        <time>2014-07-15T09:59:32Z</time>
      </trkpt>
      <trkpt lat="45.63848" lon="6.57197">
        <ele>1574</ele>
        <time>2014-07-15T09:59:36Z</time>
      </trkpt>
      <trkpt lat="45.63846" lon="6.57197">
        <ele>1575</ele>
        <time>2014-07-15T09:59:38Z</time>
      </trkpt>
      <trkpt lat="45.63836" lon="6.57194">
        <ele>1576</ele>
        <time>2014-07-15T09:59:49Z</time>
      </trkpt>
      <trkpt lat="45.63829" lon="6.57175">
        <ele>1577</ele>
        <time>2014-07-15T10:00:01Z</time>
      </trkpt>
      <trkpt lat="45.63828" lon="6.57168">
        <ele>1578</ele>
        <time>2014-07-15T10:00:06Z</time>
      </trkpt>
      <trkpt lat="45.63827" lon="6.57166">
        <ele>1578</ele>
        <time>2014-07-15T10:00:08Z</time>
      </trkpt>
      <trkpt lat="45.63827" lon="6.57163">
        <ele>1578</ele>
        <time>2014-07-15T10:00:10Z</time>
      </trkpt>
      <trkpt lat="45.63827" lon="6.57161">
        <ele>1578</ele>
        <time>2014-07-15T10:00:12Z</time>
      </trkpt>
      <trkpt lat="45.63826" lon="6.57159">
        <ele>1578</ele>
        <time>2014-07-15T10:00:14Z</time>
      </trkpt>
      <trkpt lat="45.63825" lon="6.57158">
        <ele>1579</ele>
        <time>2014-07-15T10:00:15Z</time>
      </trkpt>
      <trkpt lat="45.63823" lon="6.57157">
        <ele>1579</ele>
        <time>2014-07-15T10:00:17Z</time>
      </trkpt>
      <trkpt lat="45.6382" lon="6.57158">
        <ele>1579</ele>
        <time>2014-07-15T10:00:20Z</time>
      </trkpt>
      <trkpt lat="45.63819" lon="6.57157">
        <ele>1579</ele>
        <time>2014-07-15T10:00:22Z</time>
      </trkpt>
      <trkpt lat="45.63816" lon="6.57159">
        <ele>1580</ele>
        <time>2014-07-15T10:00:26Z</time>
      </trkpt>
      <trkpt lat="45.63815" lon="6.57159">
        <ele>1580</ele>
        <time>2014-07-15T10:00:28Z</time>
      </trkpt>
      <trkpt lat="45.63814" lon="6.57159">
        <ele>1580</ele>
        <time>2014-07-15T10:00:30Z</time>
      </trkpt>
      <trkpt lat="45.63813" lon="6.57156">
        <ele>1580</ele>
        <time>2014-07-15T10:00:33Z</time>
      </trkpt>
      <trkpt lat="45.63812" lon="6.57154">
        <ele>1580</ele>
        <time>2014-07-15T10:00:35Z</time>
      </trkpt>
      <trkpt lat="45.63811" lon="6.57154">
        <ele>1580</ele>
        <time>2014-07-15T10:00:37Z</time>
      </trkpt>
      <trkpt lat="45.6381" lon="6.57152">
        <ele>1580</ele>
        <time>2014-07-15T10:00:39Z</time>
      </trkpt>
      <trkpt lat="45.63807" lon="6.5715">
        <ele>1581</ele>
        <time>2014-07-15T10:00:45Z</time>
      </trkpt>
      <trkpt lat="45.63804" lon="6.57152">
        <ele>1582</ele>
        <time>2014-07-15T10:00:50Z</time>
      </trkpt>
      <trkpt lat="45.63803" lon="6.57153">
        <ele>1582</ele>
        <time>2014-07-15T10:00:51Z</time>
      </trkpt>
      <trkpt lat="45.638" lon="6.57155">
        <ele>1582</ele>
        <time>2014-07-15T10:00:56Z</time>
      </trkpt>
      <trkpt lat="45.63798" lon="6.57154">
        <ele>1582</ele>
        <time>2014-07-15T10:00:58Z</time>
      </trkpt>
      <trkpt lat="45.63795" lon="6.57148">
        <ele>1583</ele>
        <time>2014-07-15T10:01:04Z</time>
      </trkpt>
      <trkpt lat="45.63793" lon="6.57144">
        <ele>1583</ele>
        <time>2014-07-15T10:01:06Z</time>
      </trkpt>
      <trkpt lat="45.6379" lon="6.5711">
        <ele>1586</ele>
        <time>2014-07-15T10:01:36Z</time>
      </trkpt>
      <trkpt lat="45.63789" lon="6.57108">
        <ele>1586</ele>
        <time>2014-07-15T10:01:38Z</time>
      </trkpt>
      <trkpt lat="45.63786" lon="6.57105">
        <ele>1587</ele>
        <time>2014-07-15T10:01:44Z</time>
      </trkpt>
      <trkpt lat="45.63786" lon="6.57102">
        <ele>1587</ele>
        <time>2014-07-15T10:01:47Z</time>
      </trkpt>
      <trkpt lat="45.63785" lon="6.57099">
        <ele>1587</ele>
        <time>2014-07-15T10:01:50Z</time>
      </trkpt>
      <trkpt lat="45.63785" lon="6.57097">
        <ele>1587</ele>
        <time>2014-07-15T10:01:52Z</time>
      </trkpt>
      <trkpt lat="45.63783" lon="6.57097">
        <ele>1587</ele>
        <time>2014-07-15T10:01:53Z</time>
      </trkpt>
      <trkpt lat="45.63782" lon="6.57095">
        <ele>1587</ele>
        <time>2014-07-15T10:01:55Z</time>
      </trkpt>
      <trkpt lat="45.63781" lon="6.57094">
        <ele>1588</ele>
        <time>2014-07-15T10:01:58Z</time>
      </trkpt>
      <trkpt lat="45.6378" lon="6.57093">
        <ele>1588</ele>
        <time>2014-07-15T10:02:01Z</time>
      </trkpt>
      <trkpt lat="45.63775" lon="6.57095">
        <ele>1589</ele>
        <time>2014-07-15T10:02:13Z</time>
      </trkpt>
      <trkpt lat="45.63774" lon="6.57097">
        <ele>1589</ele>
        <time>2014-07-15T10:02:16Z</time>
      </trkpt>
      <trkpt lat="45.63775" lon="6.57101">
        <ele>1589</ele>
        <time>2014-07-15T10:02:21Z</time>
      </trkpt>
      <trkpt lat="45.63776" lon="6.57113">
        <ele>1589</ele>
        <time>2014-07-15T10:02:30Z</time>
      </trkpt>
      <trkpt lat="45.63775" lon="6.57115">
        <ele>1589</ele>
        <time>2014-07-15T10:02:32Z</time>
      </trkpt>
      <trkpt lat="45.63774" lon="6.57116">
        <ele>1590</ele>
        <time>2014-07-15T10:02:34Z</time>
      </trkpt>
      <trkpt lat="45.63772" lon="6.57117">
        <ele>1590</ele>
        <time>2014-07-15T10:02:36Z</time>
      </trkpt>
      <trkpt lat="45.63771" lon="6.57116">
        <ele>1590</ele>
        <time>2014-07-15T10:02:38Z</time>
      </trkpt>
      <trkpt lat="45.63768" lon="6.57117">
        <ele>1590</ele>
        <time>2014-07-15T10:02:42Z</time>
      </trkpt>
      <trkpt lat="45.63765" lon="6.57114">
        <ele>1590</ele>
        <time>2014-07-15T10:02:46Z</time>
      </trkpt>
      <trkpt lat="45.63765" lon="6.57113">
        <ele>1590</ele>
        <time>2014-07-15T10:02:48Z</time>
      </trkpt>
      <trkpt lat="45.63764" lon="6.57111">
        <ele>1590</ele>
        <time>2014-07-15T10:02:50Z</time>
      </trkpt>
      <trkpt lat="45.63762" lon="6.57101">
        <ele>1591</ele>
        <time>2014-07-15T10:02:59Z</time>
      </trkpt>
      <trkpt lat="45.63761" lon="6.57099">
        <ele>1591</ele>
        <time>2014-07-15T10:03:02Z</time>
      </trkpt>
      <trkpt lat="45.63761" lon="6.57098">
        <ele>1591</ele>
        <time>2014-07-15T10:03:04Z</time>
      </trkpt>
      <trkpt lat="45.6376" lon="6.57096">
        <ele>1591</ele>
        <time>2014-07-15T10:03:06Z</time>
      </trkpt>
      <trkpt lat="45.63754" lon="6.57086">
        <ele>1592</ele>
        <time>2014-07-15T10:03:19Z</time>
      </trkpt>
      <trkpt lat="45.63755" lon="6.57083">
        <ele>1592</ele>
        <time>2014-07-15T10:03:22Z</time>
      </trkpt>
      <trkpt lat="45.63755" lon="6.57081">
        <ele>1592</ele>
        <time>2014-07-15T10:03:24Z</time>
      </trkpt>
      <trkpt lat="45.63754" lon="6.5708">
        <ele>1592</ele>
        <time>2014-07-15T10:03:26Z</time>
      </trkpt>
      <trkpt lat="45.63751" lon="6.57085">
        <ele>1592</ele>
        <time>2014-07-15T10:03:33Z</time>
      </trkpt>
      <trkpt lat="45.6375" lon="6.57087">
        <ele>1592</ele>
        <time>2014-07-15T10:03:37Z</time>
      </trkpt>
      <trkpt lat="45.63747" lon="6.57093">
        <ele>1593</ele>
        <time>2014-07-15T10:03:43Z</time>
      </trkpt>
      <trkpt lat="45.63746" lon="6.57091">
        <ele>1593</ele>
        <time>2014-07-15T10:03:49Z</time>
      </trkpt>
      <trkpt lat="45.63746" lon="6.5709">
        <ele>1594</ele>
        <time>2014-07-15T10:03:51Z</time>
      </trkpt>
      <trkpt lat="45.63744" lon="6.57086">
        <ele>1594</ele>
        <time>2014-07-15T10:03:56Z</time>
      </trkpt>
      <trkpt lat="45.63744" lon="6.57083">
        <ele>1594</ele>
        <time>2014-07-15T10:04:00Z</time>
      </trkpt>
      <trkpt lat="45.63743" lon="6.5708">
        <ele>1594</ele>
        <time>2014-07-15T10:04:03Z</time>
      </trkpt>
      <trkpt lat="45.63741" lon="6.57078">
        <ele>1595</ele>
        <time>2014-07-15T10:04:06Z</time>
      </trkpt>
      <trkpt lat="45.6374" lon="6.57077">
        <ele>1595</ele>
        <time>2014-07-15T10:04:09Z</time>
      </trkpt>
      <trkpt lat="45.63738" lon="6.5708">
        <ele>1595</ele>
        <time>2014-07-15T10:04:13Z</time>
      </trkpt>
      <trkpt lat="45.63736" lon="6.57083">
        <ele>1595</ele>
        <time>2014-07-15T10:04:18Z</time>
      </trkpt>
      <trkpt lat="45.63735" lon="6.57082">
        <ele>1596</ele>
        <time>2014-07-15T10:04:22Z</time>
      </trkpt>
      <trkpt lat="45.63733" lon="6.5708">
        <ele>1596</ele>
        <time>2014-07-15T10:04:25Z</time>
      </trkpt>
      <trkpt lat="45.63732" lon="6.57076">
        <ele>1596</ele>
        <time>2014-07-15T10:04:32Z</time>
      </trkpt>
      <trkpt lat="45.63731" lon="6.57075">
        <ele>1597</ele>
        <time>2014-07-15T10:04:36Z</time>
      </trkpt>
      <trkpt lat="45.6373" lon="6.57078">
        <ele>1599</ele>
        <time>2014-07-15T10:05:07Z</time>
      </trkpt>
      <trkpt lat="45.63726" lon="6.57082">
        <ele>1600</ele>
        <time>2014-07-15T10:05:11Z</time>
      </trkpt>
      <trkpt lat="45.63723" lon="6.5708">
        <ele>1600</ele>
        <time>2014-07-15T10:05:17Z</time>
      </trkpt>
      <trkpt lat="45.63721" lon="6.57075">
        <ele>1600</ele>
        <time>2014-07-15T10:05:26Z</time>
      </trkpt>
      <trkpt lat="45.6372" lon="6.57074">
        <ele>1601</ele>
        <time>2014-07-15T10:05:29Z</time>
      </trkpt>
      <trkpt lat="45.63718" lon="6.57073">
        <ele>1601</ele>
        <time>2014-07-15T10:05:35Z</time>
      </trkpt>
      <trkpt lat="45.63715" lon="6.5707">
        <ele>1602</ele>
        <time>2014-07-15T10:05:43Z</time>
      </trkpt>
      <trkpt lat="45.63709" lon="6.57065">
        <ele>1602</ele>
        <time>2014-07-15T10:05:52Z</time>
      </trkpt>
      <trkpt lat="45.63708" lon="6.57063">
        <ele>1603</ele>
        <time>2014-07-15T10:05:55Z</time>
      </trkpt>
      <trkpt lat="45.63707" lon="6.57062">
        <ele>1603</ele>
        <time>2014-07-15T10:05:58Z</time>
      </trkpt>
      <trkpt lat="45.63706" lon="6.57061">
        <ele>1603</ele>
        <time>2014-07-15T10:06:01Z</time>
      </trkpt>
      <trkpt lat="45.63706" lon="6.57058">
        <ele>1603</ele>
        <time>2014-07-15T10:06:05Z</time>
      </trkpt>
      <trkpt lat="45.63705" lon="6.57057">
        <ele>1604</ele>
        <time>2014-07-15T10:06:08Z</time>
      </trkpt>
      <trkpt lat="45.63704" lon="6.57055">
        <ele>1604</ele>
        <time>2014-07-15T10:06:11Z</time>
      </trkpt>
      <trkpt lat="45.63702" lon="6.57054">
        <ele>1604</ele>
        <time>2014-07-15T10:06:13Z</time>
      </trkpt>
      <trkpt lat="45.63697" lon="6.57056">
        <ele>1605</ele>
        <time>2014-07-15T10:06:21Z</time>
      </trkpt>
      <trkpt lat="45.63697" lon="6.57059">
        <ele>1605</ele>
        <time>2014-07-15T10:06:23Z</time>
      </trkpt>
      <trkpt lat="45.63695" lon="6.57055">
        <ele>1606</ele>
        <time>2014-07-15T10:06:32Z</time>
      </trkpt>
      <trkpt lat="45.63694" lon="6.57053">
        <ele>1607</ele>
        <time>2014-07-15T10:06:35Z</time>
      </trkpt>
      <trkpt lat="45.63693" lon="6.57053">
        <ele>1607</ele>
        <time>2014-07-15T10:06:36Z</time>
      </trkpt>
      <trkpt lat="45.63691" lon="6.57053">
        <ele>1607</ele>
        <time>2014-07-15T10:06:38Z</time>
      </trkpt>
      <trkpt lat="45.6369" lon="6.57055">
        <ele>1608</ele>
        <time>2014-07-15T10:06:40Z</time>
      </trkpt>
      <trkpt lat="45.63679" lon="6.57067">
        <ele>1611</ele>
        <time>2014-07-15T10:07:01Z</time>
      </trkpt>
      <trkpt lat="45.63677" lon="6.57066">
        <ele>1612</ele>
        <time>2014-07-15T10:07:04Z</time>
      </trkpt>
      <trkpt lat="45.63675" lon="6.57068">
        <ele>1612</ele>
        <time>2014-07-15T10:07:06Z</time>
      </trkpt>
      <trkpt lat="45.63674" lon="6.57066">
        <ele>1615</ele>
        <time>2014-07-15T10:07:31Z</time>
      </trkpt>
      <trkpt lat="45.63673" lon="6.57064">
        <ele>1615</ele>
        <time>2014-07-15T10:07:36Z</time>
      </trkpt>
      <trkpt lat="45.63672" lon="6.57064">
        <ele>1616</ele>
        <time>2014-07-15T10:07:39Z</time>
      </trkpt>
      <trkpt lat="45.63671" lon="6.57062">
        <ele>1616</ele>
        <time>2014-07-15T10:07:42Z</time>
      </trkpt>
      <trkpt lat="45.6367" lon="6.5706">
        <ele>1616</ele>
        <time>2014-07-15T10:07:44Z</time>
      </trkpt>
      <trkpt lat="45.63668" lon="6.57059">
        <ele>1617</ele>
        <time>2014-07-15T10:07:47Z</time>
      </trkpt>
      <trkpt lat="45.63667" lon="6.57058">
        <ele>1617</ele>
        <time>2014-07-15T10:07:50Z</time>
      </trkpt>
      <trkpt lat="45.63666" lon="6.57058">
        <ele>1617</ele>
        <time>2014-07-15T10:07:53Z</time>
      </trkpt>
      <trkpt lat="45.63664" lon="6.57059">
        <ele>1618</ele>
        <time>2014-07-15T10:07:56Z</time>
      </trkpt>
      <trkpt lat="45.6366" lon="6.57058">
        <ele>1619</ele>
        <time>2014-07-15T10:08:04Z</time>
      </trkpt>
      <trkpt lat="45.63648" lon="6.57046">
        <ele>1622</ele>
        <time>2014-07-15T10:08:23Z</time>
      </trkpt>
      <trkpt lat="45.63629" lon="6.5704">
        <ele>1624</ele>
        <time>2014-07-15T10:08:55Z</time>
      </trkpt>
      <trkpt lat="45.63625" lon="6.57037">
        <ele>1624</ele>
        <time>2014-07-15T10:09:01Z</time>
      </trkpt>
      <trkpt lat="45.63626" lon="6.57036">
        <ele>1624</ele>
        <time>2014-07-15T10:09:04Z</time>
      </trkpt>
      <trkpt lat="45.63626" lon="6.57029">
        <ele>1624</ele>
        <time>2014-07-15T10:09:15Z</time>
      </trkpt>
      <trkpt lat="45.63627" lon="6.57027">
        <ele>1625</ele>
        <time>2014-07-15T10:09:16Z</time>
      </trkpt>
      <trkpt lat="45.63626" lon="6.57023">
        <ele>1625</ele>
        <time>2014-07-15T10:09:18Z</time>
      </trkpt>
      <trkpt lat="45.63627" lon="6.57022">
        <ele>1625</ele>
        <time>2014-07-15T10:09:22Z</time>
      </trkpt>
      <trkpt lat="45.63628" lon="6.57019">
        <ele>1625</ele>
        <time>2014-07-15T10:09:26Z</time>
      </trkpt>
      <trkpt lat="45.63631" lon="6.57013">
        <ele>1625</ele>
        <time>2014-07-15T10:09:36Z</time>
      </trkpt>
      <trkpt lat="45.6363" lon="6.57004">
        <ele>1626</ele>
        <time>2014-07-15T10:09:48Z</time>
      </trkpt>
      <trkpt lat="45.63629" lon="6.56993">
        <ele>1628</ele>
        <time>2014-07-15T10:10:03Z</time>
      </trkpt>
      <trkpt lat="45.63629" lon="6.56989">
        <ele>1628</ele>
        <time>2014-07-15T10:10:05Z</time>
      </trkpt>
      <trkpt lat="45.63629" lon="6.56987">
        <ele>1628</ele>
        <time>2014-07-15T10:10:07Z</time>
      </trkpt>
      <trkpt lat="45.63625" lon="6.56973">
        <ele>1630</ele>
        <time>2014-07-15T10:10:15Z</time>
      </trkpt>
      <trkpt lat="45.63623" lon="6.56971">
        <ele>1630</ele>
        <time>2014-07-15T10:10:17Z</time>
      </trkpt>
      <trkpt lat="45.63622" lon="6.56969">
        <ele>1630</ele>
        <time>2014-07-15T10:10:19Z</time>
      </trkpt>
      <trkpt lat="45.6362" lon="6.56967">
        <ele>1631</ele>
        <time>2014-07-15T10:10:21Z</time>
      </trkpt>
      <trkpt lat="45.6362" lon="6.56965">
        <ele>1631</ele>
        <time>2014-07-15T10:10:23Z</time>
      </trkpt>
      <trkpt lat="45.63619" lon="6.56963">
        <ele>1631</ele>
        <time>2014-07-15T10:10:25Z</time>
      </trkpt>
      <trkpt lat="45.63618" lon="6.5696">
        <ele>1631</ele>
        <time>2014-07-15T10:10:27Z</time>
      </trkpt>
      <trkpt lat="45.63618" lon="6.56958">
        <ele>1632</ele>
        <time>2014-07-15T10:10:29Z</time>
      </trkpt>
      <trkpt lat="45.63616" lon="6.56957">
        <ele>1632</ele>
        <time>2014-07-15T10:10:31Z</time>
      </trkpt>
      <trkpt lat="45.63609" lon="6.56952">
        <ele>1632</ele>
        <time>2014-07-15T10:10:37Z</time>
      </trkpt>
      <trkpt lat="45.63608" lon="6.56952">
        <ele>1632</ele>
        <time>2014-07-15T10:10:38Z</time>
      </trkpt>
      <trkpt lat="45.63605" lon="6.56951">
        <ele>1633</ele>
        <time>2014-07-15T10:10:41Z</time>
      </trkpt>
      <trkpt lat="45.63601" lon="6.56949">
        <ele>1633</ele>
        <time>2014-07-15T10:10:45Z</time>
      </trkpt>
      <trkpt lat="45.63595" lon="6.5695">
        <ele>1634</ele>
        <time>2014-07-15T10:10:51Z</time>
      </trkpt>
      <trkpt lat="45.63593" lon="6.56952">
        <ele>1634</ele>
        <time>2014-07-15T10:10:54Z</time>
      </trkpt>
      <trkpt lat="45.63592" lon="6.5695">
        <ele>1636</ele>
        <time>2014-07-15T10:11:19Z</time>
      </trkpt>
      <trkpt lat="45.63592" lon="6.56945">
        <ele>1636</ele>
        <time>2014-07-15T10:11:25Z</time>
      </trkpt>
      <trkpt lat="45.63592" lon="6.56943">
        <ele>1636</ele>
        <time>2014-07-15T10:11:26Z</time>
      </trkpt>
      <trkpt lat="45.63592" lon="6.56941">
        <ele>1636</ele>
        <time>2014-07-15T10:11:28Z</time>
      </trkpt>
      <trkpt lat="45.63591" lon="6.56939">
        <ele>1636</ele>
        <time>2014-07-15T10:11:30Z</time>
      </trkpt>
      <trkpt lat="45.63589" lon="6.56937">
        <ele>1636</ele>
        <time>2014-07-15T10:11:32Z</time>
      </trkpt>
      <trkpt lat="45.63589" lon="6.56935">
        <ele>1636</ele>
        <time>2014-07-15T10:11:34Z</time>
      </trkpt>
      <trkpt lat="45.63587" lon="6.56932">
        <ele>1637</ele>
        <time>2014-07-15T10:11:39Z</time>
      </trkpt>
      <trkpt lat="45.63585" lon="6.5693">
        <ele>1637</ele>
        <time>2014-07-15T10:11:44Z</time>
      </trkpt>
      <trkpt lat="45.6358" lon="6.56918">
        <ele>1637</ele>
        <time>2014-07-15T10:11:57Z</time>
      </trkpt>
      <trkpt lat="45.6358" lon="6.56915">
        <ele>1638</ele>
        <time>2014-07-15T10:11:59Z</time>
      </trkpt>
      <trkpt lat="45.63579" lon="6.56914">
        <ele>1638</ele>
        <time>2014-07-15T10:12:01Z</time>
      </trkpt>
      <trkpt lat="45.63571" lon="6.56915">
        <ele>1639</ele>
        <time>2014-07-15T10:12:13Z</time>
      </trkpt>
      <trkpt lat="45.63559" lon="6.56917">
        <ele>1640</ele>
        <time>2014-07-15T10:12:34Z</time>
      </trkpt>
      <trkpt lat="45.63557" lon="6.56915">
        <ele>1640</ele>
        <time>2014-07-15T10:12:36Z</time>
      </trkpt>
      <trkpt lat="45.63556" lon="6.56913">
        <ele>1640</ele>
        <time>2014-07-15T10:12:38Z</time>
      </trkpt>
      <trkpt lat="45.63553" lon="6.56913">
        <ele>1640</ele>
        <time>2014-07-15T10:12:39Z</time>
      </trkpt>
      <trkpt lat="45.63532" lon="6.56895">
        <ele>1644</ele>
        <time>2014-07-15T10:13:09Z</time>
      </trkpt>
      <trkpt lat="45.63531" lon="6.56893">
        <ele>1644</ele>
        <time>2014-07-15T10:13:11Z</time>
      </trkpt>
      <trkpt lat="45.63529" lon="6.56892">
        <ele>1644</ele>
        <time>2014-07-15T10:13:13Z</time>
      </trkpt>
      <trkpt lat="45.63528" lon="6.56889">
        <ele>1644</ele>
        <time>2014-07-15T10:13:15Z</time>
      </trkpt>
      <trkpt lat="45.63526" lon="6.56888">
        <ele>1644</ele>
        <time>2014-07-15T10:13:17Z</time>
      </trkpt>
      <trkpt lat="45.63524" lon="6.56881">
        <ele>1645</ele>
        <time>2014-07-15T10:13:24Z</time>
      </trkpt>
      <trkpt lat="45.63525" lon="6.56879">
        <ele>1645</ele>
        <time>2014-07-15T10:13:27Z</time>
      </trkpt>
      <trkpt lat="45.63524" lon="6.56876">
        <ele>1645</ele>
        <time>2014-07-15T10:13:30Z</time>
      </trkpt>
      <trkpt lat="45.63522" lon="6.56873">
        <ele>1645</ele>
        <time>2014-07-15T10:13:32Z</time>
      </trkpt>
      <trkpt lat="45.63521" lon="6.56873">
        <ele>1645</ele>
        <time>2014-07-15T10:13:34Z</time>
      </trkpt>
      <trkpt lat="45.63517" lon="6.56866">
        <ele>1646</ele>
        <time>2014-07-15T10:13:41Z</time>
      </trkpt>
      <trkpt lat="45.63509" lon="6.56855">
        <ele>1648</ele>
        <time>2014-07-15T10:13:57Z</time>
      </trkpt>
      <trkpt lat="45.6351" lon="6.56852">
        <ele>1648</ele>
        <time>2014-07-15T10:13:59Z</time>
      </trkpt>
      <trkpt lat="45.63506" lon="6.56849">
        <ele>1649</ele>
        <time>2014-07-15T10:14:06Z</time>
      </trkpt>
      <trkpt lat="45.63506" lon="6.56846">
        <ele>1649</ele>
        <time>2014-07-15T10:14:08Z</time>
      </trkpt>
      <trkpt lat="45.63505" lon="6.56844">
        <ele>1650</ele>
        <time>2014-07-15T10:14:10Z</time>
      </trkpt>
      <trkpt lat="45.635" lon="6.56839">
        <ele>1651</ele>
        <time>2014-07-15T10:14:20Z</time>
      </trkpt>
      <trkpt lat="45.63498" lon="6.5684">
        <ele>1651</ele>
        <time>2014-07-15T10:14:22Z</time>
      </trkpt>
      <trkpt lat="45.63494" lon="6.56839">
        <ele>1652</ele>
        <time>2014-07-15T10:14:28Z</time>
      </trkpt>
      <trkpt lat="45.63493" lon="6.56838">
        <ele>1652</ele>
        <time>2014-07-15T10:14:30Z</time>
      </trkpt>
      <trkpt lat="45.63491" lon="6.56837">
        <ele>1652</ele>
        <time>2014-07-15T10:14:33Z</time>
      </trkpt>
      <trkpt lat="45.6349" lon="6.56834">
        <ele>1652</ele>
        <time>2014-07-15T10:14:37Z</time>
      </trkpt>
      <trkpt lat="45.63488" lon="6.56832">
        <ele>1653</ele>
        <time>2014-07-15T10:14:40Z</time>
      </trkpt>
      <trkpt lat="45.63487" lon="6.56831">
        <ele>1653</ele>
        <time>2014-07-15T10:14:42Z</time>
      </trkpt>
      <trkpt lat="45.63484" lon="6.56828">
        <ele>1653</ele>
        <time>2014-07-15T10:14:46Z</time>
      </trkpt>
      <trkpt lat="45.63483" lon="6.56827">
        <ele>1653</ele>
        <time>2014-07-15T10:14:48Z</time>
      </trkpt>
      <trkpt lat="45.6348" lon="6.56822">
        <ele>1653</ele>
        <time>2014-07-15T10:14:54Z</time>
      </trkpt>
      <trkpt lat="45.63478" lon="6.5681">
        <ele>1654</ele>
        <time>2014-07-15T10:15:03Z</time>
      </trkpt>
      <trkpt lat="45.63479" lon="6.56808">
        <ele>1654</ele>
        <time>2014-07-15T10:15:04Z</time>
      </trkpt>
      <trkpt lat="45.63479" lon="6.56787">
        <ele>1657</ele>
        <time>2014-07-15T10:15:27Z</time>
      </trkpt>
      <trkpt lat="45.63478" lon="6.56785">
        <ele>1657</ele>
        <time>2014-07-15T10:15:29Z</time>
      </trkpt>
      <trkpt lat="45.63478" lon="6.56782">
        <ele>1657</ele>
        <time>2014-07-15T10:15:32Z</time>
      </trkpt>
      <trkpt lat="45.63474" lon="6.56776">
        <ele>1658</ele>
        <time>2014-07-15T10:15:39Z</time>
      </trkpt>
      <trkpt lat="45.63473" lon="6.56772">
        <ele>1658</ele>
        <time>2014-07-15T10:15:41Z</time>
      </trkpt>
      <trkpt lat="45.63472" lon="6.56771">
        <ele>1659</ele>
        <time>2014-07-15T10:15:42Z</time>
      </trkpt>
      <trkpt lat="45.63458" lon="6.56761">
        <ele>1661</ele>
        <time>2014-07-15T10:15:58Z</time>
      </trkpt>
      <trkpt lat="45.63452" lon="6.56759">
        <ele>1661</ele>
        <time>2014-07-15T10:16:04Z</time>
      </trkpt>
      <trkpt lat="45.63451" lon="6.56758">
        <ele>1661</ele>
        <time>2014-07-15T10:16:06Z</time>
      </trkpt>
      <trkpt lat="45.63441" lon="6.56753">
        <ele>1662</ele>
        <time>2014-07-15T10:16:19Z</time>
      </trkpt>
      <trkpt lat="45.6344" lon="6.56751">
        <ele>1662</ele>
        <time>2014-07-15T10:16:21Z</time>
      </trkpt>
      <trkpt lat="45.63438" lon="6.56749">
        <ele>1662</ele>
        <time>2014-07-15T10:16:22Z</time>
      </trkpt>
      <trkpt lat="45.63437" lon="6.56745">
        <ele>1662</ele>
        <time>2014-07-15T10:16:27Z</time>
      </trkpt>
      <trkpt lat="45.63436" lon="6.56744">
        <ele>1662</ele>
        <time>2014-07-15T10:16:29Z</time>
      </trkpt>
      <trkpt lat="45.63433" lon="6.56731">
        <ele>1663</ele>
        <time>2014-07-15T10:16:40Z</time>
      </trkpt>
      <trkpt lat="45.63432" lon="6.5673">
        <ele>1663</ele>
        <time>2014-07-15T10:16:42Z</time>
      </trkpt>
      <trkpt lat="45.63429" lon="6.56725">
        <ele>1664</ele>
        <time>2014-07-15T10:16:46Z</time>
      </trkpt>
      <trkpt lat="45.63428" lon="6.5672">
        <ele>1664</ele>
        <time>2014-07-15T10:16:51Z</time>
      </trkpt>
      <trkpt lat="45.63426" lon="6.56717">
        <ele>1664</ele>
        <time>2014-07-15T10:16:54Z</time>
      </trkpt>
      <trkpt lat="45.63425" lon="6.56713">
        <ele>1665</ele>
        <time>2014-07-15T10:16:59Z</time>
      </trkpt>
      <trkpt lat="45.63423" lon="6.56711">
        <ele>1665</ele>
        <time>2014-07-15T10:17:02Z</time>
      </trkpt>
      <trkpt lat="45.63423" lon="6.56708">
        <ele>1665</ele>
        <time>2014-07-15T10:17:04Z</time>
      </trkpt>
      <trkpt lat="45.63423" lon="6.56706">
        <ele>1665</ele>
        <time>2014-07-15T10:17:06Z</time>
      </trkpt>
      <trkpt lat="45.63423" lon="6.56702">
        <ele>1666</ele>
        <time>2014-07-15T10:17:10Z</time>
      </trkpt>
      <trkpt lat="45.63422" lon="6.567">
        <ele>1666</ele>
        <time>2014-07-15T10:17:12Z</time>
      </trkpt>
      <trkpt lat="45.63413" lon="6.5669">
        <ele>1667</ele>
        <time>2014-07-15T10:17:25Z</time>
      </trkpt>
      <trkpt lat="45.63403" lon="6.56689">
        <ele>1668</ele>
        <time>2014-07-15T10:17:40Z</time>
      </trkpt>
      <trkpt lat="45.63401" lon="6.56688">
        <ele>1668</ele>
        <time>2014-07-15T10:17:42Z</time>
      </trkpt>
      <trkpt lat="45.634" lon="6.56686">
        <ele>1669</ele>
        <time>2014-07-15T10:17:45Z</time>
      </trkpt>
      <trkpt lat="45.63398" lon="6.56685">
        <ele>1669</ele>
        <time>2014-07-15T10:17:48Z</time>
      </trkpt>
      <trkpt lat="45.63396" lon="6.56683">
        <ele>1669</ele>
        <time>2014-07-15T10:17:51Z</time>
      </trkpt>
      <trkpt lat="45.63393" lon="6.56674">
        <ele>1669</ele>
        <time>2014-07-15T10:17:58Z</time>
      </trkpt>
      <trkpt lat="45.63392" lon="6.56673">
        <ele>1670</ele>
        <time>2014-07-15T10:18:02Z</time>
      </trkpt>
      <trkpt lat="45.63393" lon="6.5667">
        <ele>1670</ele>
        <time>2014-07-15T10:18:05Z</time>
      </trkpt>
      <trkpt lat="45.63393" lon="6.56667">
        <ele>1671</ele>
        <time>2014-07-15T10:18:08Z</time>
      </trkpt>
      <trkpt lat="45.63393" lon="6.56664">
        <ele>1671</ele>
        <time>2014-07-15T10:18:10Z</time>
      </trkpt>
      <trkpt lat="45.63395" lon="6.56662">
        <ele>1672</ele>
        <time>2014-07-15T10:18:14Z</time>
      </trkpt>
      <trkpt lat="45.63406" lon="6.56663">
        <ele>1673</ele>
        <time>2014-07-15T10:18:31Z</time>
      </trkpt>
      <trkpt lat="45.63411" lon="6.56653">
        <ele>1673</ele>
        <time>2014-07-15T10:18:37Z</time>
      </trkpt>
      <trkpt lat="45.63411" lon="6.56651">
        <ele>1673</ele>
        <time>2014-07-15T10:18:40Z</time>
      </trkpt>
      <trkpt lat="45.6341" lon="6.56646">
        <ele>1674</ele>
        <time>2014-07-15T10:18:51Z</time>
      </trkpt>
      <trkpt lat="45.63409" lon="6.56645">
        <ele>1674</ele>
        <time>2014-07-15T10:18:53Z</time>
      </trkpt>
      <trkpt lat="45.63407" lon="6.56643">
        <ele>1675</ele>
        <time>2014-07-15T10:18:56Z</time>
      </trkpt>
      <trkpt lat="45.63405" lon="6.56642">
        <ele>1675</ele>
        <time>2014-07-15T10:18:58Z</time>
      </trkpt>
      <trkpt lat="45.63404" lon="6.56641">
        <ele>1675</ele>
        <time>2014-07-15T10:19:00Z</time>
      </trkpt>
      <trkpt lat="45.63403" lon="6.5664">
        <ele>1675</ele>
        <time>2014-07-15T10:19:02Z</time>
      </trkpt>
      <trkpt lat="45.63402" lon="6.56638">
        <ele>1676</ele>
        <time>2014-07-15T10:19:05Z</time>
      </trkpt>
      <trkpt lat="45.63401" lon="6.56636">
        <ele>1676</ele>
        <time>2014-07-15T10:19:09Z</time>
      </trkpt>
      <trkpt lat="45.63402" lon="6.56633">
        <ele>1676</ele>
        <time>2014-07-15T10:19:12Z</time>
      </trkpt>
      <trkpt lat="45.63405" lon="6.56613">
        <ele>1679</ele>
        <time>2014-07-15T10:19:46Z</time>
      </trkpt>
      <trkpt lat="45.63405" lon="6.5661">
        <ele>1679</ele>
        <time>2014-07-15T10:19:48Z</time>
      </trkpt>
      <trkpt lat="45.63407" lon="6.56605">
        <ele>1679</ele>
        <time>2014-07-15T10:19:52Z</time>
      </trkpt>
      <trkpt lat="45.63405" lon="6.56603">
        <ele>1680</ele>
        <time>2014-07-15T10:19:54Z</time>
      </trkpt>
      <trkpt lat="45.63403" lon="6.56598">
        <ele>1681</ele>
        <time>2014-07-15T10:20:02Z</time>
      </trkpt>
      <trkpt lat="45.63401" lon="6.56597">
        <ele>1681</ele>
        <time>2014-07-15T10:20:05Z</time>
      </trkpt>
      <trkpt lat="45.634" lon="6.56593">
        <ele>1682</ele>
        <time>2014-07-15T10:20:10Z</time>
      </trkpt>
      <trkpt lat="45.634" lon="6.56592">
        <ele>1682</ele>
        <time>2014-07-15T10:20:12Z</time>
      </trkpt>
      <trkpt lat="45.63399" lon="6.5659">
        <ele>1682</ele>
        <time>2014-07-15T10:20:14Z</time>
      </trkpt>
      <trkpt lat="45.63397" lon="6.5659">
        <ele>1683</ele>
        <time>2014-07-15T10:20:16Z</time>
      </trkpt>
      <trkpt lat="45.63396" lon="6.56589">
        <ele>1683</ele>
        <time>2014-07-15T10:20:18Z</time>
      </trkpt>
      <trkpt lat="45.63395" lon="6.56588">
        <ele>1683</ele>
        <time>2014-07-15T10:20:20Z</time>
      </trkpt>
      <trkpt lat="45.63384" lon="6.56591">
        <ele>1686</ele>
        <time>2014-07-15T10:20:36Z</time>
      </trkpt>
      <trkpt lat="45.63382" lon="6.5659">
        <ele>1686</ele>
        <time>2014-07-15T10:20:38Z</time>
      </trkpt>
      <trkpt lat="45.63381" lon="6.56589">
        <ele>1686</ele>
        <time>2014-07-15T10:20:40Z</time>
      </trkpt>
      <trkpt lat="45.6338" lon="6.56585">
        <ele>1687</ele>
        <time>2014-07-15T10:20:49Z</time>
      </trkpt>
      <trkpt lat="45.6338" lon="6.56583">
        <ele>1687</ele>
        <time>2014-07-15T10:20:51Z</time>
      </trkpt>
      <trkpt lat="45.63379" lon="6.56581">
        <ele>1688</ele>
        <time>2014-07-15T10:20:53Z</time>
      </trkpt>
      <trkpt lat="45.63378" lon="6.5658">
        <ele>1688</ele>
        <time>2014-07-15T10:20:54Z</time>
      </trkpt>
      <trkpt lat="45.63375" lon="6.56576">
        <ele>1688</ele>
        <time>2014-07-15T10:20:59Z</time>
      </trkpt>
      <trkpt lat="45.63374" lon="6.56575">
        <ele>1689</ele>
        <time>2014-07-15T10:21:01Z</time>
      </trkpt>
      <trkpt lat="45.63372" lon="6.56574">
        <ele>1689</ele>
        <time>2014-07-15T10:21:04Z</time>
      </trkpt>
      <trkpt lat="45.63371" lon="6.56574">
        <ele>1690</ele>
        <time>2014-07-15T10:21:06Z</time>
      </trkpt>
      <trkpt lat="45.63369" lon="6.56573">
        <ele>1690</ele>
        <time>2014-07-15T10:21:08Z</time>
      </trkpt>
      <trkpt lat="45.63368" lon="6.56571">
        <ele>1690</ele>
        <time>2014-07-15T10:21:10Z</time>
      </trkpt>
      <trkpt lat="45.63366" lon="6.56571">
        <ele>1691</ele>
        <time>2014-07-15T10:21:16Z</time>
      </trkpt>
      <trkpt lat="45.6336" lon="6.56563">
        <ele>1692</ele>
        <time>2014-07-15T10:21:27Z</time>
      </trkpt>
      <trkpt lat="45.63356" lon="6.56563">
        <ele>1692</ele>
        <time>2014-07-15T10:21:32Z</time>
      </trkpt>
      <trkpt lat="45.63355" lon="6.56563">
        <ele>1693</ele>
        <time>2014-07-15T10:21:34Z</time>
      </trkpt>
      <trkpt lat="45.63353" lon="6.56563">
        <ele>1693</ele>
        <time>2014-07-15T10:21:35Z</time>
      </trkpt>
      <trkpt lat="45.63352" lon="6.56562">
        <ele>1694</ele>
        <time>2014-07-15T10:21:38Z</time>
      </trkpt>
      <trkpt lat="45.63347" lon="6.56557">
        <ele>1695</ele>
        <time>2014-07-15T10:21:46Z</time>
      </trkpt>
      <trkpt lat="45.63346" lon="6.56558">
        <ele>1695</ele>
        <time>2014-07-15T10:21:49Z</time>
      </trkpt>
      <trkpt lat="45.63344" lon="6.56557">
        <ele>1695</ele>
        <time>2014-07-15T10:21:51Z</time>
      </trkpt>
      <trkpt lat="45.63343" lon="6.56554">
        <ele>1695</ele>
        <time>2014-07-15T10:21:55Z</time>
      </trkpt>
      <trkpt lat="45.63343" lon="6.56552">
        <ele>1696</ele>
        <time>2014-07-15T10:21:58Z</time>
      </trkpt>
      <trkpt lat="45.63341" lon="6.56551">
        <ele>1696</ele>
        <time>2014-07-15T10:22:01Z</time>
      </trkpt>
      <trkpt lat="45.63341" lon="6.56549">
        <ele>1696</ele>
        <time>2014-07-15T10:22:04Z</time>
      </trkpt>
      <trkpt lat="45.6334" lon="6.56547">
        <ele>1697</ele>
        <time>2014-07-15T10:22:07Z</time>
      </trkpt>
      <trkpt lat="45.63338" lon="6.56547">
        <ele>1697</ele>
        <time>2014-07-15T10:22:09Z</time>
      </trkpt>
      <trkpt lat="45.63337" lon="6.56547">
        <ele>1698</ele>
        <time>2014-07-15T10:22:12Z</time>
      </trkpt>
      <trkpt lat="45.63334" lon="6.56545">
        <ele>1699</ele>
        <time>2014-07-15T10:22:21Z</time>
      </trkpt>
      <trkpt lat="45.63319" lon="6.56548">
        <ele>1703</ele>
        <time>2014-07-15T10:22:44Z</time>
      </trkpt>
      <trkpt lat="45.6331" lon="6.56548">
        <ele>1705</ele>
        <time>2014-07-15T10:23:28Z</time>
      </trkpt>
      <trkpt lat="45.63308" lon="6.56548">
        <ele>1706</ele>
        <time>2014-07-15T10:23:30Z</time>
      </trkpt>
      <trkpt lat="45.63305" lon="6.56551">
        <ele>1707</ele>
        <time>2014-07-15T10:23:37Z</time>
      </trkpt>
      <trkpt lat="45.63301" lon="6.5656">
        <ele>1708</ele>
        <time>2014-07-15T10:23:58Z</time>
      </trkpt>
      <trkpt lat="45.63302" lon="6.56563">
        <ele>1709</ele>
        <time>2014-07-15T10:24:02Z</time>
      </trkpt>
      <trkpt lat="45.63301" lon="6.56572">
        <ele>1710</ele>
        <time>2014-07-15T10:24:13Z</time>
      </trkpt>
      <trkpt lat="45.633" lon="6.56572">
        <ele>1711</ele>
        <time>2014-07-15T10:24:19Z</time>
      </trkpt>
      <trkpt lat="45.63298" lon="6.56571">
        <ele>1712</ele>
        <time>2014-07-15T10:24:22Z</time>
      </trkpt>
      <trkpt lat="45.63297" lon="6.56571">
        <ele>1712</ele>
        <time>2014-07-15T10:24:25Z</time>
      </trkpt>
      <trkpt lat="45.63296" lon="6.56569">
        <ele>1712</ele>
        <time>2014-07-15T10:24:28Z</time>
      </trkpt>
      <trkpt lat="45.63295" lon="6.56564">
        <ele>1713</ele>
        <time>2014-07-15T10:24:32Z</time>
      </trkpt>
      <trkpt lat="45.63296" lon="6.56563">
        <ele>1713</ele>
        <time>2014-07-15T10:24:35Z</time>
      </trkpt>
      <trkpt lat="45.63294" lon="6.56559">
        <ele>1714</ele>
        <time>2014-07-15T10:24:45Z</time>
      </trkpt>
      <trkpt lat="45.63293" lon="6.56558">
        <ele>1714</ele>
        <time>2014-07-15T10:24:49Z</time>
      </trkpt>
      <trkpt lat="45.6329" lon="6.56556">
        <ele>1715</ele>
        <time>2014-07-15T10:24:55Z</time>
      </trkpt>
      <trkpt lat="45.63289" lon="6.56555">
        <ele>1715</ele>
        <time>2014-07-15T10:24:58Z</time>
      </trkpt>
      <trkpt lat="45.63283" lon="6.56551">
        <ele>1716</ele>
        <time>2014-07-15T10:25:11Z</time>
      </trkpt>
      <trkpt lat="45.63283" lon="6.56558">
        <ele>1722</ele>
        <time>2014-07-15T10:27:46Z</time>
      </trkpt>
      <trkpt lat="45.63284" lon="6.56557">
        <ele>1724</ele>
        <time>2014-07-15T10:28:12Z</time>
      </trkpt>
      <trkpt lat="45.63286" lon="6.56557">
        <ele>1724</ele>
        <time>2014-07-15T10:28:16Z</time>
      </trkpt>
      <trkpt lat="45.63285" lon="6.56552">
        <ele>1726</ele>
        <time>2014-07-15T10:29:08Z</time>
      </trkpt>
      <trkpt lat="45.63283" lon="6.56552">
        <ele>1726</ele>
        <time>2014-07-15T10:29:11Z</time>
      </trkpt>
      <trkpt lat="45.63282" lon="6.56553">
        <ele>1726</ele>
        <time>2014-07-15T10:29:14Z</time>
      </trkpt>
      <trkpt lat="45.63283" lon="6.56567">
        <ele>1727</ele>
        <time>2014-07-15T10:29:51Z</time>
      </trkpt>
      <trkpt lat="45.63283" lon="6.56568">
        <ele>1727</ele>
        <time>2014-07-15T10:29:54Z</time>
      </trkpt>
      <trkpt lat="45.63284" lon="6.56558">
        <ele>1727</ele>
        <time>2014-07-15T10:29:58Z</time>
      </trkpt>
      <trkpt lat="45.63284" lon="6.56556">
        <ele>1727</ele>
        <time>2014-07-15T10:30:00Z</time>
      </trkpt>
      <trkpt lat="45.63282" lon="6.56552">
        <ele>1727</ele>
        <time>2014-07-15T10:30:04Z</time>
      </trkpt>
      <trkpt lat="45.63278" lon="6.56543">
        <ele>1728</ele>
        <time>2014-07-15T10:30:14Z</time>
      </trkpt>
      <trkpt lat="45.63277" lon="6.56543">
        <ele>1728</ele>
        <time>2014-07-15T10:30:16Z</time>
      </trkpt>
      <trkpt lat="45.63275" lon="6.56541">
        <ele>1728</ele>
        <time>2014-07-15T10:30:18Z</time>
      </trkpt>
      <trkpt lat="45.63274" lon="6.5654">
        <ele>1728</ele>
        <time>2014-07-15T10:30:20Z</time>
      </trkpt>
      <trkpt lat="45.63269" lon="6.56536">
        <ele>1728</ele>
        <time>2014-07-15T10:30:26Z</time>
      </trkpt>
      <trkpt lat="45.63268" lon="6.56535">
        <ele>1728</ele>
        <time>2014-07-15T10:30:27Z</time>
      </trkpt>
      <trkpt lat="45.63266" lon="6.56534">
        <ele>1728</ele>
        <time>2014-07-15T10:30:30Z</time>
      </trkpt>
      <trkpt lat="45.63264" lon="6.56535">
        <ele>1729</ele>
        <time>2014-07-15T10:30:32Z</time>
      </trkpt>
      <trkpt lat="45.63262" lon="6.56535">
        <ele>1729</ele>
        <time>2014-07-15T10:30:34Z</time>
      </trkpt>
      <trkpt lat="45.63261" lon="6.56535">
        <ele>1729</ele>
        <time>2014-07-15T10:30:36Z</time>
      </trkpt>
      <trkpt lat="45.63252" lon="6.5653">
        <ele>1730</ele>
        <time>2014-07-15T10:30:54Z</time>
      </trkpt>
      <trkpt lat="45.63248" lon="6.56532">
        <ele>1731</ele>
        <time>2014-07-15T10:30:59Z</time>
      </trkpt>
      <trkpt lat="45.63246" lon="6.56531">
        <ele>1731</ele>
        <time>2014-07-15T10:31:01Z</time>
      </trkpt>
      <trkpt lat="45.63245" lon="6.5653">
        <ele>1731</ele>
        <time>2014-07-15T10:31:04Z</time>
      </trkpt>
      <trkpt lat="45.63244" lon="6.56529">
        <ele>1731</ele>
        <time>2014-07-15T10:31:07Z</time>
      </trkpt>
      <trkpt lat="45.63243" lon="6.56526">
        <ele>1731</ele>
        <time>2014-07-15T10:31:11Z</time>
      </trkpt>
      <trkpt lat="45.63244" lon="6.56524">
        <ele>1731</ele>
        <time>2014-07-15T10:31:14Z</time>
      </trkpt>
      <trkpt lat="45.63242" lon="6.56522">
        <ele>1732</ele>
        <time>2014-07-15T10:31:16Z</time>
      </trkpt>
      <trkpt lat="45.63241" lon="6.5652">
        <ele>1732</ele>
        <time>2014-07-15T10:31:20Z</time>
      </trkpt>
      <trkpt lat="45.63238" lon="6.56517">
        <ele>1732</ele>
        <time>2014-07-15T10:31:25Z</time>
      </trkpt>
      <trkpt lat="45.63238" lon="6.56515">
        <ele>1733</ele>
        <time>2014-07-15T10:31:28Z</time>
      </trkpt>
      <trkpt lat="45.63236" lon="6.56511">
        <ele>1733</ele>
        <time>2014-07-15T10:31:33Z</time>
      </trkpt>
      <trkpt lat="45.63235" lon="6.56507">
        <ele>1734</ele>
        <time>2014-07-15T10:31:40Z</time>
      </trkpt>
      <trkpt lat="45.63234" lon="6.56505">
        <ele>1734</ele>
        <time>2014-07-15T10:31:45Z</time>
      </trkpt>
      <trkpt lat="45.63233" lon="6.56503">
        <ele>1735</ele>
        <time>2014-07-15T10:31:49Z</time>
      </trkpt>
      <trkpt lat="45.63232" lon="6.56501">
        <ele>1735</ele>
        <time>2014-07-15T10:31:52Z</time>
      </trkpt>
      <trkpt lat="45.6323" lon="6.56495">
        <ele>1736</ele>
        <time>2014-07-15T10:32:01Z</time>
      </trkpt>
      <trkpt lat="45.63217" lon="6.56485">
        <ele>1739</ele>
        <time>2014-07-15T10:32:28Z</time>
      </trkpt>
      <trkpt lat="45.63218" lon="6.56483">
        <ele>1739</ele>
        <time>2014-07-15T10:32:32Z</time>
      </trkpt>
      <trkpt lat="45.63218" lon="6.56477">
        <ele>1740</ele>
        <time>2014-07-15T10:32:43Z</time>
      </trkpt>
      <trkpt lat="45.63217" lon="6.56476">
        <ele>1740</ele>
        <time>2014-07-15T10:32:46Z</time>
      </trkpt>
      <trkpt lat="45.63214" lon="6.56458">
        <ele>1741</ele>
        <time>2014-07-15T10:33:03Z</time>
      </trkpt>
      <trkpt lat="45.63212" lon="6.56458">
        <ele>1741</ele>
        <time>2014-07-15T10:33:08Z</time>
      </trkpt>
      <trkpt lat="45.63209" lon="6.56457">
        <ele>1742</ele>
        <time>2014-07-15T10:33:14Z</time>
      </trkpt>
      <trkpt lat="45.63206" lon="6.56458">
        <ele>1743</ele>
        <time>2014-07-15T10:33:24Z</time>
      </trkpt>
      <trkpt lat="45.63204" lon="6.56458">
        <ele>1743</ele>
        <time>2014-07-15T10:33:27Z</time>
      </trkpt>
      <trkpt lat="45.63202" lon="6.56458">
        <ele>1744</ele>
        <time>2014-07-15T10:33:37Z</time>
      </trkpt>
      <trkpt lat="45.63201" lon="6.56455">
        <ele>1745</ele>
        <time>2014-07-15T10:33:40Z</time>
      </trkpt>
      <trkpt lat="45.63199" lon="6.56452">
        <ele>1746</ele>
        <time>2014-07-15T10:33:47Z</time>
      </trkpt>
      <trkpt lat="45.63183" lon="6.56435">
        <ele>1748</ele>
        <time>2014-07-15T10:34:17Z</time>
      </trkpt>
      <trkpt lat="45.63178" lon="6.56429">
        <ele>1749</ele>
        <time>2014-07-15T10:34:25Z</time>
      </trkpt>
      <trkpt lat="45.63176" lon="6.56422">
        <ele>1749</ele>
        <time>2014-07-15T10:34:33Z</time>
      </trkpt>
      <trkpt lat="45.63173" lon="6.5642">
        <ele>1750</ele>
        <time>2014-07-15T10:34:38Z</time>
      </trkpt>
      <trkpt lat="45.63171" lon="6.5642">
        <ele>1750</ele>
        <time>2014-07-15T10:34:39Z</time>
      </trkpt>
      <trkpt lat="45.6317" lon="6.56418">
        <ele>1750</ele>
        <time>2014-07-15T10:34:42Z</time>
      </trkpt>
      <trkpt lat="45.63169" lon="6.56417">
        <ele>1751</ele>
        <time>2014-07-15T10:34:46Z</time>
      </trkpt>
      <trkpt lat="45.63167" lon="6.56416">
        <ele>1751</ele>
        <time>2014-07-15T10:34:48Z</time>
      </trkpt>
      <trkpt lat="45.63163" lon="6.56414">
        <ele>1752</ele>
        <time>2014-07-15T10:34:56Z</time>
      </trkpt>
      <trkpt lat="45.63156" lon="6.56412">
        <ele>1752</ele>
        <time>2014-07-15T10:35:06Z</time>
      </trkpt>
      <trkpt lat="45.63158" lon="6.56408">
        <ele>1753</ele>
        <time>2014-07-15T10:35:10Z</time>
      </trkpt>
      <trkpt lat="45.63157" lon="6.56405">
        <ele>1753</ele>
        <time>2014-07-15T10:35:16Z</time>
      </trkpt>
      <trkpt lat="45.63155" lon="6.56399">
        <ele>1753</ele>
        <time>2014-07-15T10:35:24Z</time>
      </trkpt>
      <trkpt lat="45.63152" lon="6.56396">
        <ele>1753</ele>
        <time>2014-07-15T10:35:30Z</time>
      </trkpt>
      <trkpt lat="45.6315" lon="6.56392">
        <ele>1754</ele>
        <time>2014-07-15T10:35:34Z</time>
      </trkpt>
      <trkpt lat="45.63145" lon="6.56359">
        <ele>1755</ele>
        <time>2014-07-15T10:36:04Z</time>
      </trkpt>
      <trkpt lat="45.63143" lon="6.56357">
        <ele>1755</ele>
        <time>2014-07-15T10:36:07Z</time>
      </trkpt>
      <trkpt lat="45.63136" lon="6.56336">
        <ele>1757</ele>
        <time>2014-07-15T10:36:30Z</time>
      </trkpt>
      <trkpt lat="45.63135" lon="6.56336">
        <ele>1757</ele>
        <time>2014-07-15T10:36:31Z</time>
      </trkpt>
      <trkpt lat="45.63134" lon="6.56333">
        <ele>1757</ele>
        <time>2014-07-15T10:36:33Z</time>
      </trkpt>
      <trkpt lat="45.63131" lon="6.56331">
        <ele>1758</ele>
        <time>2014-07-15T10:36:38Z</time>
      </trkpt>
      <trkpt lat="45.63129" lon="6.56331">
        <ele>1758</ele>
        <time>2014-07-15T10:36:40Z</time>
      </trkpt>
      <trkpt lat="45.63128" lon="6.56329">
        <ele>1758</ele>
        <time>2014-07-15T10:36:42Z</time>
      </trkpt>
      <trkpt lat="45.63128" lon="6.56327">
        <ele>1758</ele>
        <time>2014-07-15T10:36:45Z</time>
      </trkpt>
      <trkpt lat="45.63125" lon="6.56326">
        <ele>1758</ele>
        <time>2014-07-15T10:36:49Z</time>
      </trkpt>
      <trkpt lat="45.63124" lon="6.56323">
        <ele>1759</ele>
        <time>2014-07-15T10:36:54Z</time>
      </trkpt>
      <trkpt lat="45.63118" lon="6.56316">
        <ele>1760</ele>
        <time>2014-07-15T10:37:04Z</time>
      </trkpt>
      <trkpt lat="45.63118" lon="6.56307">
        <ele>1761</ele>
        <time>2014-07-15T10:37:19Z</time>
      </trkpt>
      <trkpt lat="45.63113" lon="6.56304">
        <ele>1762</ele>
        <time>2014-07-15T10:37:38Z</time>
      </trkpt>
      <trkpt lat="45.63113" lon="6.56299">
        <ele>1762</ele>
        <time>2014-07-15T10:37:42Z</time>
      </trkpt>
      <trkpt lat="45.63111" lon="6.56291">
        <ele>1763</ele>
        <time>2014-07-15T10:37:50Z</time>
      </trkpt>
      <trkpt lat="45.63102" lon="6.56289">
        <ele>1765</ele>
        <time>2014-07-15T10:38:31Z</time>
      </trkpt>
      <trkpt lat="45.63103" lon="6.56287">
        <ele>1765</ele>
        <time>2014-07-15T10:38:32Z</time>
      </trkpt>
      <trkpt lat="45.63101" lon="6.56284">
        <ele>1766</ele>
        <time>2014-07-15T10:38:43Z</time>
      </trkpt>
      <trkpt lat="45.63099" lon="6.56283">
        <ele>1766</ele>
        <time>2014-07-15T10:38:47Z</time>
      </trkpt>
      <trkpt lat="45.63098" lon="6.56281">
        <ele>1766</ele>
        <time>2014-07-15T10:38:51Z</time>
      </trkpt>
      <trkpt lat="45.63098" lon="6.56279">
        <ele>1766</ele>
        <time>2014-07-15T10:38:54Z</time>
      </trkpt>
      <trkpt lat="45.63095" lon="6.56277">
        <ele>1768</ele>
        <time>2014-07-15T10:39:11Z</time>
      </trkpt>
      <trkpt lat="45.63093" lon="6.56273">
        <ele>1769</ele>
        <time>2014-07-15T10:39:16Z</time>
      </trkpt>
      <trkpt lat="45.63093" lon="6.5627">
        <ele>1769</ele>
        <time>2014-07-15T10:39:21Z</time>
      </trkpt>
      <trkpt lat="45.63091" lon="6.56264">
        <ele>1769</ele>
        <time>2014-07-15T10:39:28Z</time>
      </trkpt>
      <trkpt lat="45.63089" lon="6.56277">
        <ele>1770</ele>
        <time>2014-07-15T10:39:56Z</time>
      </trkpt>
      <trkpt lat="45.63076" lon="6.56314">
        <ele>1770</ele>
        <time>2014-07-15T10:40:17Z</time>
      </trkpt>
      <trkpt lat="45.63075" lon="6.56312">
        <ele>1770</ele>
        <time>2014-07-15T10:40:20Z</time>
      </trkpt>
      <trkpt lat="45.63075" lon="6.56297">
        <ele>1769</ele>
        <time>2014-07-15T10:40:22Z</time>
      </trkpt>
      <trkpt lat="45.63088" lon="6.56274">
        <ele>1770</ele>
        <time>2014-07-15T10:40:42Z</time>
      </trkpt>
      <trkpt lat="45.63075" lon="6.56278">
        <ele>1772</ele>
        <time>2014-07-15T10:41:14Z</time>
      </trkpt>
      <trkpt lat="45.63071" lon="6.56277">
        <ele>1772</ele>
        <time>2014-07-15T10:41:19Z</time>
      </trkpt>
      <trkpt lat="45.63066" lon="6.56272">
        <ele>1773</ele>
        <time>2014-07-15T10:41:32Z</time>
      </trkpt>
      <trkpt lat="45.63064" lon="6.56272">
        <ele>1773</ele>
        <time>2014-07-15T10:41:35Z</time>
      </trkpt>
      <trkpt lat="45.63054" lon="6.56263">
        <ele>1774</ele>
        <time>2014-07-15T10:42:07Z</time>
      </trkpt>
      <trkpt lat="45.63047" lon="6.56257">
        <ele>1776</ele>
        <time>2014-07-15T10:42:31Z</time>
      </trkpt>
      <trkpt lat="45.63049" lon="6.56255">
        <ele>1776</ele>
        <time>2014-07-15T10:42:35Z</time>
      </trkpt>
      <trkpt lat="45.63053" lon="6.56252">
        <ele>1777</ele>
        <time>2014-07-15T10:42:43Z</time>
      </trkpt>
      <trkpt lat="45.63052" lon="6.56247">
        <ele>1778</ele>
        <time>2014-07-15T10:42:56Z</time>
      </trkpt>
      <trkpt lat="45.63049" lon="6.56244">
        <ele>1778</ele>
        <time>2014-07-15T10:43:03Z</time>
      </trkpt>
      <trkpt lat="45.63037" lon="6.56243">
        <ele>1780</ele>
        <time>2014-07-15T10:43:34Z</time>
      </trkpt>
      <trkpt lat="45.63036" lon="6.5624">
        <ele>1780</ele>
        <time>2014-07-15T10:43:37Z</time>
      </trkpt>
      <trkpt lat="45.63034" lon="6.56239">
        <ele>1780</ele>
        <time>2014-07-15T10:43:40Z</time>
      </trkpt>
      <trkpt lat="45.63033" lon="6.56236">
        <ele>1780</ele>
        <time>2014-07-15T10:43:46Z</time>
      </trkpt>
      <trkpt lat="45.63032" lon="6.56224">
        <ele>1782</ele>
        <time>2014-07-15T10:44:00Z</time>
      </trkpt>
      <trkpt lat="45.63031" lon="6.56221">
        <ele>1784</ele>
        <time>2014-07-15T10:44:06Z</time>
      </trkpt>
      <trkpt lat="45.63031" lon="6.56219">
        <ele>1784</ele>
        <time>2014-07-15T10:44:09Z</time>
      </trkpt>
      <trkpt lat="45.63029" lon="6.56216">
        <ele>1786</ele>
        <time>2014-07-15T10:44:20Z</time>
      </trkpt>
      <trkpt lat="45.63024" lon="6.56213">
        <ele>1787</ele>
        <time>2014-07-15T10:44:28Z</time>
      </trkpt>
      <trkpt lat="45.63022" lon="6.56211">
        <ele>1787</ele>
        <time>2014-07-15T10:44:31Z</time>
      </trkpt>
      <trkpt lat="45.63021" lon="6.5621">
        <ele>1787</ele>
        <time>2014-07-15T10:44:49Z</time>
      </trkpt>
      <trkpt lat="45.63018" lon="6.56201">
        <ele>1791</ele>
        <time>2014-07-15T10:45:01Z</time>
      </trkpt>
      <trkpt lat="45.63015" lon="6.56196">
        <ele>1792</ele>
        <time>2014-07-15T10:45:09Z</time>
      </trkpt>
      <trkpt lat="45.63016" lon="6.56192">
        <ele>1792</ele>
        <time>2014-07-15T10:45:12Z</time>
      </trkpt>
      <trkpt lat="45.63015" lon="6.5619">
        <ele>1793</ele>
        <time>2014-07-15T10:45:15Z</time>
      </trkpt>
      <trkpt lat="45.63013" lon="6.56189">
        <ele>1793</ele>
        <time>2014-07-15T10:45:17Z</time>
      </trkpt>
      <trkpt lat="45.63011" lon="6.56187">
        <ele>1794</ele>
        <time>2014-07-15T10:45:23Z</time>
      </trkpt>
      <trkpt lat="45.63008" lon="6.5618">
        <ele>1795</ele>
        <time>2014-07-15T10:45:32Z</time>
      </trkpt>
      <trkpt lat="45.63011" lon="6.56171">
        <ele>1797</ele>
        <time>2014-07-15T10:45:50Z</time>
      </trkpt>
      <trkpt lat="45.6301" lon="6.56169">
        <ele>1798</ele>
        <time>2014-07-15T10:45:54Z</time>
      </trkpt>
      <trkpt lat="45.63005" lon="6.56168">
        <ele>1798</ele>
        <time>2014-07-15T10:46:00Z</time>
      </trkpt>
      <trkpt lat="45.63004" lon="6.56169">
        <ele>1798</ele>
        <time>2014-07-15T10:46:02Z</time>
      </trkpt>
      <trkpt lat="45.63002" lon="6.56168">
        <ele>1799</ele>
        <time>2014-07-15T10:46:06Z</time>
      </trkpt>
      <trkpt lat="45.63002" lon="6.56166">
        <ele>1800</ele>
        <time>2014-07-15T10:46:09Z</time>
      </trkpt>
      <trkpt lat="45.63002" lon="6.56163">
        <ele>1800</ele>
        <time>2014-07-15T10:46:11Z</time>
      </trkpt>
      <trkpt lat="45.63" lon="6.56161">
        <ele>1800</ele>
        <time>2014-07-15T10:46:13Z</time>
      </trkpt>
      <trkpt lat="45.62996" lon="6.5615">
        <ele>1801</ele>
        <time>2014-07-15T10:46:28Z</time>
      </trkpt>
      <trkpt lat="45.62994" lon="6.56147">
        <ele>1802</ele>
        <time>2014-07-15T10:46:36Z</time>
      </trkpt>
      <trkpt lat="45.62996" lon="6.56138">
        <ele>1803</ele>
        <time>2014-07-15T10:46:42Z</time>
      </trkpt>
      <trkpt lat="45.62997" lon="6.56135">
        <ele>1804</ele>
        <time>2014-07-15T10:46:45Z</time>
      </trkpt>
      <trkpt lat="45.62995" lon="6.56131">
        <ele>1804</ele>
        <time>2014-07-15T10:46:53Z</time>
      </trkpt>
      <trkpt lat="45.62991" lon="6.56122">
        <ele>1805</ele>
        <time>2014-07-15T10:47:02Z</time>
      </trkpt>
      <trkpt lat="45.62985" lon="6.56123">
        <ele>1807</ele>
        <time>2014-07-15T10:47:23Z</time>
      </trkpt>
      <trkpt lat="45.62983" lon="6.56122">
        <ele>1807</ele>
        <time>2014-07-15T10:47:27Z</time>
      </trkpt>
      <trkpt lat="45.62983" lon="6.5612">
        <ele>1807</ele>
        <time>2014-07-15T10:47:29Z</time>
      </trkpt>
      <trkpt lat="45.62977" lon="6.56114">
        <ele>1809</ele>
        <time>2014-07-15T10:47:47Z</time>
      </trkpt>
      <trkpt lat="45.62977" lon="6.56111">
        <ele>1810</ele>
        <time>2014-07-15T10:47:50Z</time>
      </trkpt>
      <trkpt lat="45.62977" lon="6.56106">
        <ele>1810</ele>
        <time>2014-07-15T10:47:55Z</time>
      </trkpt>
      <trkpt lat="45.62975" lon="6.56105">
        <ele>1810</ele>
        <time>2014-07-15T10:47:59Z</time>
      </trkpt>
      <trkpt lat="45.62971" lon="6.56096">
        <ele>1812</ele>
        <time>2014-07-15T10:48:25Z</time>
      </trkpt>
      <trkpt lat="45.62969" lon="6.56096">
        <ele>1812</ele>
        <time>2014-07-15T10:48:28Z</time>
      </trkpt>
      <trkpt lat="45.62968" lon="6.56095">
        <ele>1813</ele>
        <time>2014-07-15T10:48:32Z</time>
      </trkpt>
      <trkpt lat="45.62966" lon="6.56091">
        <ele>1813</ele>
        <time>2014-07-15T10:48:35Z</time>
      </trkpt>
      <trkpt lat="45.62966" lon="6.56089">
        <ele>1813</ele>
        <time>2014-07-15T10:48:37Z</time>
      </trkpt>
      <trkpt lat="45.62964" lon="6.56087">
        <ele>1814</ele>
        <time>2014-07-15T10:48:43Z</time>
      </trkpt>
      <trkpt lat="45.62963" lon="6.56084">
        <ele>1814</ele>
        <time>2014-07-15T10:48:46Z</time>
      </trkpt>
      <trkpt lat="45.62966" lon="6.56077">
        <ele>1815</ele>
        <time>2014-07-15T10:48:51Z</time>
      </trkpt>
      <trkpt lat="45.62963" lon="6.56072">
        <ele>1815</ele>
        <time>2014-07-15T10:49:01Z</time>
      </trkpt>
      <trkpt lat="45.62961" lon="6.56073">
        <ele>1816</ele>
        <time>2014-07-15T10:49:04Z</time>
      </trkpt>
      <trkpt lat="45.62959" lon="6.5607">
        <ele>1816</ele>
        <time>2014-07-15T10:49:10Z</time>
      </trkpt>
      <trkpt lat="45.62958" lon="6.56067">
        <ele>1817</ele>
        <time>2014-07-15T10:49:14Z</time>
      </trkpt>
      <trkpt lat="45.62958" lon="6.56065">
        <ele>1817</ele>
        <time>2014-07-15T10:49:15Z</time>
      </trkpt>
      <trkpt lat="45.6296" lon="6.56046">
        <ele>1820</ele>
        <time>2014-07-15T10:49:36Z</time>
      </trkpt>
      <trkpt lat="45.62968" lon="6.56035">
        <ele>1821</ele>
        <time>2014-07-15T10:49:55Z</time>
      </trkpt>
      <trkpt lat="45.62967" lon="6.56048">
        <ele>1822</ele>
        <time>2014-07-15T10:50:49Z</time>
      </trkpt>
      <trkpt lat="45.62963" lon="6.56051">
        <ele>1822</ele>
        <time>2014-07-15T10:50:52Z</time>
      </trkpt>
      <trkpt lat="45.62973" lon="6.56043">
        <ele>1823</ele>
        <time>2014-07-15T10:51:07Z</time>
      </trkpt>
      <trkpt lat="45.62964" lon="6.56043">
        <ele>1824</ele>
        <time>2014-07-15T10:51:25Z</time>
      </trkpt>
      <trkpt lat="45.62949" lon="6.56057">
        <ele>1825</ele>
        <time>2014-07-15T10:51:49Z</time>
      </trkpt>
      <trkpt lat="45.62946" lon="6.56055">
        <ele>1826</ele>
        <time>2014-07-15T10:51:56Z</time>
      </trkpt>
      <trkpt lat="45.62945" lon="6.56052">
        <ele>1826</ele>
        <time>2014-07-15T10:51:59Z</time>
      </trkpt>
      <trkpt lat="45.62946" lon="6.5605">
        <ele>1826</ele>
        <time>2014-07-15T10:52:00Z</time>
      </trkpt>
      <trkpt lat="45.62943" lon="6.56045">
        <ele>1826</ele>
        <time>2014-07-15T10:52:06Z</time>
      </trkpt>
      <trkpt lat="45.62942" lon="6.56041">
        <ele>1826</ele>
        <time>2014-07-15T10:52:09Z</time>
      </trkpt>
      <trkpt lat="45.62941" lon="6.56039">
        <ele>1826</ele>
        <time>2014-07-15T10:52:12Z</time>
      </trkpt>
      <trkpt lat="45.62928" lon="6.5603">
        <ele>1827</ele>
        <time>2014-07-15T10:52:31Z</time>
      </trkpt>
      <trkpt lat="45.62925" lon="6.56023">
        <ele>1827</ele>
        <time>2014-07-15T10:52:41Z</time>
      </trkpt>
      <trkpt lat="45.62919" lon="6.56033">
        <ele>1827</ele>
        <time>2014-07-15T10:52:58Z</time>
      </trkpt>
      <trkpt lat="45.62919" lon="6.56032">
        <ele>1829</ele>
        <time>2014-07-15T10:53:34Z</time>
      </trkpt>
      <trkpt lat="45.62923" lon="6.56021">
        <ele>1831</ele>
        <time>2014-07-15T10:53:44Z</time>
      </trkpt>
      <trkpt lat="45.62924" lon="6.56024">
        <ele>1832</ele>
        <time>2014-07-15T10:53:47Z</time>
      </trkpt>
      <trkpt lat="45.62922" lon="6.56029">
        <ele>1847</ele>
        <time>2014-07-15T10:54:58Z</time>
      </trkpt>
      <trkpt lat="45.62921" lon="6.56027">
        <ele>1847</ele>
        <time>2014-07-15T10:55:03Z</time>
      </trkpt>
      <trkpt lat="45.62921" lon="6.56024">
        <ele>1847</ele>
        <time>2014-07-15T10:55:05Z</time>
      </trkpt>
      <trkpt lat="45.62914" lon="6.56007">
        <ele>1849</ele>
        <time>2014-07-15T10:55:18Z</time>
      </trkpt>
      <trkpt lat="45.62913" lon="6.56005">
        <ele>1849</ele>
        <time>2014-07-15T10:55:20Z</time>
      </trkpt>
      <trkpt lat="45.62912" lon="6.56003">
        <ele>1849</ele>
        <time>2014-07-15T10:55:23Z</time>
      </trkpt>
      <trkpt lat="45.62912" lon="6.55999">
        <ele>1849</ele>
        <time>2014-07-15T10:55:25Z</time>
      </trkpt>
      <trkpt lat="45.6291" lon="6.55992">
        <ele>1850</ele>
        <time>2014-07-15T10:55:30Z</time>
      </trkpt>
      <trkpt lat="45.62909" lon="6.55989">
        <ele>1850</ele>
        <time>2014-07-15T10:55:33Z</time>
      </trkpt>
      <trkpt lat="45.62906" lon="6.55988">
        <ele>1851</ele>
        <time>2014-07-15T10:55:36Z</time>
      </trkpt>
      <trkpt lat="45.62905" lon="6.55986">
        <ele>1851</ele>
        <time>2014-07-15T10:55:39Z</time>
      </trkpt>
      <trkpt lat="45.62901" lon="6.55981">
        <ele>1852</ele>
        <time>2014-07-15T10:55:48Z</time>
      </trkpt>
      <trkpt lat="45.62898" lon="6.55985">
        <ele>1852</ele>
        <time>2014-07-15T10:55:51Z</time>
      </trkpt>
      <trkpt lat="45.62896" lon="6.55984">
        <ele>1852</ele>
        <time>2014-07-15T10:55:55Z</time>
      </trkpt>
      <trkpt lat="45.62894" lon="6.55983">
        <ele>1852</ele>
        <time>2014-07-15T10:55:58Z</time>
      </trkpt>
      <trkpt lat="45.62892" lon="6.55981">
        <ele>1853</ele>
        <time>2014-07-15T10:56:02Z</time>
      </trkpt>
      <trkpt lat="45.6289" lon="6.55981">
        <ele>1853</ele>
        <time>2014-07-15T10:56:06Z</time>
      </trkpt>
      <trkpt lat="45.62886" lon="6.55981">
        <ele>1854</ele>
        <time>2014-07-15T10:56:11Z</time>
      </trkpt>
      <trkpt lat="45.62886" lon="6.55978">
        <ele>1854</ele>
        <time>2014-07-15T10:56:13Z</time>
      </trkpt>
      <trkpt lat="45.62886" lon="6.55972">
        <ele>1856</ele>
        <time>2014-07-15T10:56:23Z</time>
      </trkpt>
      <trkpt lat="45.62884" lon="6.55971">
        <ele>1856</ele>
        <time>2014-07-15T10:56:26Z</time>
      </trkpt>
      <trkpt lat="45.62876" lon="6.55958">
        <ele>1859</ele>
        <time>2014-07-15T10:56:41Z</time>
      </trkpt>
      <trkpt lat="45.62875" lon="6.55955">
        <ele>1860</ele>
        <time>2014-07-15T10:56:47Z</time>
      </trkpt>
      <trkpt lat="45.62876" lon="6.55951">
        <ele>1860</ele>
        <time>2014-07-15T10:56:49Z</time>
      </trkpt>
      <trkpt lat="45.62875" lon="6.55948">
        <ele>1860</ele>
        <time>2014-07-15T10:56:52Z</time>
      </trkpt>
      <trkpt lat="45.62873" lon="6.55946">
        <ele>1861</ele>
        <time>2014-07-15T10:56:57Z</time>
      </trkpt>
      <trkpt lat="45.62871" lon="6.55944">
        <ele>1863</ele>
        <time>2014-07-15T10:57:03Z</time>
      </trkpt>
      <trkpt lat="45.62867" lon="6.55946">
        <ele>1863</ele>
        <time>2014-07-15T10:57:09Z</time>
      </trkpt>
      <trkpt lat="45.62864" lon="6.55947">
        <ele>1864</ele>
        <time>2014-07-15T10:57:13Z</time>
      </trkpt>
      <trkpt lat="45.62862" lon="6.55947">
        <ele>1864</ele>
        <time>2014-07-15T10:57:17Z</time>
      </trkpt>
      <trkpt lat="45.62861" lon="6.55943">
        <ele>1864</ele>
        <time>2014-07-15T10:57:20Z</time>
      </trkpt>
      <trkpt lat="45.62859" lon="6.55943">
        <ele>1865</ele>
        <time>2014-07-15T10:57:22Z</time>
      </trkpt>
      <trkpt lat="45.62854" lon="6.55943">
        <ele>1865</ele>
        <time>2014-07-15T10:57:27Z</time>
      </trkpt>
      <trkpt lat="45.62852" lon="6.55942">
        <ele>1866</ele>
        <time>2014-07-15T10:57:29Z</time>
      </trkpt>
      <trkpt lat="45.62847" lon="6.55942">
        <ele>1866</ele>
        <time>2014-07-15T10:57:34Z</time>
      </trkpt>
      <trkpt lat="45.62848" lon="6.55938">
        <ele>1866</ele>
        <time>2014-07-15T10:57:37Z</time>
      </trkpt>
      <trkpt lat="45.62844" lon="6.55937">
        <ele>1868</ele>
        <time>2014-07-15T10:57:44Z</time>
      </trkpt>
      <trkpt lat="45.62842" lon="6.55943">
        <ele>1869</ele>
        <time>2014-07-15T10:57:45Z</time>
      </trkpt>
      <trkpt lat="45.6284" lon="6.55942">
        <ele>1871</ele>
        <time>2014-07-15T10:57:54Z</time>
      </trkpt>
      <trkpt lat="45.62837" lon="6.55941">
        <ele>1871</ele>
        <time>2014-07-15T10:57:59Z</time>
      </trkpt>
      <trkpt lat="45.62835" lon="6.55942">
        <ele>1871</ele>
        <time>2014-07-15T10:58:01Z</time>
      </trkpt>
      <trkpt lat="45.62833" lon="6.55941">
        <ele>1872</ele>
        <time>2014-07-15T10:58:04Z</time>
      </trkpt>
      <trkpt lat="45.6283" lon="6.55942">
        <ele>1873</ele>
        <time>2014-07-15T10:58:10Z</time>
      </trkpt>
      <trkpt lat="45.62828" lon="6.5594">
        <ele>1873</ele>
        <time>2014-07-15T10:58:12Z</time>
      </trkpt>
      <trkpt lat="45.62827" lon="6.55938">
        <ele>1873</ele>
        <time>2014-07-15T10:58:16Z</time>
      </trkpt>
      <trkpt lat="45.62825" lon="6.55937">
        <ele>1874</ele>
        <time>2014-07-15T10:58:19Z</time>
      </trkpt>
      <trkpt lat="45.62822" lon="6.55937">
        <ele>1874</ele>
        <time>2014-07-15T10:58:25Z</time>
      </trkpt>
      <trkpt lat="45.62821" lon="6.55934">
        <ele>1875</ele>
        <time>2014-07-15T10:58:29Z</time>
      </trkpt>
      <trkpt lat="45.6282" lon="6.55931">
        <ele>1875</ele>
        <time>2014-07-15T10:58:33Z</time>
      </trkpt>
      <trkpt lat="45.62817" lon="6.5593">
        <ele>1876</ele>
        <time>2014-07-15T10:58:36Z</time>
      </trkpt>
      <trkpt lat="45.62811" lon="6.55932">
        <ele>1878</ele>
        <time>2014-07-15T10:58:46Z</time>
      </trkpt>
      <trkpt lat="45.62812" lon="6.55929">
        <ele>1878</ele>
        <time>2014-07-15T10:58:48Z</time>
      </trkpt>
      <trkpt lat="45.62812" lon="6.55925">
        <ele>1879</ele>
        <time>2014-07-15T10:58:50Z</time>
      </trkpt>
      <trkpt lat="45.6281" lon="6.55925">
        <ele>1880</ele>
        <time>2014-07-15T10:59:00Z</time>
      </trkpt>
      <trkpt lat="45.62808" lon="6.55925">
        <ele>1881</ele>
        <time>2014-07-15T10:59:03Z</time>
      </trkpt>
      <trkpt lat="45.62806" lon="6.55928">
        <ele>1881</ele>
        <time>2014-07-15T10:59:05Z</time>
      </trkpt>
      <trkpt lat="45.62802" lon="6.55927">
        <ele>1882</ele>
        <time>2014-07-15T10:59:11Z</time>
      </trkpt>
      <trkpt lat="45.62797" lon="6.55923">
        <ele>1884</ele>
        <time>2014-07-15T10:59:28Z</time>
      </trkpt>
      <trkpt lat="45.62794" lon="6.55921">
        <ele>1886</ele>
        <time>2014-07-15T10:59:46Z</time>
      </trkpt>
      <trkpt lat="45.62791" lon="6.55919">
        <ele>1887</ele>
        <time>2014-07-15T10:59:58Z</time>
      </trkpt>
      <trkpt lat="45.62791" lon="6.55916">
        <ele>1887</ele>
        <time>2014-07-15T11:00:00Z</time>
      </trkpt>
      <trkpt lat="45.62787" lon="6.55912">
        <ele>1887</ele>
        <time>2014-07-15T11:00:08Z</time>
      </trkpt>
      <trkpt lat="45.62787" lon="6.55908">
        <ele>1890</ele>
        <time>2014-07-15T11:00:14Z</time>
      </trkpt>
      <trkpt lat="45.6279" lon="6.55904">
        <ele>1893</ele>
        <time>2014-07-15T11:00:22Z</time>
      </trkpt>
      <trkpt lat="45.62789" lon="6.55902">
        <ele>1894</ele>
        <time>2014-07-15T11:00:26Z</time>
      </trkpt>
      <trkpt lat="45.62787" lon="6.55901">
        <ele>1894</ele>
        <time>2014-07-15T11:00:28Z</time>
      </trkpt>
      <trkpt lat="45.62787" lon="6.55898">
        <ele>1894</ele>
        <time>2014-07-15T11:00:30Z</time>
      </trkpt>
      <trkpt lat="45.62788" lon="6.55895">
        <ele>1894</ele>
        <time>2014-07-15T11:00:32Z</time>
      </trkpt>
      <trkpt lat="45.62788" lon="6.55892">
        <ele>1895</ele>
        <time>2014-07-15T11:00:35Z</time>
      </trkpt>
      <trkpt lat="45.62785" lon="6.55885">
        <ele>1896</ele>
        <time>2014-07-15T11:00:42Z</time>
      </trkpt>
      <trkpt lat="45.62783" lon="6.55884">
        <ele>1897</ele>
        <time>2014-07-15T11:00:48Z</time>
      </trkpt>
      <trkpt lat="45.62784" lon="6.55879">
        <ele>1898</ele>
        <time>2014-07-15T11:00:52Z</time>
      </trkpt>
      <trkpt lat="45.62781" lon="6.55872">
        <ele>1900</ele>
        <time>2014-07-15T11:00:57Z</time>
      </trkpt>
      <trkpt lat="45.6278" lon="6.5587">
        <ele>1901</ele>
        <time>2014-07-15T11:01:04Z</time>
      </trkpt>
      <trkpt lat="45.62782" lon="6.55866">
        <ele>1902</ele>
        <time>2014-07-15T11:01:06Z</time>
      </trkpt>
      <trkpt lat="45.62789" lon="6.5586">
        <ele>1905</ele>
        <time>2014-07-15T11:01:26Z</time>
      </trkpt>
      <trkpt lat="45.62786" lon="6.5586">
        <ele>1905</ele>
        <time>2014-07-15T11:01:32Z</time>
      </trkpt>
      <trkpt lat="45.62786" lon="6.55864">
        <ele>1905</ele>
        <time>2014-07-15T11:01:53Z</time>
      </trkpt>
      <trkpt lat="45.62791" lon="6.55859">
        <ele>1906</ele>
        <time>2014-07-15T11:02:04Z</time>
      </trkpt>
      <trkpt lat="45.62779" lon="6.55854">
        <ele>1908</ele>
        <time>2014-07-15T11:02:15Z</time>
      </trkpt>
      <trkpt lat="45.62774" lon="6.55852">
        <ele>1909</ele>
        <time>2014-07-15T11:02:20Z</time>
      </trkpt>
      <trkpt lat="45.6277" lon="6.55847">
        <ele>1909</ele>
        <time>2014-07-15T11:02:25Z</time>
      </trkpt>
      <trkpt lat="45.62765" lon="6.55845">
        <ele>1910</ele>
        <time>2014-07-15T11:02:29Z</time>
      </trkpt>
      <trkpt lat="45.62763" lon="6.55843">
        <ele>1910</ele>
        <time>2014-07-15T11:02:31Z</time>
      </trkpt>
      <trkpt lat="45.62762" lon="6.55842">
        <ele>1910</ele>
        <time>2014-07-15T11:02:33Z</time>
      </trkpt>
      <trkpt lat="45.6276" lon="6.55842">
        <ele>1910</ele>
        <time>2014-07-15T11:02:35Z</time>
      </trkpt>
      <trkpt lat="45.62754" lon="6.55838">
        <ele>1911</ele>
        <time>2014-07-15T11:02:41Z</time>
      </trkpt>
      <trkpt lat="45.62752" lon="6.55836">
        <ele>1911</ele>
        <time>2014-07-15T11:02:43Z</time>
      </trkpt>
      <trkpt lat="45.6275" lon="6.5583">
        <ele>1912</ele>
        <time>2014-07-15T11:02:47Z</time>
      </trkpt>
      <trkpt lat="45.62747" lon="6.55829">
        <ele>1912</ele>
        <time>2014-07-15T11:02:49Z</time>
      </trkpt>
      <trkpt lat="45.62746" lon="6.55826">
        <ele>1912</ele>
        <time>2014-07-15T11:02:51Z</time>
      </trkpt>
      <trkpt lat="45.6274" lon="6.55821">
        <ele>1914</ele>
        <time>2014-07-15T11:02:58Z</time>
      </trkpt>
      <trkpt lat="45.62739" lon="6.55818">
        <ele>1915</ele>
        <time>2014-07-15T11:03:01Z</time>
      </trkpt>
      <trkpt lat="45.62737" lon="6.55815">
        <ele>1915</ele>
        <time>2014-07-15T11:03:03Z</time>
      </trkpt>
      <trkpt lat="45.62736" lon="6.5581">
        <ele>1917</ele>
        <time>2014-07-15T11:03:09Z</time>
      </trkpt>
      <trkpt lat="45.62735" lon="6.55808">
        <ele>1919</ele>
        <time>2014-07-15T11:03:16Z</time>
      </trkpt>
      <trkpt lat="45.62734" lon="6.55806">
        <ele>1919</ele>
        <time>2014-07-15T11:03:18Z</time>
      </trkpt>
      <trkpt lat="45.6273" lon="6.55798">
        <ele>1922</ele>
        <time>2014-07-15T11:03:26Z</time>
      </trkpt>
      <trkpt lat="45.62728" lon="6.55799">
        <ele>1923</ele>
        <time>2014-07-15T11:03:29Z</time>
      </trkpt>
      <trkpt lat="45.62726" lon="6.55795">
        <ele>1925</ele>
        <time>2014-07-15T11:03:34Z</time>
      </trkpt>
      <trkpt lat="45.62726" lon="6.55797">
        <ele>1932</ele>
        <time>2014-07-15T11:03:39Z</time>
      </trkpt>
      <trkpt lat="45.62726" lon="6.558">
        <ele>1935</ele>
        <time>2014-07-15T11:03:40Z</time>
      </trkpt>
      <trkpt lat="45.62725" lon="6.55802">
        <ele>1938</ele>
        <time>2014-07-15T11:03:42Z</time>
      </trkpt>
      <trkpt lat="45.62722" lon="6.558">
        <ele>1941</ele>
        <time>2014-07-15T11:03:48Z</time>
      </trkpt>
      <trkpt lat="45.6272" lon="6.55799">
        <ele>1941</ele>
        <time>2014-07-15T11:03:50Z</time>
      </trkpt>
      <trkpt lat="45.62717" lon="6.55796">
        <ele>1942</ele>
        <time>2014-07-15T11:03:54Z</time>
      </trkpt>
      <trkpt lat="45.62716" lon="6.55794">
        <ele>1943</ele>
        <time>2014-07-15T11:03:56Z</time>
      </trkpt>
      <trkpt lat="45.62712" lon="6.55801">
        <ele>1949</ele>
        <time>2014-07-15T11:04:02Z</time>
      </trkpt>
      <trkpt lat="45.6271" lon="6.55802">
        <ele>1950</ele>
        <time>2014-07-15T11:04:04Z</time>
      </trkpt>
      <trkpt lat="45.62704" lon="6.558">
        <ele>1954</ele>
        <time>2014-07-15T11:04:14Z</time>
      </trkpt>
      <trkpt lat="45.62703" lon="6.55797">
        <ele>1958</ele>
        <time>2014-07-15T11:04:22Z</time>
      </trkpt>
      <trkpt lat="45.62704" lon="6.55792">
        <ele>1960</ele>
        <time>2014-07-15T11:04:27Z</time>
      </trkpt>
      <trkpt lat="45.62702" lon="6.55789">
        <ele>1962</ele>
        <time>2014-07-15T11:04:31Z</time>
      </trkpt>
      <trkpt lat="45.62702" lon="6.55785">
        <ele>1964</ele>
        <time>2014-07-15T11:04:37Z</time>
      </trkpt>
      <trkpt lat="45.62702" lon="6.55782">
        <ele>1965</ele>
        <time>2014-07-15T11:04:40Z</time>
      </trkpt>
      <trkpt lat="45.62697" lon="6.5578">
        <ele>1969</ele>
        <time>2014-07-15T11:04:55Z</time>
      </trkpt>
      <trkpt lat="45.62688" lon="6.55783">
        <ele>1970</ele>
        <time>2014-07-15T11:06:14Z</time>
      </trkpt>
      <trkpt lat="45.62693" lon="6.55777">
        <ele>1971</ele>
        <time>2014-07-15T11:06:40Z</time>
      </trkpt>
      <trkpt lat="45.62692" lon="6.55775">
        <ele>1971</ele>
        <time>2014-07-15T11:06:42Z</time>
      </trkpt>
      <trkpt lat="45.62691" lon="6.55774">
        <ele>1971</ele>
        <time>2014-07-15T11:06:45Z</time>
      </trkpt>
      <trkpt lat="45.6269" lon="6.55772">
        <ele>1971</ele>
        <time>2014-07-15T11:06:47Z</time>
      </trkpt>
      <trkpt lat="45.62688" lon="6.55768">
        <ele>1971</ele>
        <time>2014-07-15T11:06:52Z</time>
      </trkpt>
      <trkpt lat="45.62687" lon="6.55768">
        <ele>1971</ele>
        <time>2014-07-15T11:06:54Z</time>
      </trkpt>
      <trkpt lat="45.62686" lon="6.55766">
        <ele>1971</ele>
        <time>2014-07-15T11:06:56Z</time>
      </trkpt>
      <trkpt lat="45.62686" lon="6.55764">
        <ele>1972</ele>
        <time>2014-07-15T11:06:58Z</time>
      </trkpt>
      <trkpt lat="45.62684" lon="6.55752">
        <ele>1973</ele>
        <time>2014-07-15T11:07:10Z</time>
      </trkpt>
      <trkpt lat="45.62685" lon="6.55747">
        <ele>1974</ele>
        <time>2014-07-15T11:07:35Z</time>
      </trkpt>
      <trkpt lat="45.62683" lon="6.55747">
        <ele>1975</ele>
        <time>2014-07-15T11:07:39Z</time>
      </trkpt>
      <trkpt lat="45.62682" lon="6.55739">
        <ele>1976</ele>
        <time>2014-07-15T11:07:54Z</time>
      </trkpt>
      <trkpt lat="45.62683" lon="6.55737">
        <ele>1976</ele>
        <time>2014-07-15T11:07:56Z</time>
      </trkpt>
      <trkpt lat="45.62683" lon="6.55731">
        <ele>1977</ele>
        <time>2014-07-15T11:08:01Z</time>
      </trkpt>
      <trkpt lat="45.62682" lon="6.55729">
        <ele>1977</ele>
        <time>2014-07-15T11:08:04Z</time>
      </trkpt>
      <trkpt lat="45.62677" lon="6.55706">
        <ele>1979</ele>
        <time>2014-07-15T11:08:23Z</time>
      </trkpt>
      <trkpt lat="45.62676" lon="6.55705">
        <ele>1979</ele>
        <time>2014-07-15T11:08:25Z</time>
      </trkpt>
      <trkpt lat="45.62673" lon="6.55704">
        <ele>1979</ele>
        <time>2014-07-15T11:08:28Z</time>
      </trkpt>
      <trkpt lat="45.6267" lon="6.55702">
        <ele>1979</ele>
        <time>2014-07-15T11:08:34Z</time>
      </trkpt>
      <trkpt lat="45.62669" lon="6.55699">
        <ele>1979</ele>
        <time>2014-07-15T11:08:37Z</time>
      </trkpt>
      <trkpt lat="45.62669" lon="6.55691">
        <ele>1980</ele>
        <time>2014-07-15T11:08:44Z</time>
      </trkpt>
      <trkpt lat="45.62668" lon="6.55689">
        <ele>1980</ele>
        <time>2014-07-15T11:08:48Z</time>
      </trkpt>
      <trkpt lat="45.62664" lon="6.55688">
        <ele>1980</ele>
        <time>2014-07-15T11:08:53Z</time>
      </trkpt>
      <trkpt lat="45.62662" lon="6.55687">
        <ele>1980</ele>
        <time>2014-07-15T11:08:55Z</time>
      </trkpt>
      <trkpt lat="45.62661" lon="6.55685">
        <ele>1980</ele>
        <time>2014-07-15T11:08:58Z</time>
      </trkpt>
      <trkpt lat="45.62662" lon="6.55683">
        <ele>1980</ele>
        <time>2014-07-15T11:08:59Z</time>
      </trkpt>
      <trkpt lat="45.62661" lon="6.55673">
        <ele>1981</ele>
        <time>2014-07-15T11:09:06Z</time>
      </trkpt>
      <trkpt lat="45.62659" lon="6.55673">
        <ele>1981</ele>
        <time>2014-07-15T11:09:11Z</time>
      </trkpt>
      <trkpt lat="45.62653" lon="6.55673">
        <ele>1983</ele>
        <time>2014-07-15T11:09:24Z</time>
      </trkpt>
      <trkpt lat="45.62649" lon="6.55667">
        <ele>1984</ele>
        <time>2014-07-15T11:09:33Z</time>
      </trkpt>
      <trkpt lat="45.62647" lon="6.55664">
        <ele>1984</ele>
        <time>2014-07-15T11:09:41Z</time>
      </trkpt>
      <trkpt lat="45.62638" lon="6.55671">
        <ele>1985</ele>
        <time>2014-07-15T11:09:56Z</time>
      </trkpt>
      <trkpt lat="45.62638" lon="6.5566">
        <ele>1985</ele>
        <time>2014-07-15T11:10:03Z</time>
      </trkpt>
      <trkpt lat="45.62639" lon="6.55656">
        <ele>1985</ele>
        <time>2014-07-15T11:10:05Z</time>
      </trkpt>
      <trkpt lat="45.62637" lon="6.5565">
        <ele>1985</ele>
        <time>2014-07-15T11:10:10Z</time>
      </trkpt>
      <trkpt lat="45.62637" lon="6.55642">
        <ele>1985</ele>
        <time>2014-07-15T11:10:15Z</time>
      </trkpt>
      <trkpt lat="45.62636" lon="6.55639">
        <ele>1985</ele>
        <time>2014-07-15T11:10:17Z</time>
      </trkpt>
      <trkpt lat="45.62637" lon="6.55634">
        <ele>1985</ele>
        <time>2014-07-15T11:10:24Z</time>
      </trkpt>
      <trkpt lat="45.6264" lon="6.55634">
        <ele>1985</ele>
        <time>2014-07-15T11:10:31Z</time>
      </trkpt>
      <trkpt lat="45.62643" lon="6.55627">
        <ele>1985</ele>
        <time>2014-07-15T11:10:34Z</time>
      </trkpt>
      <trkpt lat="45.62634" lon="6.55641">
        <ele>1985</ele>
        <time>2014-07-15T11:11:04Z</time>
      </trkpt>
      <trkpt lat="45.62632" lon="6.55648">
        <ele>1985</ele>
        <time>2014-07-15T11:11:06Z</time>
      </trkpt>
      <trkpt lat="45.62624" lon="6.55667">
        <ele>1985</ele>
        <time>2014-07-15T11:11:15Z</time>
      </trkpt>
      <trkpt lat="45.62626" lon="6.55664">
        <ele>1985</ele>
        <time>2014-07-15T11:11:20Z</time>
      </trkpt>
      <trkpt lat="45.62628" lon="6.55649">
        <ele>1985</ele>
        <time>2014-07-15T11:11:29Z</time>
      </trkpt>
      <trkpt lat="45.62638" lon="6.5563">
        <ele>1985</ele>
        <time>2014-07-15T11:11:41Z</time>
      </trkpt>
      <trkpt lat="45.62642" lon="6.55621">
        <ele>1985</ele>
        <time>2014-07-15T11:11:50Z</time>
      </trkpt>
      <trkpt lat="45.62639" lon="6.55621">
        <ele>1985</ele>
        <time>2014-07-15T11:11:54Z</time>
      </trkpt>
      <trkpt lat="45.62629" lon="6.55619">
        <ele>1985</ele>
        <time>2014-07-15T11:12:04Z</time>
      </trkpt>
      <trkpt lat="45.62626" lon="6.55621">
        <ele>1985</ele>
        <time>2014-07-15T11:12:06Z</time>
      </trkpt>
      <trkpt lat="45.62622" lon="6.55622">
        <ele>1985</ele>
        <time>2014-07-15T11:12:10Z</time>
      </trkpt>
      <trkpt lat="45.6262" lon="6.55621">
        <ele>1985</ele>
        <time>2014-07-15T11:12:13Z</time>
      </trkpt>
      <trkpt lat="45.62607" lon="6.5561">
        <ele>1986</ele>
        <time>2014-07-15T11:12:34Z</time>
      </trkpt>
      <trkpt lat="45.62607" lon="6.55608">
        <ele>1985</ele>
        <time>2014-07-15T11:12:36Z</time>
      </trkpt>
      <trkpt lat="45.62604" lon="6.55603">
        <ele>1986</ele>
        <time>2014-07-15T11:12:44Z</time>
      </trkpt>
      <trkpt lat="45.62602" lon="6.55597">
        <ele>1986</ele>
        <time>2014-07-15T11:12:51Z</time>
      </trkpt>
      <trkpt lat="45.62601" lon="6.55595">
        <ele>1986</ele>
        <time>2014-07-15T11:12:53Z</time>
      </trkpt>
      <trkpt lat="45.62599" lon="6.55591">
        <ele>1986</ele>
        <time>2014-07-15T11:12:59Z</time>
      </trkpt>
      <trkpt lat="45.62597" lon="6.5559">
        <ele>1986</ele>
        <time>2014-07-15T11:13:01Z</time>
      </trkpt>
      <trkpt lat="45.62595" lon="6.55585">
        <ele>1986</ele>
        <time>2014-07-15T11:13:05Z</time>
      </trkpt>
      <trkpt lat="45.62593" lon="6.55582">
        <ele>1986</ele>
        <time>2014-07-15T11:13:09Z</time>
      </trkpt>
      <trkpt lat="45.62592" lon="6.55581">
        <ele>1986</ele>
        <time>2014-07-15T11:13:10Z</time>
      </trkpt>
      <trkpt lat="45.62587" lon="6.5558">
        <ele>1986</ele>
        <time>2014-07-15T11:13:14Z</time>
      </trkpt>
      <trkpt lat="45.62584" lon="6.55578">
        <ele>1986</ele>
        <time>2014-07-15T11:13:18Z</time>
      </trkpt>
      <trkpt lat="45.6258" lon="6.55572">
        <ele>1987</ele>
        <time>2014-07-15T11:13:26Z</time>
      </trkpt>
      <trkpt lat="45.62579" lon="6.55572">
        <ele>1987</ele>
        <time>2014-07-15T11:13:29Z</time>
      </trkpt>
      <trkpt lat="45.62577" lon="6.5557">
        <ele>1987</ele>
        <time>2014-07-15T11:13:31Z</time>
      </trkpt>
      <trkpt lat="45.62575" lon="6.55569">
        <ele>1987</ele>
        <time>2014-07-15T11:13:34Z</time>
      </trkpt>
      <trkpt lat="45.62572" lon="6.55569">
        <ele>1987</ele>
        <time>2014-07-15T11:13:38Z</time>
      </trkpt>
      <trkpt lat="45.6257" lon="6.55567">
        <ele>1987</ele>
        <time>2014-07-15T11:13:40Z</time>
      </trkpt>
      <trkpt lat="45.62558" lon="6.55545">
        <ele>1989</ele>
        <time>2014-07-15T11:14:08Z</time>
      </trkpt>
      <trkpt lat="45.62554" lon="6.55544">
        <ele>1989</ele>
        <time>2014-07-15T11:14:12Z</time>
      </trkpt>
      <trkpt lat="45.62547" lon="6.55538">
        <ele>1990</ele>
        <time>2014-07-15T11:14:24Z</time>
      </trkpt>
      <trkpt lat="45.62546" lon="6.55536">
        <ele>1990</ele>
        <time>2014-07-15T11:14:26Z</time>
      </trkpt>
      <trkpt lat="45.62545" lon="6.55534">
        <ele>1991</ele>
        <time>2014-07-15T11:14:29Z</time>
      </trkpt>
      <trkpt lat="45.62539" lon="6.55529">
        <ele>1991</ele>
        <time>2014-07-15T11:14:38Z</time>
      </trkpt>
      <trkpt lat="45.62529" lon="6.55511">
        <ele>1995</ele>
        <time>2014-07-15T11:15:08Z</time>
      </trkpt>
      <trkpt lat="45.62528" lon="6.55512">
        <ele>1995</ele>
        <time>2014-07-15T11:15:10Z</time>
      </trkpt>
      <trkpt lat="45.62526" lon="6.55511">
        <ele>1995</ele>
        <time>2014-07-15T11:15:13Z</time>
      </trkpt>
      <trkpt lat="45.62525" lon="6.55507">
        <ele>1996</ele>
        <time>2014-07-15T11:15:18Z</time>
      </trkpt>
      <trkpt lat="45.62523" lon="6.55505">
        <ele>1996</ele>
        <time>2014-07-15T11:15:21Z</time>
      </trkpt>
      <trkpt lat="45.6252" lon="6.55501">
        <ele>1998</ele>
        <time>2014-07-15T11:15:38Z</time>
      </trkpt>
      <trkpt lat="45.6252" lon="6.55496">
        <ele>2000</ele>
        <time>2014-07-15T11:15:51Z</time>
      </trkpt>
      <trkpt lat="45.62519" lon="6.55494">
        <ele>2000</ele>
        <time>2014-07-15T11:15:53Z</time>
      </trkpt>
      <trkpt lat="45.62509" lon="6.55481">
        <ele>2001</ele>
        <time>2014-07-15T11:16:08Z</time>
      </trkpt>
      <trkpt lat="45.62509" lon="6.55478">
        <ele>2002</ele>
        <time>2014-07-15T11:16:13Z</time>
      </trkpt>
      <trkpt lat="45.62508" lon="6.55476">
        <ele>2003</ele>
        <time>2014-07-15T11:16:16Z</time>
      </trkpt>
      <trkpt lat="45.62507" lon="6.55474">
        <ele>2003</ele>
        <time>2014-07-15T11:16:19Z</time>
      </trkpt>
      <trkpt lat="45.62507" lon="6.55472">
        <ele>2004</ele>
        <time>2014-07-15T11:16:21Z</time>
      </trkpt>
      <trkpt lat="45.62499" lon="6.55462">
        <ele>2006</ele>
        <time>2014-07-15T11:16:34Z</time>
      </trkpt>
      <trkpt lat="45.62497" lon="6.55461">
        <ele>2007</ele>
        <time>2014-07-15T11:16:40Z</time>
      </trkpt>
      <trkpt lat="45.62494" lon="6.55468">
        <ele>2011</ele>
        <time>2014-07-15T11:16:43Z</time>
      </trkpt>
      <trkpt lat="45.62493" lon="6.55467">
        <ele>2012</ele>
        <time>2014-07-15T11:16:45Z</time>
      </trkpt>
      <trkpt lat="45.62492" lon="6.55465">
        <ele>2012</ele>
        <time>2014-07-15T11:16:48Z</time>
      </trkpt>
      <trkpt lat="45.62491" lon="6.55463">
        <ele>2012</ele>
        <time>2014-07-15T11:16:51Z</time>
      </trkpt>
      <trkpt lat="45.6249" lon="6.55461">
        <ele>2013</ele>
        <time>2014-07-15T11:16:54Z</time>
      </trkpt>
      <trkpt lat="45.62489" lon="6.55457">
        <ele>2014</ele>
        <time>2014-07-15T11:16:58Z</time>
      </trkpt>
      <trkpt lat="45.62488" lon="6.55456">
        <ele>2014</ele>
        <time>2014-07-15T11:17:01Z</time>
      </trkpt>
      <trkpt lat="45.62487" lon="6.55454">
        <ele>2015</ele>
        <time>2014-07-15T11:17:03Z</time>
      </trkpt>
      <trkpt lat="45.62484" lon="6.55452">
        <ele>2016</ele>
        <time>2014-07-15T11:17:09Z</time>
      </trkpt>
      <trkpt lat="45.62481" lon="6.55447">
        <ele>2019</ele>
        <time>2014-07-15T11:17:20Z</time>
      </trkpt>
      <trkpt lat="45.6248" lon="6.55447">
        <ele>2020</ele>
        <time>2014-07-15T11:17:24Z</time>
      </trkpt>
      <trkpt lat="45.62478" lon="6.55447">
        <ele>2020</ele>
        <time>2014-07-15T11:17:29Z</time>
      </trkpt>
      <trkpt lat="45.62477" lon="6.55446">
        <ele>2021</ele>
        <time>2014-07-15T11:17:36Z</time>
      </trkpt>
      <trkpt lat="45.62468" lon="6.55429">
        <ele>2025</ele>
        <time>2014-07-15T11:18:03Z</time>
      </trkpt>
      <trkpt lat="45.62466" lon="6.55429">
        <ele>2026</ele>
        <time>2014-07-15T11:18:06Z</time>
      </trkpt>
      <trkpt lat="45.62465" lon="6.55428">
        <ele>2027</ele>
        <time>2014-07-15T11:18:08Z</time>
      </trkpt>
      <trkpt lat="45.62461" lon="6.55433">
        <ele>2029</ele>
        <time>2014-07-15T11:18:11Z</time>
      </trkpt>
      <trkpt lat="45.6246" lon="6.55433">
        <ele>2030</ele>
        <time>2014-07-15T11:18:14Z</time>
      </trkpt>
      <trkpt lat="45.62458" lon="6.55433">
        <ele>2032</ele>
        <time>2014-07-15T11:18:17Z</time>
      </trkpt>
      <trkpt lat="45.62455" lon="6.55436">
        <ele>2034</ele>
        <time>2014-07-15T11:18:19Z</time>
      </trkpt>
      <trkpt lat="45.62454" lon="6.55436">
        <ele>2034</ele>
        <time>2014-07-15T11:18:21Z</time>
      </trkpt>
      <trkpt lat="45.62452" lon="6.55435">
        <ele>2034</ele>
        <time>2014-07-15T11:18:23Z</time>
      </trkpt>
      <trkpt lat="45.6245" lon="6.55436">
        <ele>2036</ele>
        <time>2014-07-15T11:18:25Z</time>
      </trkpt>
      <trkpt lat="45.62449" lon="6.55435">
        <ele>2036</ele>
        <time>2014-07-15T11:18:28Z</time>
      </trkpt>
      <trkpt lat="45.62448" lon="6.55437">
        <ele>2037</ele>
        <time>2014-07-15T11:18:29Z</time>
      </trkpt>
      <trkpt lat="45.62447" lon="6.55438">
        <ele>2038</ele>
        <time>2014-07-15T11:18:31Z</time>
      </trkpt>
      <trkpt lat="45.62443" lon="6.55444">
        <ele>2042</ele>
        <time>2014-07-15T11:18:35Z</time>
      </trkpt>
      <trkpt lat="45.62442" lon="6.55444">
        <ele>2044</ele>
        <time>2014-07-15T11:18:37Z</time>
      </trkpt>
      <trkpt lat="45.62441" lon="6.55444">
        <ele>2045</ele>
        <time>2014-07-15T11:18:39Z</time>
      </trkpt>
      <trkpt lat="45.62439" lon="6.55445">
        <ele>2046</ele>
        <time>2014-07-15T11:18:41Z</time>
      </trkpt>
      <trkpt lat="45.62436" lon="6.55444">
        <ele>2048</ele>
        <time>2014-07-15T11:18:44Z</time>
      </trkpt>
      <trkpt lat="45.62432" lon="6.55445">
        <ele>2051</ele>
        <time>2014-07-15T11:18:49Z</time>
      </trkpt>
      <trkpt lat="45.6243" lon="6.55442">
        <ele>2052</ele>
        <time>2014-07-15T11:18:52Z</time>
      </trkpt>
      <trkpt lat="45.62429" lon="6.55444">
        <ele>2052</ele>
        <time>2014-07-15T11:18:55Z</time>
      </trkpt>
      <trkpt lat="45.62428" lon="6.55437">
        <ele>2057</ele>
        <time>2014-07-15T11:19:27Z</time>
      </trkpt>
      <trkpt lat="45.62419" lon="6.55449">
        <ele>2058</ele>
        <time>2014-07-15T11:19:53Z</time>
      </trkpt>
      <trkpt lat="45.62415" lon="6.55461">
        <ele>2066</ele>
        <time>2014-07-15T11:21:33Z</time>
      </trkpt>
      <trkpt lat="45.62413" lon="6.55467">
        <ele>2068</ele>
        <time>2014-07-15T11:21:36Z</time>
      </trkpt>
      <trkpt lat="45.6241" lon="6.55476">
        <ele>2071</ele>
        <time>2014-07-15T11:22:42Z</time>
      </trkpt>
      <trkpt lat="45.62411" lon="6.55471">
        <ele>2074</ele>
        <time>2014-07-15T11:23:23Z</time>
      </trkpt>
      <trkpt lat="45.62415" lon="6.55469">
        <ele>2076</ele>
        <time>2014-07-15T11:23:43Z</time>
      </trkpt>
      <trkpt lat="45.62418" lon="6.55467">
        <ele>2077</ele>
        <time>2014-07-15T11:23:47Z</time>
      </trkpt>
      <trkpt lat="45.6242" lon="6.55467">
        <ele>2077</ele>
        <time>2014-07-15T11:23:50Z</time>
      </trkpt>
      <trkpt lat="45.62431" lon="6.55451">
        <ele>2077</ele>
        <time>2014-07-15T11:24:15Z</time>
      </trkpt>
      <trkpt lat="45.62431" lon="6.55449">
        <ele>2077</ele>
        <time>2014-07-15T11:24:18Z</time>
      </trkpt>
      <trkpt lat="45.6243" lon="6.55447">
        <ele>2076</ele>
        <time>2014-07-15T11:24:23Z</time>
      </trkpt>
      <trkpt lat="45.6243" lon="6.55442">
        <ele>2076</ele>
        <time>2014-07-15T11:24:35Z</time>
      </trkpt>
      <trkpt lat="45.62431" lon="6.55439">
        <ele>2077</ele>
        <time>2014-07-15T11:28:57Z</time>
      </trkpt>
      <trkpt lat="45.62431" lon="6.55435">
        <ele>2077</ele>
        <time>2014-07-15T11:29:00Z</time>
      </trkpt>
      <trkpt lat="45.6243" lon="6.55434">
        <ele>2077</ele>
        <time>2014-07-15T11:29:02Z</time>
      </trkpt>
      <trkpt lat="45.62429" lon="6.55431">
        <ele>2078</ele>
        <time>2014-07-15T11:29:04Z</time>
      </trkpt>
      <trkpt lat="45.6243" lon="6.554">
        <ele>2078</ele>
        <time>2014-07-15T11:29:23Z</time>
      </trkpt>
      <trkpt lat="45.62429" lon="6.55398">
        <ele>2078</ele>
        <time>2014-07-15T11:29:26Z</time>
      </trkpt>
      <trkpt lat="45.62429" lon="6.55396">
        <ele>2078</ele>
        <time>2014-07-15T11:29:29Z</time>
      </trkpt>
      <trkpt lat="45.62428" lon="6.55394">
        <ele>2078</ele>
        <time>2014-07-15T11:29:30Z</time>
      </trkpt>
      <trkpt lat="45.62429" lon="6.55389">
        <ele>2078</ele>
        <time>2014-07-15T11:29:35Z</time>
      </trkpt>
      <trkpt lat="45.62428" lon="6.55386">
        <ele>2078</ele>
        <time>2014-07-15T11:29:36Z</time>
      </trkpt>
      <trkpt lat="45.62416" lon="6.55331">
        <ele>2079</ele>
        <time>2014-07-15T11:30:07Z</time>
      </trkpt>
      <trkpt lat="45.62416" lon="6.55328">
        <ele>2079</ele>
        <time>2014-07-15T11:30:09Z</time>
      </trkpt>
      <trkpt lat="45.62412" lon="6.55321">
        <ele>2080</ele>
        <time>2014-07-15T11:30:14Z</time>
      </trkpt>
      <trkpt lat="45.62407" lon="6.55295">
        <ele>2080</ele>
        <time>2014-07-15T11:30:32Z</time>
      </trkpt>
      <trkpt lat="45.62404" lon="6.55292">
        <ele>2080</ele>
        <time>2014-07-15T11:30:34Z</time>
      </trkpt>
      <trkpt lat="45.62394" lon="6.55259">
        <ele>2080</ele>
        <time>2014-07-15T11:31:06Z</time>
      </trkpt>
      <trkpt lat="45.62394" lon="6.5525">
        <ele>2081</ele>
        <time>2014-07-15T11:31:22Z</time>
      </trkpt>
      <trkpt lat="45.62393" lon="6.55248">
        <ele>2081</ele>
        <time>2014-07-15T11:31:31Z</time>
      </trkpt>
      <trkpt lat="45.62391" lon="6.55245">
        <ele>2081</ele>
        <time>2014-07-15T11:31:37Z</time>
      </trkpt>
      <trkpt lat="45.62389" lon="6.55243">
        <ele>2082</ele>
        <time>2014-07-15T11:31:41Z</time>
      </trkpt>
      <trkpt lat="45.62389" lon="6.55241">
        <ele>2082</ele>
        <time>2014-07-15T11:31:44Z</time>
      </trkpt>
      <trkpt lat="45.6239" lon="6.55239">
        <ele>2082</ele>
        <time>2014-07-15T11:31:47Z</time>
      </trkpt>
      <trkpt lat="45.62389" lon="6.55238">
        <ele>2082</ele>
        <time>2014-07-15T11:31:49Z</time>
      </trkpt>
      <trkpt lat="45.62388" lon="6.55233">
        <ele>2082</ele>
        <time>2014-07-15T11:31:53Z</time>
      </trkpt>
      <trkpt lat="45.62386" lon="6.5523">
        <ele>2082</ele>
        <time>2014-07-15T11:31:58Z</time>
      </trkpt>
      <trkpt lat="45.62384" lon="6.55227">
        <ele>2082</ele>
        <time>2014-07-15T11:32:03Z</time>
      </trkpt>
      <trkpt lat="45.62383" lon="6.55223">
        <ele>2082</ele>
        <time>2014-07-15T11:32:11Z</time>
      </trkpt>
      <trkpt lat="45.62375" lon="6.55216">
        <ele>2082</ele>
        <time>2014-07-15T11:32:34Z</time>
      </trkpt>
      <trkpt lat="45.62375" lon="6.55214">
        <ele>2083</ele>
        <time>2014-07-15T11:32:36Z</time>
      </trkpt>
      <trkpt lat="45.62356" lon="6.55176">
        <ele>2086</ele>
        <time>2014-07-15T11:33:28Z</time>
      </trkpt>
      <trkpt lat="45.62354" lon="6.55176">
        <ele>2086</ele>
        <time>2014-07-15T11:33:32Z</time>
      </trkpt>
      <trkpt lat="45.62357" lon="6.55164">
        <ele>2088</ele>
        <time>2014-07-15T11:34:18Z</time>
      </trkpt>
      <trkpt lat="45.62358" lon="6.55163">
        <ele>2088</ele>
        <time>2014-07-15T11:34:21Z</time>
      </trkpt>
      <trkpt lat="45.62359" lon="6.5515">
        <ele>2088</ele>
        <time>2014-07-15T11:34:46Z</time>
      </trkpt>
      <trkpt lat="45.62356" lon="6.55134">
        <ele>2088</ele>
        <time>2014-07-15T11:35:07Z</time>
      </trkpt>
      <trkpt lat="45.62357" lon="6.55132">
        <ele>2088</ele>
        <time>2014-07-15T11:35:09Z</time>
      </trkpt>
      <trkpt lat="45.62356" lon="6.55128">
        <ele>2088</ele>
        <time>2014-07-15T11:35:14Z</time>
      </trkpt>
      <trkpt lat="45.62356" lon="6.55124">
        <ele>2088</ele>
        <time>2014-07-15T11:35:19Z</time>
      </trkpt>
      <trkpt lat="45.62356" lon="6.55123">
        <ele>2088</ele>
        <time>2014-07-15T11:35:23Z</time>
      </trkpt>
      <trkpt lat="45.62353" lon="6.55121">
        <ele>2087</ele>
        <time>2014-07-15T11:35:30Z</time>
      </trkpt>
      <trkpt lat="45.62349" lon="6.55108">
        <ele>2087</ele>
        <time>2014-07-15T11:36:32Z</time>
      </trkpt>
      <trkpt lat="45.62339" lon="6.55105">
        <ele>2088</ele>
        <time>2014-07-15T11:36:46Z</time>
      </trkpt>
      <trkpt lat="45.62338" lon="6.55102">
        <ele>2088</ele>
        <time>2014-07-15T11:36:48Z</time>
      </trkpt>
      <trkpt lat="45.62336" lon="6.55102">
        <ele>2088</ele>
        <time>2014-07-15T11:36:50Z</time>
      </trkpt>
      <trkpt lat="45.62335" lon="6.551">
        <ele>2088</ele>
        <time>2014-07-15T11:36:53Z</time>
      </trkpt>
      <trkpt lat="45.62334" lon="6.55098">
        <ele>2088</ele>
        <time>2014-07-15T11:36:56Z</time>
      </trkpt>
      <trkpt lat="45.6233" lon="6.55093">
        <ele>2088</ele>
        <time>2014-07-15T11:37:06Z</time>
      </trkpt>
      <trkpt lat="45.62328" lon="6.55092">
        <ele>2088</ele>
        <time>2014-07-15T11:37:09Z</time>
      </trkpt>
      <trkpt lat="45.62327" lon="6.55092">
        <ele>2088</ele>
        <time>2014-07-15T11:37:12Z</time>
      </trkpt>
      <trkpt lat="45.62325" lon="6.55088">
        <ele>2088</ele>
        <time>2014-07-15T11:37:18Z</time>
      </trkpt>
      <trkpt lat="45.62322" lon="6.55086">
        <ele>2088</ele>
        <time>2014-07-15T11:37:23Z</time>
      </trkpt>
      <trkpt lat="45.6232" lon="6.55085">
        <ele>2088</ele>
        <time>2014-07-15T11:37:26Z</time>
      </trkpt>
      <trkpt lat="45.62319" lon="6.55086">
        <ele>2088</ele>
        <time>2014-07-15T11:37:34Z</time>
      </trkpt>
      <trkpt lat="45.62316" lon="6.55087">
        <ele>2088</ele>
        <time>2014-07-15T11:37:45Z</time>
      </trkpt>
      <trkpt lat="45.62314" lon="6.55085">
        <ele>2088</ele>
        <time>2014-07-15T11:37:49Z</time>
      </trkpt>
      <trkpt lat="45.62313" lon="6.55083">
        <ele>2088</ele>
        <time>2014-07-15T11:37:50Z</time>
      </trkpt>
      <trkpt lat="45.62312" lon="6.55083">
        <ele>2088</ele>
        <time>2014-07-15T11:37:52Z</time>
      </trkpt>
      <trkpt lat="45.62305" lon="6.55075">
        <ele>2088</ele>
        <time>2014-07-15T11:38:18Z</time>
      </trkpt>
      <trkpt lat="45.62304" lon="6.55076">
        <ele>2088</ele>
        <time>2014-07-15T11:38:19Z</time>
      </trkpt>
      <trkpt lat="45.62302" lon="6.55073">
        <ele>2088</ele>
        <time>2014-07-15T11:38:22Z</time>
      </trkpt>
      <trkpt lat="45.62301" lon="6.55072">
        <ele>2088</ele>
        <time>2014-07-15T11:38:24Z</time>
      </trkpt>
      <trkpt lat="45.62299" lon="6.5507">
        <ele>2088</ele>
        <time>2014-07-15T11:38:26Z</time>
      </trkpt>
      <trkpt lat="45.62298" lon="6.55069">
        <ele>2089</ele>
        <time>2014-07-15T11:38:28Z</time>
      </trkpt>
      <trkpt lat="45.62297" lon="6.55068">
        <ele>2089</ele>
        <time>2014-07-15T11:38:30Z</time>
      </trkpt>
      <trkpt lat="45.62296" lon="6.55066">
        <ele>2089</ele>
        <time>2014-07-15T11:38:32Z</time>
      </trkpt>
      <trkpt lat="45.62297" lon="6.55057">
        <ele>2089</ele>
        <time>2014-07-15T11:38:43Z</time>
      </trkpt>
      <trkpt lat="45.623" lon="6.55044">
        <ele>2089</ele>
        <time>2014-07-15T11:38:56Z</time>
      </trkpt>
      <trkpt lat="45.62299" lon="6.55042">
        <ele>2089</ele>
        <time>2014-07-15T11:38:58Z</time>
      </trkpt>
      <trkpt lat="45.62299" lon="6.5504">
        <ele>2089</ele>
        <time>2014-07-15T11:39:00Z</time>
      </trkpt>
      <trkpt lat="45.62295" lon="6.55">
        <ele>2089</ele>
        <time>2014-07-15T11:39:30Z</time>
      </trkpt>
      <trkpt lat="45.62295" lon="6.54994">
        <ele>2089</ele>
        <time>2014-07-15T11:39:35Z</time>
      </trkpt>
      <trkpt lat="45.62296" lon="6.54991">
        <ele>2089</ele>
        <time>2014-07-15T11:39:38Z</time>
      </trkpt>
      <trkpt lat="45.62297" lon="6.54988">
        <ele>2089</ele>
        <time>2014-07-15T11:39:41Z</time>
      </trkpt>
      <trkpt lat="45.62295" lon="6.54986">
        <ele>2088</ele>
        <time>2014-07-15T11:39:42Z</time>
      </trkpt>
      <trkpt lat="45.62298" lon="6.54983">
        <ele>2088</ele>
        <time>2014-07-15T11:39:45Z</time>
      </trkpt>
      <trkpt lat="45.62303" lon="6.54978">
        <ele>2088</ele>
        <time>2014-07-15T11:39:50Z</time>
      </trkpt>
      <trkpt lat="45.62291" lon="6.54969">
        <ele>2088</ele>
        <time>2014-07-15T11:40:13Z</time>
      </trkpt>
      <trkpt lat="45.6229" lon="6.54968">
        <ele>2088</ele>
        <time>2014-07-15T11:40:16Z</time>
      </trkpt>
      <trkpt lat="45.6229" lon="6.54962">
        <ele>2088</ele>
        <time>2014-07-15T11:40:27Z</time>
      </trkpt>
      <trkpt lat="45.62289" lon="6.54957">
        <ele>2088</ele>
        <time>2014-07-15T11:40:33Z</time>
      </trkpt>
      <trkpt lat="45.62281" lon="6.5494">
        <ele>2088</ele>
        <time>2014-07-15T11:40:50Z</time>
      </trkpt>
      <trkpt lat="45.62282" lon="6.54936">
        <ele>2088</ele>
        <time>2014-07-15T11:41:11Z</time>
      </trkpt>
      <trkpt lat="45.62279" lon="6.54929">
        <ele>2088</ele>
        <time>2014-07-15T11:41:16Z</time>
      </trkpt>
      <trkpt lat="45.62269" lon="6.54904">
        <ele>2088</ele>
        <time>2014-07-15T11:41:40Z</time>
      </trkpt>
      <trkpt lat="45.62266" lon="6.54904">
        <ele>2088</ele>
        <time>2014-07-15T11:41:56Z</time>
      </trkpt>
      <trkpt lat="45.62265" lon="6.54903">
        <ele>2088</ele>
        <time>2014-07-15T11:41:58Z</time>
      </trkpt>
      <trkpt lat="45.62257" lon="6.54894">
        <ele>2088</ele>
        <time>2014-07-15T11:42:10Z</time>
      </trkpt>
      <trkpt lat="45.62254" lon="6.54878">
        <ele>2088</ele>
        <time>2014-07-15T11:42:19Z</time>
      </trkpt>
      <trkpt lat="45.62255" lon="6.54875">
        <ele>2088</ele>
        <time>2014-07-15T11:42:21Z</time>
      </trkpt>
      <trkpt lat="45.62255" lon="6.54871">
        <ele>2088</ele>
        <time>2014-07-15T11:42:24Z</time>
      </trkpt>
      <trkpt lat="45.6226" lon="6.54865">
        <ele>2089</ele>
        <time>2014-07-15T11:42:34Z</time>
      </trkpt>
      <trkpt lat="45.62261" lon="6.54864">
        <ele>2089</ele>
        <time>2014-07-15T11:42:39Z</time>
      </trkpt>
      <trkpt lat="45.62259" lon="6.54859">
        <ele>2089</ele>
        <time>2014-07-15T11:42:48Z</time>
      </trkpt>
      <trkpt lat="45.62258" lon="6.54856">
        <ele>2089</ele>
        <time>2014-07-15T11:42:51Z</time>
      </trkpt>
      <trkpt lat="45.62252" lon="6.5485">
        <ele>2089</ele>
        <time>2014-07-15T11:42:58Z</time>
      </trkpt>
      <trkpt lat="45.62238" lon="6.54844">
        <ele>2087</ele>
        <time>2014-07-15T11:43:10Z</time>
      </trkpt>
      <trkpt lat="45.62238" lon="6.54842">
        <ele>2086</ele>
        <time>2014-07-15T11:43:12Z</time>
      </trkpt>
      <trkpt lat="45.62236" lon="6.54839">
        <ele>2086</ele>
        <time>2014-07-15T11:43:14Z</time>
      </trkpt>
      <trkpt lat="45.62232" lon="6.54832">
        <ele>2085</ele>
        <time>2014-07-15T11:43:21Z</time>
      </trkpt>
      <trkpt lat="45.62232" lon="6.54824">
        <ele>2085</ele>
        <time>2014-07-15T11:43:28Z</time>
      </trkpt>
      <trkpt lat="45.62231" lon="6.54822">
        <ele>2085</ele>
        <time>2014-07-15T11:43:29Z</time>
      </trkpt>
      <trkpt lat="45.6223" lon="6.54817">
        <ele>2085</ele>
        <time>2014-07-15T11:43:32Z</time>
      </trkpt>
      <trkpt lat="45.62231" lon="6.54814">
        <ele>2085</ele>
        <time>2014-07-15T11:43:34Z</time>
      </trkpt>
      <trkpt lat="45.62243" lon="6.54806">
        <ele>2085</ele>
        <time>2014-07-15T11:43:40Z</time>
      </trkpt>
      <trkpt lat="45.62243" lon="6.54804">
        <ele>2084</ele>
        <time>2014-07-15T11:43:42Z</time>
      </trkpt>
      <trkpt lat="45.62242" lon="6.54802">
        <ele>2084</ele>
        <time>2014-07-15T11:43:45Z</time>
      </trkpt>
      <trkpt lat="45.62242" lon="6.54799">
        <ele>2084</ele>
        <time>2014-07-15T11:43:48Z</time>
      </trkpt>
      <trkpt lat="45.6224" lon="6.54797">
        <ele>2084</ele>
        <time>2014-07-15T11:43:50Z</time>
      </trkpt>
      <trkpt lat="45.6224" lon="6.54794">
        <ele>2084</ele>
        <time>2014-07-15T11:43:52Z</time>
      </trkpt>
      <trkpt lat="45.6224" lon="6.5479">
        <ele>2084</ele>
        <time>2014-07-15T11:43:54Z</time>
      </trkpt>
      <trkpt lat="45.6224" lon="6.54787">
        <ele>2084</ele>
        <time>2014-07-15T11:43:56Z</time>
      </trkpt>
      <trkpt lat="45.62216" lon="6.5475">
        <ele>2084</ele>
        <time>2014-07-15T11:44:27Z</time>
      </trkpt>
      <trkpt lat="45.62216" lon="6.54748">
        <ele>2084</ele>
        <time>2014-07-15T11:44:29Z</time>
      </trkpt>
      <trkpt lat="45.6221" lon="6.54737">
        <ele>2084</ele>
        <time>2014-07-15T11:44:43Z</time>
      </trkpt>
      <trkpt lat="45.62207" lon="6.54735">
        <ele>2084</ele>
        <time>2014-07-15T11:45:02Z</time>
      </trkpt>
      <trkpt lat="45.62207" lon="6.54732">
        <ele>2084</ele>
        <time>2014-07-15T11:45:03Z</time>
      </trkpt>
      <trkpt lat="45.62207" lon="6.54729">
        <ele>2084</ele>
        <time>2014-07-15T11:45:05Z</time>
      </trkpt>
      <trkpt lat="45.62207" lon="6.54724">
        <ele>2084</ele>
        <time>2014-07-15T11:45:09Z</time>
      </trkpt>
      <trkpt lat="45.62209" lon="6.54721">
        <ele>2084</ele>
        <time>2014-07-15T11:45:16Z</time>
      </trkpt>
      <trkpt lat="45.6221" lon="6.54717">
        <ele>2084</ele>
        <time>2014-07-15T11:45:20Z</time>
      </trkpt>
      <trkpt lat="45.62211" lon="6.54716">
        <ele>2084</ele>
        <time>2014-07-15T11:45:24Z</time>
      </trkpt>
      <trkpt lat="45.6221" lon="6.54709">
        <ele>2084</ele>
        <time>2014-07-15T11:45:32Z</time>
      </trkpt>
      <trkpt lat="45.62209" lon="6.54706">
        <ele>2084</ele>
        <time>2014-07-15T11:45:36Z</time>
      </trkpt>
      <trkpt lat="45.62203" lon="6.54694">
        <ele>2084</ele>
        <time>2014-07-15T11:45:54Z</time>
      </trkpt>
      <trkpt lat="45.62206" lon="6.54691">
        <ele>2085</ele>
        <time>2014-07-15T11:46:14Z</time>
      </trkpt>
      <trkpt lat="45.62209" lon="6.54689">
        <ele>2085</ele>
        <time>2014-07-15T11:46:19Z</time>
      </trkpt>
      <trkpt lat="45.6221" lon="6.54687">
        <ele>2085</ele>
        <time>2014-07-15T11:46:24Z</time>
      </trkpt>
      <trkpt lat="45.62209" lon="6.54685">
        <ele>2085</ele>
        <time>2014-07-15T11:46:28Z</time>
      </trkpt>
      <trkpt lat="45.62214" lon="6.54679">
        <ele>2085</ele>
        <time>2014-07-15T11:46:39Z</time>
      </trkpt>
      <trkpt lat="45.62205" lon="6.54676">
        <ele>2086</ele>
        <time>2014-07-15T11:47:07Z</time>
      </trkpt>
      <trkpt lat="45.62197" lon="6.54664">
        <ele>2088</ele>
        <time>2014-07-15T11:47:36Z</time>
      </trkpt>
      <trkpt lat="45.62203" lon="6.54662">
        <ele>2092</ele>
        <time>2014-07-15T11:48:59Z</time>
      </trkpt>
      <trkpt lat="45.622" lon="6.5465">
        <ele>2092</ele>
        <time>2014-07-15T11:49:13Z</time>
      </trkpt>
      <trkpt lat="45.62195" lon="6.54641">
        <ele>2092</ele>
        <time>2014-07-15T11:49:19Z</time>
      </trkpt>
      <trkpt lat="45.62193" lon="6.54639">
        <ele>2093</ele>
        <time>2014-07-15T11:49:24Z</time>
      </trkpt>
      <trkpt lat="45.62192" lon="6.5463">
        <ele>2094</ele>
        <time>2014-07-15T11:49:40Z</time>
      </trkpt>
      <trkpt lat="45.6219" lon="6.54629">
        <ele>2094</ele>
        <time>2014-07-15T11:49:43Z</time>
      </trkpt>
      <trkpt lat="45.62188" lon="6.54624">
        <ele>2094</ele>
        <time>2014-07-15T11:49:51Z</time>
      </trkpt>
      <trkpt lat="45.62188" lon="6.54621">
        <ele>2095</ele>
        <time>2014-07-15T11:49:54Z</time>
      </trkpt>
      <trkpt lat="45.62191" lon="6.5461">
        <ele>2096</ele>
        <time>2014-07-15T11:50:07Z</time>
      </trkpt>
      <trkpt lat="45.62202" lon="6.54603">
        <ele>2098</ele>
        <time>2014-07-15T11:50:30Z</time>
      </trkpt>
      <trkpt lat="45.62202" lon="6.54601">
        <ele>2099</ele>
        <time>2014-07-15T11:50:35Z</time>
      </trkpt>
      <trkpt lat="45.62202" lon="6.54595">
        <ele>2099</ele>
        <time>2014-07-15T11:50:45Z</time>
      </trkpt>
      <trkpt lat="45.62201" lon="6.54592">
        <ele>2099</ele>
        <time>2014-07-15T11:50:49Z</time>
      </trkpt>
      <trkpt lat="45.62201" lon="6.5459">
        <ele>2100</ele>
        <time>2014-07-15T11:50:52Z</time>
      </trkpt>
      <trkpt lat="45.62199" lon="6.54588">
        <ele>2100</ele>
        <time>2014-07-15T11:50:54Z</time>
      </trkpt>
      <trkpt lat="45.62199" lon="6.54585">
        <ele>2100</ele>
        <time>2014-07-15T11:50:56Z</time>
      </trkpt>
      <trkpt lat="45.62181" lon="6.54558">
        <ele>2101</ele>
        <time>2014-07-15T11:51:26Z</time>
      </trkpt>
      <trkpt lat="45.62177" lon="6.5455">
        <ele>2102</ele>
        <time>2014-07-15T11:51:35Z</time>
      </trkpt>
      <trkpt lat="45.62159" lon="6.54537">
        <ele>2103</ele>
        <time>2014-07-15T11:52:06Z</time>
      </trkpt>
      <trkpt lat="45.62159" lon="6.54534">
        <ele>2103</ele>
        <time>2014-07-15T11:52:09Z</time>
      </trkpt>
      <trkpt lat="45.62157" lon="6.54523">
        <ele>2103</ele>
        <time>2014-07-15T11:52:16Z</time>
      </trkpt>
      <trkpt lat="45.62155" lon="6.5452">
        <ele>2103</ele>
        <time>2014-07-15T11:52:18Z</time>
      </trkpt>
      <trkpt lat="45.6215" lon="6.54508">
        <ele>2103</ele>
        <time>2014-07-15T11:52:27Z</time>
      </trkpt>
      <trkpt lat="45.6215" lon="6.54505">
        <ele>2103</ele>
        <time>2014-07-15T11:52:43Z</time>
      </trkpt>
      <trkpt lat="45.62148" lon="6.54505">
        <ele>2102</ele>
        <time>2014-07-15T11:53:04Z</time>
      </trkpt>
      <trkpt lat="45.62147" lon="6.54503">
        <ele>2102</ele>
        <time>2014-07-15T11:53:08Z</time>
      </trkpt>
      <trkpt lat="45.62146" lon="6.54498">
        <ele>2101</ele>
        <time>2014-07-15T11:53:13Z</time>
      </trkpt>
      <trkpt lat="45.62145" lon="6.54497">
        <ele>2101</ele>
        <time>2014-07-15T11:53:14Z</time>
      </trkpt>
      <trkpt lat="45.62145" lon="6.54494">
        <ele>2101</ele>
        <time>2014-07-15T11:53:17Z</time>
      </trkpt>
      <trkpt lat="45.62146" lon="6.54491">
        <ele>2101</ele>
        <time>2014-07-15T11:53:24Z</time>
      </trkpt>
      <trkpt lat="45.6215" lon="6.54486">
        <ele>2101</ele>
        <time>2014-07-15T11:53:31Z</time>
      </trkpt>
      <trkpt lat="45.6215" lon="6.54484">
        <ele>2101</ele>
        <time>2014-07-15T11:53:35Z</time>
      </trkpt>
      <trkpt lat="45.6215" lon="6.54478">
        <ele>2101</ele>
        <time>2014-07-15T11:53:43Z</time>
      </trkpt>
      <trkpt lat="45.6215" lon="6.54476">
        <ele>2101</ele>
        <time>2014-07-15T11:53:45Z</time>
      </trkpt>
      <trkpt lat="45.6215" lon="6.54474">
        <ele>2101</ele>
        <time>2014-07-15T11:53:47Z</time>
      </trkpt>
      <trkpt lat="45.6215" lon="6.5447">
        <ele>2101</ele>
        <time>2014-07-15T11:53:53Z</time>
      </trkpt>
      <trkpt lat="45.62149" lon="6.54467">
        <ele>2101</ele>
        <time>2014-07-15T11:53:55Z</time>
      </trkpt>
      <trkpt lat="45.62152" lon="6.54464">
        <ele>2101</ele>
        <time>2014-07-15T11:54:00Z</time>
      </trkpt>
      <trkpt lat="45.62152" lon="6.54461">
        <ele>2101</ele>
        <time>2014-07-15T11:54:03Z</time>
      </trkpt>
      <trkpt lat="45.62155" lon="6.54458">
        <ele>2101</ele>
        <time>2014-07-15T11:54:07Z</time>
      </trkpt>
      <trkpt lat="45.62159" lon="6.54448">
        <ele>2101</ele>
        <time>2014-07-15T11:54:22Z</time>
      </trkpt>
      <trkpt lat="45.62163" lon="6.54448">
        <ele>2101</ele>
        <time>2014-07-15T11:54:30Z</time>
      </trkpt>
      <trkpt lat="45.62165" lon="6.54444">
        <ele>2102</ele>
        <time>2014-07-15T11:54:36Z</time>
      </trkpt>
      <trkpt lat="45.62165" lon="6.54441">
        <ele>2102</ele>
        <time>2014-07-15T11:54:39Z</time>
      </trkpt>
      <trkpt lat="45.62164" lon="6.54439">
        <ele>2102</ele>
        <time>2014-07-15T11:54:40Z</time>
      </trkpt>
      <trkpt lat="45.62162" lon="6.54435">
        <ele>2102</ele>
        <time>2014-07-15T11:54:43Z</time>
      </trkpt>
      <trkpt lat="45.62156" lon="6.54428">
        <ele>2102</ele>
        <time>2014-07-15T11:54:53Z</time>
      </trkpt>
      <trkpt lat="45.62155" lon="6.54426">
        <ele>2102</ele>
        <time>2014-07-15T11:54:55Z</time>
      </trkpt>
      <trkpt lat="45.62153" lon="6.5442">
        <ele>2102</ele>
        <time>2014-07-15T11:55:01Z</time>
      </trkpt>
      <trkpt lat="45.62154" lon="6.54418">
        <ele>2102</ele>
        <time>2014-07-15T11:55:04Z</time>
      </trkpt>
      <trkpt lat="45.62154" lon="6.54415">
        <ele>2102</ele>
        <time>2014-07-15T11:55:08Z</time>
      </trkpt>
      <trkpt lat="45.62152" lon="6.54414">
        <ele>2102</ele>
        <time>2014-07-15T11:55:11Z</time>
      </trkpt>
      <trkpt lat="45.62152" lon="6.54411">
        <ele>2102</ele>
        <time>2014-07-15T11:55:16Z</time>
      </trkpt>
      <trkpt lat="45.62152" lon="6.54408">
        <ele>2102</ele>
        <time>2014-07-15T11:55:19Z</time>
      </trkpt>
      <trkpt lat="45.62151" lon="6.54406">
        <ele>2102</ele>
        <time>2014-07-15T11:55:20Z</time>
      </trkpt>
      <trkpt lat="45.62145" lon="6.54395">
        <ele>2102</ele>
        <time>2014-07-15T11:55:30Z</time>
      </trkpt>
      <trkpt lat="45.62146" lon="6.54393">
        <ele>2102</ele>
        <time>2014-07-15T11:55:34Z</time>
      </trkpt>
      <trkpt lat="45.62144" lon="6.54382">
        <ele>2101</ele>
        <time>2014-07-15T11:55:55Z</time>
      </trkpt>
      <trkpt lat="45.62142" lon="6.54378">
        <ele>2099</ele>
        <time>2014-07-15T11:58:07Z</time>
      </trkpt>
      <trkpt lat="45.62143" lon="6.54373">
        <ele>2099</ele>
        <time>2014-07-15T11:58:12Z</time>
      </trkpt>
      <trkpt lat="45.62152" lon="6.54356">
        <ele>2096</ele>
        <time>2014-07-15T11:58:43Z</time>
      </trkpt>
      <trkpt lat="45.62155" lon="6.54353">
        <ele>2096</ele>
        <time>2014-07-15T11:58:48Z</time>
      </trkpt>
      <trkpt lat="45.62156" lon="6.54353">
        <ele>2096</ele>
        <time>2014-07-15T11:58:52Z</time>
      </trkpt>
      <trkpt lat="45.62158" lon="6.5435">
        <ele>2095</ele>
        <time>2014-07-15T11:58:58Z</time>
      </trkpt>
      <trkpt lat="45.62158" lon="6.54348">
        <ele>2095</ele>
        <time>2014-07-15T11:59:00Z</time>
      </trkpt>
      <trkpt lat="45.62162" lon="6.54339">
        <ele>2094</ele>
        <time>2014-07-15T11:59:16Z</time>
      </trkpt>
      <trkpt lat="45.62161" lon="6.54336">
        <ele>2094</ele>
        <time>2014-07-15T11:59:18Z</time>
      </trkpt>
      <trkpt lat="45.62163" lon="6.54334">
        <ele>2094</ele>
        <time>2014-07-15T11:59:23Z</time>
      </trkpt>
      <trkpt lat="45.62163" lon="6.54331">
        <ele>2094</ele>
        <time>2014-07-15T11:59:26Z</time>
      </trkpt>
      <trkpt lat="45.62166" lon="6.54331">
        <ele>2093</ele>
        <time>2014-07-15T11:59:37Z</time>
      </trkpt>
      <trkpt lat="45.62166" lon="6.54329">
        <ele>2093</ele>
        <time>2014-07-15T11:59:40Z</time>
      </trkpt>
      <trkpt lat="45.62167" lon="6.54322">
        <ele>2093</ele>
        <time>2014-07-15T11:59:51Z</time>
      </trkpt>
      <trkpt lat="45.62164" lon="6.54317">
        <ele>2092</ele>
        <time>2014-07-15T11:59:56Z</time>
      </trkpt>
      <trkpt lat="45.62166" lon="6.54314">
        <ele>2092</ele>
        <time>2014-07-15T12:00:05Z</time>
      </trkpt>
      <trkpt lat="45.62166" lon="6.54309">
        <ele>2092</ele>
        <time>2014-07-15T12:00:10Z</time>
      </trkpt>
      <trkpt lat="45.62167" lon="6.54295">
        <ele>2091</ele>
        <time>2014-07-15T12:00:27Z</time>
      </trkpt>
      <trkpt lat="45.62164" lon="6.54286">
        <ele>2091</ele>
        <time>2014-07-15T12:00:36Z</time>
      </trkpt>
      <trkpt lat="45.62162" lon="6.54285">
        <ele>2091</ele>
        <time>2014-07-15T12:00:37Z</time>
      </trkpt>
      <trkpt lat="45.62158" lon="6.54283">
        <ele>2090</ele>
        <time>2014-07-15T12:00:40Z</time>
      </trkpt>
      <trkpt lat="45.62157" lon="6.5428">
        <ele>2090</ele>
        <time>2014-07-15T12:00:47Z</time>
      </trkpt>
      <trkpt lat="45.62157" lon="6.54277">
        <ele>2090</ele>
        <time>2014-07-15T12:00:50Z</time>
      </trkpt>
      <trkpt lat="45.62158" lon="6.54274">
        <ele>2089</ele>
        <time>2014-07-15T12:00:53Z</time>
      </trkpt>
      <trkpt lat="45.62161" lon="6.54264">
        <ele>2089</ele>
        <time>2014-07-15T12:01:04Z</time>
      </trkpt>
      <trkpt lat="45.62162" lon="6.54263">
        <ele>2089</ele>
        <time>2014-07-15T12:01:07Z</time>
      </trkpt>
      <trkpt lat="45.62164" lon="6.54263">
        <ele>2089</ele>
        <time>2014-07-15T12:01:08Z</time>
      </trkpt>
      <trkpt lat="45.62167" lon="6.5426">
        <ele>2089</ele>
        <time>2014-07-15T12:01:13Z</time>
      </trkpt>
      <trkpt lat="45.62167" lon="6.54257">
        <ele>2089</ele>
        <time>2014-07-15T12:01:17Z</time>
      </trkpt>
      <trkpt lat="45.62169" lon="6.54254">
        <ele>2088</ele>
        <time>2014-07-15T12:01:24Z</time>
      </trkpt>
      <trkpt lat="45.62173" lon="6.54252">
        <ele>2088</ele>
        <time>2014-07-15T12:01:37Z</time>
      </trkpt>
      <trkpt lat="45.62178" lon="6.54245">
        <ele>2088</ele>
        <time>2014-07-15T12:01:57Z</time>
      </trkpt>
      <trkpt lat="45.62178" lon="6.54242">
        <ele>2088</ele>
        <time>2014-07-15T12:01:59Z</time>
      </trkpt>
      <trkpt lat="45.62177" lon="6.54238">
        <ele>2088</ele>
        <time>2014-07-15T12:02:03Z</time>
      </trkpt>
      <trkpt lat="45.62178" lon="6.54237">
        <ele>2088</ele>
        <time>2014-07-15T12:02:07Z</time>
      </trkpt>
      <trkpt lat="45.62179" lon="6.54228">
        <ele>2088</ele>
        <time>2014-07-15T12:02:20Z</time>
      </trkpt>
      <trkpt lat="45.62181" lon="6.54227">
        <ele>2088</ele>
        <time>2014-07-15T12:02:24Z</time>
      </trkpt>
      <trkpt lat="45.62181" lon="6.54223">
        <ele>2088</ele>
        <time>2014-07-15T12:02:52Z</time>
      </trkpt>
      <trkpt lat="45.62179" lon="6.54217">
        <ele>2088</ele>
        <time>2014-07-15T12:02:58Z</time>
      </trkpt>
      <trkpt lat="45.62182" lon="6.54217">
        <ele>2088</ele>
        <time>2014-07-15T12:03:00Z</time>
      </trkpt>
      <trkpt lat="45.62183" lon="6.54212">
        <ele>2088</ele>
        <time>2014-07-15T12:03:04Z</time>
      </trkpt>
      <trkpt lat="45.62188" lon="6.5421">
        <ele>2088</ele>
        <time>2014-07-15T12:03:09Z</time>
      </trkpt>
      <trkpt lat="45.62189" lon="6.54208">
        <ele>2087</ele>
        <time>2014-07-15T12:03:17Z</time>
      </trkpt>
      <trkpt lat="45.62189" lon="6.54205">
        <ele>2087</ele>
        <time>2014-07-15T12:03:20Z</time>
      </trkpt>
      <trkpt lat="45.62188" lon="6.54203">
        <ele>2087</ele>
        <time>2014-07-15T12:03:23Z</time>
      </trkpt>
      <trkpt lat="45.6219" lon="6.542">
        <ele>2087</ele>
        <time>2014-07-15T12:03:31Z</time>
      </trkpt>
      <trkpt lat="45.62191" lon="6.54197">
        <ele>2087</ele>
        <time>2014-07-15T12:03:39Z</time>
      </trkpt>
      <trkpt lat="45.62186" lon="6.54195">
        <ele>2087</ele>
        <time>2014-07-15T12:03:42Z</time>
      </trkpt>
      <trkpt lat="45.62183" lon="6.54197">
        <ele>2090</ele>
        <time>2014-07-15T12:04:44Z</time>
      </trkpt>
      <trkpt lat="45.62183" lon="6.54192">
        <ele>2093</ele>
        <time>2014-07-15T12:05:52Z</time>
      </trkpt>
      <trkpt lat="45.62185" lon="6.5419">
        <ele>2094</ele>
        <time>2014-07-15T12:05:54Z</time>
      </trkpt>
      <trkpt lat="45.62184" lon="6.54187">
        <ele>2094</ele>
        <time>2014-07-15T12:05:57Z</time>
      </trkpt>
      <trkpt lat="45.62185" lon="6.54185">
        <ele>2094</ele>
        <time>2014-07-15T12:06:01Z</time>
      </trkpt>
      <trkpt lat="45.62188" lon="6.54185">
        <ele>2094</ele>
        <time>2014-07-15T12:06:04Z</time>
      </trkpt>
      <trkpt lat="45.62191" lon="6.5418">
        <ele>2094</ele>
        <time>2014-07-15T12:06:11Z</time>
      </trkpt>
      <trkpt lat="45.62189" lon="6.54178">
        <ele>2094</ele>
        <time>2014-07-15T12:06:14Z</time>
      </trkpt>
      <trkpt lat="45.62188" lon="6.54175">
        <ele>2093</ele>
        <time>2014-07-15T12:06:16Z</time>
      </trkpt>
      <trkpt lat="45.62186" lon="6.54176">
        <ele>2092</ele>
        <time>2014-07-15T12:06:18Z</time>
      </trkpt>
      <trkpt lat="45.62199" lon="6.54188">
        <ele>2090</ele>
        <time>2014-07-15T12:06:41Z</time>
      </trkpt>
      <trkpt lat="45.62201" lon="6.54188">
        <ele>2090</ele>
        <time>2014-07-15T12:07:00Z</time>
      </trkpt>
      <trkpt lat="45.62204" lon="6.54187">
        <ele>2090</ele>
        <time>2014-07-15T12:07:15Z</time>
      </trkpt>
      <trkpt lat="45.62202" lon="6.54194">
        <ele>2090</ele>
        <time>2014-07-15T12:07:27Z</time>
      </trkpt>
      <trkpt lat="45.62199" lon="6.54192">
        <ele>2090</ele>
        <time>2014-07-15T12:07:32Z</time>
      </trkpt>
      <trkpt lat="45.62196" lon="6.5419">
        <ele>2090</ele>
        <time>2014-07-15T12:07:35Z</time>
      </trkpt>
      <trkpt lat="45.62194" lon="6.54189">
        <ele>2090</ele>
        <time>2014-07-15T12:07:36Z</time>
      </trkpt>
      <trkpt lat="45.62191" lon="6.54183">
        <ele>2087</ele>
        <time>2014-07-15T12:07:59Z</time>
      </trkpt>
      <trkpt lat="45.62163" lon="6.54172">
        <ele>2084</ele>
        <time>2014-07-15T12:08:19Z</time>
      </trkpt>
      <trkpt lat="45.62167" lon="6.54172">
        <ele>2083</ele>
        <time>2014-07-15T12:08:24Z</time>
      </trkpt>
      <trkpt lat="45.6218" lon="6.54176">
        <ele>2083</ele>
        <time>2014-07-15T12:08:41Z</time>
      </trkpt>
      <trkpt lat="45.62184" lon="6.54178">
        <ele>2083</ele>
        <time>2014-07-15T12:08:46Z</time>
      </trkpt>
      <trkpt lat="45.62187" lon="6.54177">
        <ele>2082</ele>
        <time>2014-07-15T12:08:49Z</time>
      </trkpt>
      <trkpt lat="45.62188" lon="6.54174">
        <ele>2082</ele>
        <time>2014-07-15T12:08:52Z</time>
      </trkpt>
      <trkpt lat="45.62187" lon="6.54171">
        <ele>2082</ele>
        <time>2014-07-15T12:08:55Z</time>
      </trkpt>
      <trkpt lat="45.62185" lon="6.54169">
        <ele>2082</ele>
        <time>2014-07-15T12:08:57Z</time>
      </trkpt>
      <trkpt lat="45.62183" lon="6.54167">
        <ele>2082</ele>
        <time>2014-07-15T12:08:59Z</time>
      </trkpt>
      <trkpt lat="45.62182" lon="6.54162">
        <ele>2082</ele>
        <time>2014-07-15T12:09:05Z</time>
      </trkpt>
      <trkpt lat="45.62183" lon="6.5416">
        <ele>2082</ele>
        <time>2014-07-15T12:09:08Z</time>
      </trkpt>
      <trkpt lat="45.62188" lon="6.54156">
        <ele>2082</ele>
        <time>2014-07-15T12:09:15Z</time>
      </trkpt>
      <trkpt lat="45.62189" lon="6.54152">
        <ele>2081</ele>
        <time>2014-07-15T12:09:17Z</time>
      </trkpt>
      <trkpt lat="45.62187" lon="6.54146">
        <ele>2081</ele>
        <time>2014-07-15T12:09:23Z</time>
      </trkpt>
      <trkpt lat="45.62185" lon="6.54143">
        <ele>2081</ele>
        <time>2014-07-15T12:09:25Z</time>
      </trkpt>
      <trkpt lat="45.62184" lon="6.54141">
        <ele>2081</ele>
        <time>2014-07-15T12:09:27Z</time>
      </trkpt>
      <trkpt lat="45.62184" lon="6.54138">
        <ele>2081</ele>
        <time>2014-07-15T12:09:30Z</time>
      </trkpt>
      <trkpt lat="45.62183" lon="6.54132">
        <ele>2081</ele>
        <time>2014-07-15T12:09:38Z</time>
      </trkpt>
      <trkpt lat="45.62183" lon="6.54129">
        <ele>2081</ele>
        <time>2014-07-15T12:09:40Z</time>
      </trkpt>
      <trkpt lat="45.62184" lon="6.54127">
        <ele>2081</ele>
        <time>2014-07-15T12:09:43Z</time>
      </trkpt>
      <trkpt lat="45.62184" lon="6.54124">
        <ele>2081</ele>
        <time>2014-07-15T12:09:46Z</time>
      </trkpt>
      <trkpt lat="45.62184" lon="6.54122">
        <ele>2081</ele>
        <time>2014-07-15T12:09:49Z</time>
      </trkpt>
      <trkpt lat="45.62182" lon="6.54105">
        <ele>2081</ele>
        <time>2014-07-15T12:10:05Z</time>
      </trkpt>
      <trkpt lat="45.6218" lon="6.54103">
        <ele>2081</ele>
        <time>2014-07-15T12:10:07Z</time>
      </trkpt>
      <trkpt lat="45.62179" lon="6.541">
        <ele>2081</ele>
        <time>2014-07-15T12:10:10Z</time>
      </trkpt>
      <trkpt lat="45.62179" lon="6.54092">
        <ele>2080</ele>
        <time>2014-07-15T12:10:16Z</time>
      </trkpt>
      <trkpt lat="45.62177" lon="6.54081">
        <ele>2081</ele>
        <time>2014-07-15T12:10:28Z</time>
      </trkpt>
      <trkpt lat="45.62166" lon="6.5407">
        <ele>2081</ele>
        <time>2014-07-15T12:10:37Z</time>
      </trkpt>
      <trkpt lat="45.62168" lon="6.54069">
        <ele>2081</ele>
        <time>2014-07-15T12:10:40Z</time>
      </trkpt>
      <trkpt lat="45.6217" lon="6.54067">
        <ele>2081</ele>
        <time>2014-07-15T12:10:43Z</time>
      </trkpt>
      <trkpt lat="45.62172" lon="6.54066">
        <ele>2081</ele>
        <time>2014-07-15T12:10:46Z</time>
      </trkpt>
      <trkpt lat="45.62174" lon="6.54064">
        <ele>2082</ele>
        <time>2014-07-15T12:10:49Z</time>
      </trkpt>
      <trkpt lat="45.62174" lon="6.54057">
        <ele>2082</ele>
        <time>2014-07-15T12:10:55Z</time>
      </trkpt>
      <trkpt lat="45.62176" lon="6.54056">
        <ele>2082</ele>
        <time>2014-07-15T12:10:58Z</time>
      </trkpt>
      <trkpt lat="45.62177" lon="6.54053">
        <ele>2081</ele>
        <time>2014-07-15T12:11:04Z</time>
      </trkpt>
      <trkpt lat="45.62177" lon="6.54049">
        <ele>2081</ele>
        <time>2014-07-15T12:11:08Z</time>
      </trkpt>
      <trkpt lat="45.62176" lon="6.54046">
        <ele>2081</ele>
        <time>2014-07-15T12:11:12Z</time>
      </trkpt>
      <trkpt lat="45.62173" lon="6.54045">
        <ele>2081</ele>
        <time>2014-07-15T12:11:13Z</time>
      </trkpt>
      <trkpt lat="45.62173" lon="6.54041">
        <ele>2081</ele>
        <time>2014-07-15T12:11:18Z</time>
      </trkpt>
      <trkpt lat="45.62173" lon="6.54036">
        <ele>2082</ele>
        <time>2014-07-15T12:11:25Z</time>
      </trkpt>
      <trkpt lat="45.62176" lon="6.54034">
        <ele>2082</ele>
        <time>2014-07-15T12:11:28Z</time>
      </trkpt>
      <trkpt lat="45.62178" lon="6.54029">
        <ele>2082</ele>
        <time>2014-07-15T12:11:35Z</time>
      </trkpt>
      <trkpt lat="45.62178" lon="6.54026">
        <ele>2082</ele>
        <time>2014-07-15T12:11:38Z</time>
      </trkpt>
      <trkpt lat="45.62177" lon="6.54022">
        <ele>2082</ele>
        <time>2014-07-15T12:11:42Z</time>
      </trkpt>
      <trkpt lat="45.62175" lon="6.54021">
        <ele>2079</ele>
        <time>2014-07-15T12:12:23Z</time>
      </trkpt>
      <trkpt lat="45.62175" lon="6.54016">
        <ele>2077</ele>
        <time>2014-07-15T12:12:40Z</time>
      </trkpt>
      <trkpt lat="45.6217" lon="6.54006">
        <ele>2076</ele>
        <time>2014-07-15T12:12:52Z</time>
      </trkpt>
      <trkpt lat="45.62165" lon="6.54005">
        <ele>2076</ele>
        <time>2014-07-15T12:12:58Z</time>
      </trkpt>
      <trkpt lat="45.62165" lon="6.54001">
        <ele>2076</ele>
        <time>2014-07-15T12:13:16Z</time>
      </trkpt>
      <trkpt lat="45.62168" lon="6.5399">
        <ele>2076</ele>
        <time>2014-07-15T12:13:26Z</time>
      </trkpt>
      <trkpt lat="45.62167" lon="6.53988">
        <ele>2075</ele>
        <time>2014-07-15T12:13:49Z</time>
      </trkpt>
      <trkpt lat="45.62174" lon="6.53995">
        <ele>2075</ele>
        <time>2014-07-15T12:13:57Z</time>
      </trkpt>
      <trkpt lat="45.62178" lon="6.53991">
        <ele>2075</ele>
        <time>2014-07-15T12:14:20Z</time>
      </trkpt>
      <trkpt lat="45.62176" lon="6.53988">
        <ele>2075</ele>
        <time>2014-07-15T12:14:25Z</time>
      </trkpt>
      <trkpt lat="45.6217" lon="6.53976">
        <ele>2076</ele>
        <time>2014-07-15T12:14:52Z</time>
      </trkpt>
      <trkpt lat="45.62175" lon="6.53971">
        <ele>2076</ele>
        <time>2014-07-15T12:14:59Z</time>
      </trkpt>
      <trkpt lat="45.62176" lon="6.53967">
        <ele>2076</ele>
        <time>2014-07-15T12:15:01Z</time>
      </trkpt>
      <trkpt lat="45.62178" lon="6.53965">
        <ele>2076</ele>
        <time>2014-07-15T12:15:03Z</time>
      </trkpt>
      <trkpt lat="45.62179" lon="6.53963">
        <ele>2076</ele>
        <time>2014-07-15T12:15:06Z</time>
      </trkpt>
      <trkpt lat="45.62181" lon="6.53961">
        <ele>2076</ele>
        <time>2014-07-15T12:15:09Z</time>
      </trkpt>
      <trkpt lat="45.62183" lon="6.53959">
        <ele>2076</ele>
        <time>2014-07-15T12:15:13Z</time>
      </trkpt>
      <trkpt lat="45.62188" lon="6.53951">
        <ele>2076</ele>
        <time>2014-07-15T12:15:18Z</time>
      </trkpt>
      <trkpt lat="45.62191" lon="6.53944">
        <ele>2076</ele>
        <time>2014-07-15T12:15:26Z</time>
      </trkpt>
      <trkpt lat="45.62193" lon="6.5394">
        <ele>2076</ele>
        <time>2014-07-15T12:15:35Z</time>
      </trkpt>
      <trkpt lat="45.622" lon="6.53945">
        <ele>2077</ele>
        <time>2014-07-15T12:15:39Z</time>
      </trkpt>
      <trkpt lat="45.62207" lon="6.53943">
        <ele>2077</ele>
        <time>2014-07-15T12:16:00Z</time>
      </trkpt>
      <trkpt lat="45.62209" lon="6.5394">
        <ele>2077</ele>
        <time>2014-07-15T12:16:05Z</time>
      </trkpt>
      <trkpt lat="45.62209" lon="6.53937">
        <ele>2077</ele>
        <time>2014-07-15T12:16:08Z</time>
      </trkpt>
      <trkpt lat="45.62211" lon="6.53935">
        <ele>2077</ele>
        <time>2014-07-15T12:16:12Z</time>
      </trkpt>
      <trkpt lat="45.62211" lon="6.5393">
        <ele>2077</ele>
        <time>2014-07-15T12:16:17Z</time>
      </trkpt>
      <trkpt lat="45.62211" lon="6.53927">
        <ele>2077</ele>
        <time>2014-07-15T12:16:21Z</time>
      </trkpt>
      <trkpt lat="45.62213" lon="6.53924">
        <ele>2077</ele>
        <time>2014-07-15T12:16:25Z</time>
      </trkpt>
      <trkpt lat="45.62223" lon="6.53921">
        <ele>2077</ele>
        <time>2014-07-15T12:16:32Z</time>
      </trkpt>
      <trkpt lat="45.62224" lon="6.53918">
        <ele>2076</ele>
        <time>2014-07-15T12:16:40Z</time>
      </trkpt>
      <trkpt lat="45.62226" lon="6.53917">
        <ele>2076</ele>
        <time>2014-07-15T12:16:42Z</time>
      </trkpt>
      <trkpt lat="45.62228" lon="6.53917">
        <ele>2076</ele>
        <time>2014-07-15T12:16:45Z</time>
      </trkpt>
      <trkpt lat="45.62231" lon="6.53894">
        <ele>2076</ele>
        <time>2014-07-15T12:17:11Z</time>
      </trkpt>
      <trkpt lat="45.62231" lon="6.53891">
        <ele>2076</ele>
        <time>2014-07-15T12:17:23Z</time>
      </trkpt>
      <trkpt lat="45.62234" lon="6.5389">
        <ele>2076</ele>
        <time>2014-07-15T12:17:25Z</time>
      </trkpt>
      <trkpt lat="45.62234" lon="6.53887">
        <ele>2076</ele>
        <time>2014-07-15T12:17:27Z</time>
      </trkpt>
      <trkpt lat="45.62235" lon="6.53884">
        <ele>2076</ele>
        <time>2014-07-15T12:17:30Z</time>
      </trkpt>
      <trkpt lat="45.62238" lon="6.53879">
        <ele>2076</ele>
        <time>2014-07-15T12:17:37Z</time>
      </trkpt>
      <trkpt lat="45.62239" lon="6.53877">
        <ele>2076</ele>
        <time>2014-07-15T12:17:39Z</time>
      </trkpt>
      <trkpt lat="45.62241" lon="6.53875">
        <ele>2076</ele>
        <time>2014-07-15T12:17:41Z</time>
      </trkpt>
      <trkpt lat="45.62245" lon="6.53876">
        <ele>2076</ele>
        <time>2014-07-15T12:17:53Z</time>
      </trkpt>
      <trkpt lat="45.62246" lon="6.53873">
        <ele>2076</ele>
        <time>2014-07-15T12:18:01Z</time>
      </trkpt>
      <trkpt lat="45.6225" lon="6.53869">
        <ele>2075</ele>
        <time>2014-07-15T12:18:09Z</time>
      </trkpt>
      <trkpt lat="45.62247" lon="6.53866">
        <ele>2068</ele>
        <time>2014-07-15T12:18:25Z</time>
      </trkpt>
      <trkpt lat="45.62245" lon="6.53864">
        <ele>2067</ele>
        <time>2014-07-15T12:18:27Z</time>
      </trkpt>
      <trkpt lat="45.62241" lon="6.53856">
        <ele>2066</ele>
        <time>2014-07-15T12:18:37Z</time>
      </trkpt>
      <trkpt lat="45.62243" lon="6.53854">
        <ele>2065</ele>
        <time>2014-07-15T12:18:45Z</time>
      </trkpt>
      <trkpt lat="45.62251" lon="6.53857">
        <ele>2063</ele>
        <time>2014-07-15T12:18:55Z</time>
      </trkpt>
      <trkpt lat="45.62253" lon="6.53857">
        <ele>2062</ele>
        <time>2014-07-15T12:19:00Z</time>
      </trkpt>
      <trkpt lat="45.62258" lon="6.53859">
        <ele>2061</ele>
        <time>2014-07-15T12:19:05Z</time>
      </trkpt>
      <trkpt lat="45.62259" lon="6.53856">
        <ele>2061</ele>
        <time>2014-07-15T12:19:12Z</time>
      </trkpt>
      <trkpt lat="45.62261" lon="6.53855">
        <ele>2060</ele>
        <time>2014-07-15T12:19:21Z</time>
      </trkpt>
      <trkpt lat="45.62269" lon="6.53855">
        <ele>2059</ele>
        <time>2014-07-15T12:19:45Z</time>
      </trkpt>
      <trkpt lat="45.62265" lon="6.53856">
        <ele>2058</ele>
        <time>2014-07-15T12:19:55Z</time>
      </trkpt>
      <trkpt lat="45.62263" lon="6.53854">
        <ele>2058</ele>
        <time>2014-07-15T12:19:56Z</time>
      </trkpt>
      <trkpt lat="45.62247" lon="6.53832">
        <ele>2058</ele>
        <time>2014-07-15T12:20:31Z</time>
      </trkpt>
      <trkpt lat="45.62245" lon="6.5383">
        <ele>2058</ele>
        <time>2014-07-15T12:20:33Z</time>
      </trkpt>
      <trkpt lat="45.62243" lon="6.5383">
        <ele>2058</ele>
        <time>2014-07-15T12:20:35Z</time>
      </trkpt>
      <trkpt lat="45.62235" lon="6.53821">
        <ele>2058</ele>
        <time>2014-07-15T12:20:42Z</time>
      </trkpt>
      <trkpt lat="45.6222" lon="6.53808">
        <ele>2057</ele>
        <time>2014-07-15T12:20:47Z</time>
      </trkpt>
      <trkpt lat="45.6223" lon="6.53804">
        <ele>2056</ele>
        <time>2014-07-15T12:20:59Z</time>
      </trkpt>
      <trkpt lat="45.62231" lon="6.53779">
        <ele>2056</ele>
        <time>2014-07-15T12:21:10Z</time>
      </trkpt>
      <trkpt lat="45.62237" lon="6.53821">
        <ele>2057</ele>
        <time>2014-07-15T12:21:19Z</time>
      </trkpt>
      <trkpt lat="45.62235" lon="6.53821">
        <ele>2058</ele>
        <time>2014-07-15T12:21:27Z</time>
      </trkpt>
      <trkpt lat="45.62223" lon="6.53823">
        <ele>2055</ele>
        <time>2014-07-15T12:21:37Z</time>
      </trkpt>
      <trkpt lat="45.62224" lon="6.53829">
        <ele>2053</ele>
        <time>2014-07-15T12:21:39Z</time>
      </trkpt>
      <trkpt lat="45.62225" lon="6.53832">
        <ele>2051</ele>
        <time>2014-07-15T12:21:41Z</time>
      </trkpt>
      <trkpt lat="45.62225" lon="6.53836">
        <ele>2050</ele>
        <time>2014-07-15T12:21:45Z</time>
      </trkpt>
      <trkpt lat="45.62221" lon="6.53836">
        <ele>2048</ele>
        <time>2014-07-15T12:21:52Z</time>
      </trkpt>
      <trkpt lat="45.62213" lon="6.53831">
        <ele>2047</ele>
        <time>2014-07-15T12:21:58Z</time>
      </trkpt>
      <trkpt lat="45.6221" lon="6.53832">
        <ele>2045</ele>
        <time>2014-07-15T12:22:03Z</time>
      </trkpt>
      <trkpt lat="45.62201" lon="6.53829">
        <ele>2041</ele>
        <time>2014-07-15T12:22:33Z</time>
      </trkpt>
      <trkpt lat="45.622" lon="6.53824">
        <ele>2041</ele>
        <time>2014-07-15T12:22:46Z</time>
      </trkpt>
      <trkpt lat="45.62197" lon="6.53823">
        <ele>2041</ele>
        <time>2014-07-15T12:22:51Z</time>
      </trkpt>
      <trkpt lat="45.62196" lon="6.53821">
        <ele>2041</ele>
        <time>2014-07-15T12:22:54Z</time>
      </trkpt>
      <trkpt lat="45.62195" lon="6.53817">
        <ele>2041</ele>
        <time>2014-07-15T12:23:00Z</time>
      </trkpt>
      <trkpt lat="45.62194" lon="6.53814">
        <ele>2041</ele>
        <time>2014-07-15T12:23:03Z</time>
      </trkpt>
      <trkpt lat="45.62191" lon="6.5381">
        <ele>2041</ele>
        <time>2014-07-15T12:23:07Z</time>
      </trkpt>
      <trkpt lat="45.62189" lon="6.53807">
        <ele>2041</ele>
        <time>2014-07-15T12:23:09Z</time>
      </trkpt>
      <trkpt lat="45.62189" lon="6.53804">
        <ele>2041</ele>
        <time>2014-07-15T12:23:12Z</time>
      </trkpt>
      <trkpt lat="45.62193" lon="6.53803">
        <ele>2041</ele>
        <time>2014-07-15T12:23:14Z</time>
      </trkpt>
      <trkpt lat="45.62194" lon="6.53797">
        <ele>2041</ele>
        <time>2014-07-15T12:23:19Z</time>
      </trkpt>
      <trkpt lat="45.62195" lon="6.53793">
        <ele>2041</ele>
        <time>2014-07-15T12:23:23Z</time>
      </trkpt>
      <trkpt lat="45.62191" lon="6.53788">
        <ele>2040</ele>
        <time>2014-07-15T12:23:27Z</time>
      </trkpt>
      <trkpt lat="45.62193" lon="6.53787">
        <ele>2040</ele>
        <time>2014-07-15T12:23:29Z</time>
      </trkpt>
      <trkpt lat="45.62195" lon="6.53771">
        <ele>2041</ele>
        <time>2014-07-15T12:23:51Z</time>
      </trkpt>
      <trkpt lat="45.62199" lon="6.53766">
        <ele>2041</ele>
        <time>2014-07-15T12:24:02Z</time>
      </trkpt>
      <trkpt lat="45.62198" lon="6.53763">
        <ele>2041</ele>
        <time>2014-07-15T12:24:05Z</time>
      </trkpt>
      <trkpt lat="45.62195" lon="6.53761">
        <ele>2042</ele>
        <time>2014-07-15T12:24:06Z</time>
      </trkpt>
      <trkpt lat="45.62193" lon="6.53757">
        <ele>2042</ele>
        <time>2014-07-15T12:24:10Z</time>
      </trkpt>
      <trkpt lat="45.62192" lon="6.53754">
        <ele>2042</ele>
        <time>2014-07-15T12:24:12Z</time>
      </trkpt>
      <trkpt lat="45.62191" lon="6.53751">
        <ele>2042</ele>
        <time>2014-07-15T12:24:14Z</time>
      </trkpt>
      <trkpt lat="45.62191" lon="6.53748">
        <ele>2042</ele>
        <time>2014-07-15T12:24:16Z</time>
      </trkpt>
      <trkpt lat="45.62192" lon="6.53743">
        <ele>2042</ele>
        <time>2014-07-15T12:24:23Z</time>
      </trkpt>
      <trkpt lat="45.62193" lon="6.5374">
        <ele>2042</ele>
        <time>2014-07-15T12:24:26Z</time>
      </trkpt>
      <trkpt lat="45.62191" lon="6.53736">
        <ele>2043</ele>
        <time>2014-07-15T12:24:30Z</time>
      </trkpt>
      <trkpt lat="45.62191" lon="6.53733">
        <ele>2043</ele>
        <time>2014-07-15T12:24:34Z</time>
      </trkpt>
      <trkpt lat="45.62192" lon="6.53731">
        <ele>2043</ele>
        <time>2014-07-15T12:24:38Z</time>
      </trkpt>
      <trkpt lat="45.62189" lon="6.53723">
        <ele>2042</ele>
        <time>2014-07-15T12:24:55Z</time>
      </trkpt>
      <trkpt lat="45.62188" lon="6.53719">
        <ele>2041</ele>
        <time>2014-07-15T12:25:07Z</time>
      </trkpt>
      <trkpt lat="45.62186" lon="6.53718">
        <ele>2041</ele>
        <time>2014-07-15T12:25:10Z</time>
      </trkpt>
      <trkpt lat="45.62187" lon="6.53712">
        <ele>2040</ele>
        <time>2014-07-15T12:25:36Z</time>
      </trkpt>
      <trkpt lat="45.62181" lon="6.53705">
        <ele>2040</ele>
        <time>2014-07-15T12:25:45Z</time>
      </trkpt>
      <trkpt lat="45.62182" lon="6.53701">
        <ele>2040</ele>
        <time>2014-07-15T12:25:49Z</time>
      </trkpt>
      <trkpt lat="45.62185" lon="6.53701">
        <ele>2040</ele>
        <time>2014-07-15T12:25:51Z</time>
      </trkpt>
      <trkpt lat="45.62186" lon="6.53697">
        <ele>2040</ele>
        <time>2014-07-15T12:25:54Z</time>
      </trkpt>
      <trkpt lat="45.62187" lon="6.53694">
        <ele>2040</ele>
        <time>2014-07-15T12:25:57Z</time>
      </trkpt>
      <trkpt lat="45.62186" lon="6.53691">
        <ele>2040</ele>
        <time>2014-07-15T12:25:59Z</time>
      </trkpt>
      <trkpt lat="45.62188" lon="6.53685">
        <ele>2041</ele>
        <time>2014-07-15T12:26:05Z</time>
      </trkpt>
      <trkpt lat="45.62185" lon="6.53678">
        <ele>2041</ele>
        <time>2014-07-15T12:26:11Z</time>
      </trkpt>
      <trkpt lat="45.62184" lon="6.53672">
        <ele>2041</ele>
        <time>2014-07-15T12:26:19Z</time>
      </trkpt>
      <trkpt lat="45.62182" lon="6.53669">
        <ele>2040</ele>
        <time>2014-07-15T12:26:23Z</time>
      </trkpt>
      <trkpt lat="45.62182" lon="6.53665">
        <ele>2041</ele>
        <time>2014-07-15T12:26:27Z</time>
      </trkpt>
      <trkpt lat="45.62182" lon="6.53661">
        <ele>2041</ele>
        <time>2014-07-15T12:26:29Z</time>
      </trkpt>
      <trkpt lat="45.62181" lon="6.53657">
        <ele>2041</ele>
        <time>2014-07-15T12:26:34Z</time>
      </trkpt>
      <trkpt lat="45.62184" lon="6.53653">
        <ele>2041</ele>
        <time>2014-07-15T12:26:50Z</time>
      </trkpt>
      <trkpt lat="45.62183" lon="6.53649">
        <ele>2041</ele>
        <time>2014-07-15T12:26:53Z</time>
      </trkpt>
      <trkpt lat="45.6218" lon="6.53647">
        <ele>2041</ele>
        <time>2014-07-15T12:26:55Z</time>
      </trkpt>
      <trkpt lat="45.62178" lon="6.53646">
        <ele>2041</ele>
        <time>2014-07-15T12:26:57Z</time>
      </trkpt>
      <trkpt lat="45.62167" lon="6.53642">
        <ele>2041</ele>
        <time>2014-07-15T12:27:01Z</time>
      </trkpt>
      <trkpt lat="45.62168" lon="6.53637">
        <ele>2040</ele>
        <time>2014-07-15T12:27:16Z</time>
      </trkpt>
      <trkpt lat="45.62176" lon="6.53637">
        <ele>2040</ele>
        <time>2014-07-15T12:27:24Z</time>
      </trkpt>
      <trkpt lat="45.62183" lon="6.53644">
        <ele>2040</ele>
        <time>2014-07-15T12:27:34Z</time>
      </trkpt>
      <trkpt lat="45.62181" lon="6.53645">
        <ele>2039</ele>
        <time>2014-07-15T12:27:39Z</time>
      </trkpt>
      <trkpt lat="45.62176" lon="6.53644">
        <ele>2039</ele>
        <time>2014-07-15T12:27:50Z</time>
      </trkpt>
      <trkpt lat="45.62173" lon="6.53642">
        <ele>2039</ele>
        <time>2014-07-15T12:27:54Z</time>
      </trkpt>
      <trkpt lat="45.62186" lon="6.53643">
        <ele>2039</ele>
        <time>2014-07-15T12:28:14Z</time>
      </trkpt>
      <trkpt lat="45.62199" lon="6.53653">
        <ele>2038</ele>
        <time>2014-07-15T12:28:16Z</time>
      </trkpt>
      <trkpt lat="45.62194" lon="6.53651">
        <ele>2038</ele>
        <time>2014-07-15T12:28:19Z</time>
      </trkpt>
      <trkpt lat="45.62184" lon="6.53647">
        <ele>2038</ele>
        <time>2014-07-15T12:28:22Z</time>
      </trkpt>
      <trkpt lat="45.62168" lon="6.5364">
        <ele>2039</ele>
        <time>2014-07-15T12:28:30Z</time>
      </trkpt>
      <trkpt lat="45.62172" lon="6.53642">
        <ele>2039</ele>
        <time>2014-07-15T12:28:33Z</time>
      </trkpt>
      <trkpt lat="45.62174" lon="6.53645">
        <ele>2038</ele>
        <time>2014-07-15T12:28:35Z</time>
      </trkpt>
      <trkpt lat="45.62194" lon="6.53666">
        <ele>2039</ele>
        <time>2014-07-15T12:28:53Z</time>
      </trkpt>
      <trkpt lat="45.62194" lon="6.53669">
        <ele>2036</ele>
        <time>2014-07-15T12:29:26Z</time>
      </trkpt>
      <trkpt lat="45.62194" lon="6.53674">
        <ele>2037</ele>
        <time>2014-07-15T12:29:29Z</time>
      </trkpt>
      <trkpt lat="45.62198" lon="6.53668">
        <ele>2036</ele>
        <time>2014-07-15T12:30:05Z</time>
      </trkpt>
      <trkpt lat="45.62188" lon="6.53669">
        <ele>2036</ele>
        <time>2014-07-15T12:30:24Z</time>
      </trkpt>
      <trkpt lat="45.6218" lon="6.53663">
        <ele>2035</ele>
        <time>2014-07-15T12:30:42Z</time>
      </trkpt>
      <trkpt lat="45.62183" lon="6.53664">
        <ele>2035</ele>
        <time>2014-07-15T12:30:46Z</time>
      </trkpt>
      <trkpt lat="45.62186" lon="6.53664">
        <ele>2034</ele>
        <time>2014-07-15T12:31:26Z</time>
      </trkpt>
      <trkpt lat="45.62205" lon="6.5367">
        <ele>2035</ele>
        <time>2014-07-15T12:31:42Z</time>
      </trkpt>
      <trkpt lat="45.62202" lon="6.53667">
        <ele>2035</ele>
        <time>2014-07-15T12:31:54Z</time>
      </trkpt>
      <trkpt lat="45.62196" lon="6.53666">
        <ele>2037</ele>
        <time>2014-07-15T12:32:05Z</time>
      </trkpt>
      <trkpt lat="45.62192" lon="6.53658">
        <ele>2074</ele>
        <time>2014-07-15T13:16:11Z</time>
      </trkpt>
      <trkpt lat="45.62192" lon="6.53658">
        <ele>2026</ele>
        <time>2014-07-15T13:16:12Z</time>
      </trkpt>
      <trkpt lat="45.62182" lon="6.53659">
        <ele>2031</ele>
        <time>2014-07-15T13:16:58Z</time>
      </trkpt>
      <trkpt lat="45.62191" lon="6.53653">
        <ele>2031</ele>
        <time>2014-07-15T13:17:20Z</time>
      </trkpt>
      <trkpt lat="45.62189" lon="6.53658">
        <ele>2031</ele>
        <time>2014-07-15T13:17:28Z</time>
      </trkpt>
      <trkpt lat="45.62184" lon="6.53665">
        <ele>2033</ele>
        <time>2014-07-15T13:17:36Z</time>
      </trkpt>
      <trkpt lat="45.62183" lon="6.53672">
        <ele>2034</ele>
        <time>2014-07-15T13:17:47Z</time>
      </trkpt>
      <trkpt lat="45.6218" lon="6.53675">
        <ele>2032</ele>
        <time>2014-07-15T13:17:53Z</time>
      </trkpt>
      <trkpt lat="45.6218" lon="6.53682">
        <ele>2032</ele>
        <time>2014-07-15T13:18:02Z</time>
      </trkpt>
      <trkpt lat="45.62181" lon="6.53689">
        <ele>2032</ele>
        <time>2014-07-15T13:18:08Z</time>
      </trkpt>
      <trkpt lat="45.6218" lon="6.53694">
        <ele>2033</ele>
        <time>2014-07-15T13:18:17Z</time>
      </trkpt>
      <trkpt lat="45.62173" lon="6.53699">
        <ele>2032</ele>
        <time>2014-07-15T13:18:26Z</time>
      </trkpt>
      <trkpt lat="45.62173" lon="6.53702">
        <ele>2032</ele>
        <time>2014-07-15T13:18:29Z</time>
      </trkpt>
      <trkpt lat="45.62171" lon="6.53704">
        <ele>2032</ele>
        <time>2014-07-15T13:18:33Z</time>
      </trkpt>
      <trkpt lat="45.62169" lon="6.53704">
        <ele>2032</ele>
        <time>2014-07-15T13:18:35Z</time>
      </trkpt>
      <trkpt lat="45.62167" lon="6.53706">
        <ele>2031</ele>
        <time>2014-07-15T13:18:37Z</time>
      </trkpt>
      <trkpt lat="45.6217" lon="6.53709">
        <ele>2031</ele>
        <time>2014-07-15T13:18:41Z</time>
      </trkpt>
      <trkpt lat="45.62172" lon="6.53709">
        <ele>2030</ele>
        <time>2014-07-15T13:18:43Z</time>
      </trkpt>
      <trkpt lat="45.62174" lon="6.53708">
        <ele>2030</ele>
        <time>2014-07-15T13:18:46Z</time>
      </trkpt>
      <trkpt lat="45.62179" lon="6.5372">
        <ele>2028</ele>
        <time>2014-07-15T13:19:02Z</time>
      </trkpt>
      <trkpt lat="45.62181" lon="6.5372">
        <ele>2029</ele>
        <time>2014-07-15T13:19:05Z</time>
      </trkpt>
      <trkpt lat="45.62177" lon="6.53737">
        <ele>2028</ele>
        <time>2014-07-15T13:19:26Z</time>
      </trkpt>
      <trkpt lat="45.62184" lon="6.53753">
        <ele>2027</ele>
        <time>2014-07-15T13:19:38Z</time>
      </trkpt>
      <trkpt lat="45.62183" lon="6.53757">
        <ele>2027</ele>
        <time>2014-07-15T13:19:42Z</time>
      </trkpt>
      <trkpt lat="45.62184" lon="6.5376">
        <ele>2027</ele>
        <time>2014-07-15T13:19:45Z</time>
      </trkpt>
      <trkpt lat="45.62183" lon="6.53763">
        <ele>2026</ele>
        <time>2014-07-15T13:19:47Z</time>
      </trkpt>
      <trkpt lat="45.62184" lon="6.53765">
        <ele>2026</ele>
        <time>2014-07-15T13:19:49Z</time>
      </trkpt>
      <trkpt lat="45.62185" lon="6.53771">
        <ele>2026</ele>
        <time>2014-07-15T13:19:54Z</time>
      </trkpt>
      <trkpt lat="45.62184" lon="6.53773">
        <ele>2026</ele>
        <time>2014-07-15T13:19:56Z</time>
      </trkpt>
      <trkpt lat="45.62186" lon="6.53783">
        <ele>2025</ele>
        <time>2014-07-15T13:20:05Z</time>
      </trkpt>
      <trkpt lat="45.62182" lon="6.53791">
        <ele>2025</ele>
        <time>2014-07-15T13:20:12Z</time>
      </trkpt>
      <trkpt lat="45.62178" lon="6.53794">
        <ele>2025</ele>
        <time>2014-07-15T13:20:16Z</time>
      </trkpt>
      <trkpt lat="45.62177" lon="6.53802">
        <ele>2025</ele>
        <time>2014-07-15T13:20:22Z</time>
      </trkpt>
      <trkpt lat="45.62181" lon="6.53836">
        <ele>2028</ele>
        <time>2014-07-15T13:20:52Z</time>
      </trkpt>
      <trkpt lat="45.62178" lon="6.53862">
        <ele>2031</ele>
        <time>2014-07-15T13:21:23Z</time>
      </trkpt>
      <trkpt lat="45.62177" lon="6.53879">
        <ele>2036</ele>
        <time>2014-07-15T13:21:51Z</time>
      </trkpt>
      <trkpt lat="45.62175" lon="6.53879">
        <ele>2036</ele>
        <time>2014-07-15T13:21:53Z</time>
      </trkpt>
      <trkpt lat="45.62173" lon="6.5388">
        <ele>2036</ele>
        <time>2014-07-15T13:21:56Z</time>
      </trkpt>
      <trkpt lat="45.6217" lon="6.53886">
        <ele>2037</ele>
        <time>2014-07-15T13:22:06Z</time>
      </trkpt>
      <trkpt lat="45.62168" lon="6.53895">
        <ele>2038</ele>
        <time>2014-07-15T13:22:17Z</time>
      </trkpt>
      <trkpt lat="45.62168" lon="6.53917">
        <ele>2041</ele>
        <time>2014-07-15T13:22:48Z</time>
      </trkpt>
      <trkpt lat="45.62168" lon="6.53919">
        <ele>2041</ele>
        <time>2014-07-15T13:22:52Z</time>
      </trkpt>
      <trkpt lat="45.62167" lon="6.53923">
        <ele>2044</ele>
        <time>2014-07-15T13:23:20Z</time>
      </trkpt>
      <trkpt lat="45.62166" lon="6.53926">
        <ele>2044</ele>
        <time>2014-07-15T13:23:23Z</time>
      </trkpt>
      <trkpt lat="45.62161" lon="6.53963">
        <ele>2048</ele>
        <time>2014-07-15T13:23:54Z</time>
      </trkpt>
      <trkpt lat="45.62162" lon="6.53975">
        <ele>2049</ele>
        <time>2014-07-15T13:24:08Z</time>
      </trkpt>
      <trkpt lat="45.62164" lon="6.53975">
        <ele>2050</ele>
        <time>2014-07-15T13:24:16Z</time>
      </trkpt>
      <trkpt lat="45.62165" lon="6.53979">
        <ele>2051</ele>
        <time>2014-07-15T13:24:24Z</time>
      </trkpt>
      <trkpt lat="45.62164" lon="6.53983">
        <ele>2051</ele>
        <time>2014-07-15T13:24:29Z</time>
      </trkpt>
      <trkpt lat="45.62166" lon="6.53988">
        <ele>2052</ele>
        <time>2014-07-15T13:24:35Z</time>
      </trkpt>
      <trkpt lat="45.62171" lon="6.53991">
        <ele>2052</ele>
        <time>2014-07-15T13:24:38Z</time>
      </trkpt>
      <trkpt lat="45.62171" lon="6.53989">
        <ele>2053</ele>
        <time>2014-07-15T13:24:40Z</time>
      </trkpt>
      <trkpt lat="45.62167" lon="6.5399">
        <ele>2054</ele>
        <time>2014-07-15T13:24:55Z</time>
      </trkpt>
      <trkpt lat="45.62163" lon="6.53997">
        <ele>2056</ele>
        <time>2014-07-15T13:25:06Z</time>
      </trkpt>
      <trkpt lat="45.62163" lon="6.54006">
        <ele>2058</ele>
        <time>2014-07-15T13:25:23Z</time>
      </trkpt>
      <trkpt lat="45.6217" lon="6.54013">
        <ele>2062</ele>
        <time>2014-07-15T13:26:01Z</time>
      </trkpt>
      <trkpt lat="45.62167" lon="6.54022">
        <ele>2063</ele>
        <time>2014-07-15T13:26:12Z</time>
      </trkpt>
      <trkpt lat="45.62169" lon="6.54054">
        <ele>2067</ele>
        <time>2014-07-15T13:26:45Z</time>
      </trkpt>
      <trkpt lat="45.6217" lon="6.54067">
        <ele>2068</ele>
        <time>2014-07-15T13:26:59Z</time>
      </trkpt>
      <trkpt lat="45.62169" lon="6.54069">
        <ele>2068</ele>
        <time>2014-07-15T13:27:01Z</time>
      </trkpt>
      <trkpt lat="45.6217" lon="6.54071">
        <ele>2072</ele>
        <time>2014-07-15T13:27:36Z</time>
      </trkpt>
      <trkpt lat="45.62169" lon="6.54073">
        <ele>2072</ele>
        <time>2014-07-15T13:27:39Z</time>
      </trkpt>
      <trkpt lat="45.62168" lon="6.54075">
        <ele>2072</ele>
        <time>2014-07-15T13:27:41Z</time>
      </trkpt>
      <trkpt lat="45.62169" lon="6.54077">
        <ele>2073</ele>
        <time>2014-07-15T13:27:43Z</time>
      </trkpt>
      <trkpt lat="45.6217" lon="6.54079">
        <ele>2073</ele>
        <time>2014-07-15T13:27:46Z</time>
      </trkpt>
      <trkpt lat="45.62171" lon="6.54081">
        <ele>2073</ele>
        <time>2014-07-15T13:27:50Z</time>
      </trkpt>
      <trkpt lat="45.62174" lon="6.54083">
        <ele>2074</ele>
        <time>2014-07-15T13:28:19Z</time>
      </trkpt>
      <trkpt lat="45.62174" lon="6.54101">
        <ele>2075</ele>
        <time>2014-07-15T13:28:41Z</time>
      </trkpt>
      <trkpt lat="45.62178" lon="6.54104">
        <ele>2076</ele>
        <time>2014-07-15T13:28:45Z</time>
      </trkpt>
      <trkpt lat="45.62177" lon="6.54107">
        <ele>2076</ele>
        <time>2014-07-15T13:28:47Z</time>
      </trkpt>
      <trkpt lat="45.62179" lon="6.5411">
        <ele>2076</ele>
        <time>2014-07-15T13:28:49Z</time>
      </trkpt>
      <trkpt lat="45.62179" lon="6.54112">
        <ele>2076</ele>
        <time>2014-07-15T13:28:51Z</time>
      </trkpt>
      <trkpt lat="45.62178" lon="6.54117">
        <ele>2076</ele>
        <time>2014-07-15T13:28:55Z</time>
      </trkpt>
      <trkpt lat="45.62179" lon="6.54119">
        <ele>2077</ele>
        <time>2014-07-15T13:29:02Z</time>
      </trkpt>
      <trkpt lat="45.62179" lon="6.54121">
        <ele>2077</ele>
        <time>2014-07-15T13:29:05Z</time>
      </trkpt>
      <trkpt lat="45.6218" lon="6.54131">
        <ele>2078</ele>
        <time>2014-07-15T13:29:16Z</time>
      </trkpt>
      <trkpt lat="45.62181" lon="6.54135">
        <ele>2078</ele>
        <time>2014-07-15T13:29:19Z</time>
      </trkpt>
      <trkpt lat="45.6218" lon="6.54138">
        <ele>2078</ele>
        <time>2014-07-15T13:29:21Z</time>
      </trkpt>
      <trkpt lat="45.62179" lon="6.54152">
        <ele>2079</ele>
        <time>2014-07-15T13:29:37Z</time>
      </trkpt>
      <trkpt lat="45.62179" lon="6.54155">
        <ele>2079</ele>
        <time>2014-07-15T13:29:39Z</time>
      </trkpt>
      <trkpt lat="45.62179" lon="6.54159">
        <ele>2080</ele>
        <time>2014-07-15T13:29:43Z</time>
      </trkpt>
      <trkpt lat="45.62179" lon="6.54162">
        <ele>2080</ele>
        <time>2014-07-15T13:29:45Z</time>
      </trkpt>
      <trkpt lat="45.62179" lon="6.5417">
        <ele>2081</ele>
        <time>2014-07-15T13:29:54Z</time>
      </trkpt>
      <trkpt lat="45.62177" lon="6.54173">
        <ele>2081</ele>
        <time>2014-07-15T13:29:56Z</time>
      </trkpt>
      <trkpt lat="45.62177" lon="6.54177">
        <ele>2081</ele>
        <time>2014-07-15T13:30:00Z</time>
      </trkpt>
      <trkpt lat="45.62176" lon="6.54178">
        <ele>2081</ele>
        <time>2014-07-15T13:30:02Z</time>
      </trkpt>
      <trkpt lat="45.62173" lon="6.54204">
        <ele>2082</ele>
        <time>2014-07-15T13:30:33Z</time>
      </trkpt>
      <trkpt lat="45.62174" lon="6.54217">
        <ele>2082</ele>
        <time>2014-07-15T13:30:45Z</time>
      </trkpt>
      <trkpt lat="45.62173" lon="6.54214">
        <ele>2082</ele>
        <time>2014-07-15T13:30:58Z</time>
      </trkpt>
      <trkpt lat="45.62171" lon="6.54213">
        <ele>2082</ele>
        <time>2014-07-15T13:31:00Z</time>
      </trkpt>
      <trkpt lat="45.6217" lon="6.54211">
        <ele>2082</ele>
        <time>2014-07-15T13:31:10Z</time>
      </trkpt>
      <trkpt lat="45.62169" lon="6.5421">
        <ele>2082</ele>
        <time>2014-07-15T13:31:13Z</time>
      </trkpt>
      <trkpt lat="45.62166" lon="6.54213">
        <ele>2083</ele>
        <time>2014-07-15T13:31:26Z</time>
      </trkpt>
      <trkpt lat="45.62166" lon="6.54219">
        <ele>2083</ele>
        <time>2014-07-15T13:31:42Z</time>
      </trkpt>
      <trkpt lat="45.62166" lon="6.54221">
        <ele>2083</ele>
        <time>2014-07-15T13:31:44Z</time>
      </trkpt>
      <trkpt lat="45.6217" lon="6.54227">
        <ele>2082</ele>
        <time>2014-07-15T13:31:58Z</time>
      </trkpt>
      <trkpt lat="45.62169" lon="6.54231">
        <ele>2082</ele>
        <time>2014-07-15T13:32:01Z</time>
      </trkpt>
      <trkpt lat="45.62167" lon="6.54248">
        <ele>2082</ele>
        <time>2014-07-15T13:32:17Z</time>
      </trkpt>
      <trkpt lat="45.62168" lon="6.5425">
        <ele>2082</ele>
        <time>2014-07-15T13:32:20Z</time>
      </trkpt>
      <trkpt lat="45.62168" lon="6.54259">
        <ele>2082</ele>
        <time>2014-07-15T13:32:30Z</time>
      </trkpt>
      <trkpt lat="45.62169" lon="6.54287">
        <ele>2082</ele>
        <time>2014-07-15T13:33:08Z</time>
      </trkpt>
      <trkpt lat="45.62169" lon="6.5429">
        <ele>2082</ele>
        <time>2014-07-15T13:33:11Z</time>
      </trkpt>
      <trkpt lat="45.62171" lon="6.54291">
        <ele>2082</ele>
        <time>2014-07-15T13:33:13Z</time>
      </trkpt>
      <trkpt lat="45.62172" lon="6.54293">
        <ele>2082</ele>
        <time>2014-07-15T13:33:16Z</time>
      </trkpt>
      <trkpt lat="45.62176" lon="6.54295">
        <ele>2081</ele>
        <time>2014-07-15T13:33:22Z</time>
      </trkpt>
      <trkpt lat="45.62177" lon="6.54301">
        <ele>2081</ele>
        <time>2014-07-15T13:33:28Z</time>
      </trkpt>
      <trkpt lat="45.62177" lon="6.54306">
        <ele>2081</ele>
        <time>2014-07-15T13:33:33Z</time>
      </trkpt>
      <trkpt lat="45.62178" lon="6.54308">
        <ele>2081</ele>
        <time>2014-07-15T13:33:37Z</time>
      </trkpt>
      <trkpt lat="45.62183" lon="6.5431">
        <ele>2081</ele>
        <time>2014-07-15T13:33:47Z</time>
      </trkpt>
      <trkpt lat="45.62182" lon="6.54312">
        <ele>2081</ele>
        <time>2014-07-15T13:33:50Z</time>
      </trkpt>
      <trkpt lat="45.62184" lon="6.54322">
        <ele>2080</ele>
        <time>2014-07-15T13:34:04Z</time>
      </trkpt>
      <trkpt lat="45.62186" lon="6.54323">
        <ele>2080</ele>
        <time>2014-07-15T13:34:07Z</time>
      </trkpt>
      <trkpt lat="45.6219" lon="6.54331">
        <ele>2080</ele>
        <time>2014-07-15T13:34:20Z</time>
      </trkpt>
      <trkpt lat="45.62193" lon="6.54333">
        <ele>2080</ele>
        <time>2014-07-15T13:34:23Z</time>
      </trkpt>
      <trkpt lat="45.62193" lon="6.54337">
        <ele>2081</ele>
        <time>2014-07-15T13:34:28Z</time>
      </trkpt>
      <trkpt lat="45.62192" lon="6.54339">
        <ele>2081</ele>
        <time>2014-07-15T13:34:31Z</time>
      </trkpt>
      <trkpt lat="45.62185" lon="6.54361">
        <ele>2084</ele>
        <time>2014-07-15T13:35:01Z</time>
      </trkpt>
      <trkpt lat="45.62186" lon="6.54386">
        <ele>2087</ele>
        <time>2014-07-15T13:35:26Z</time>
      </trkpt>
      <trkpt lat="45.62188" lon="6.54387">
        <ele>2087</ele>
        <time>2014-07-15T13:35:29Z</time>
      </trkpt>
      <trkpt lat="45.62189" lon="6.54385">
        <ele>2088</ele>
        <time>2014-07-15T13:35:32Z</time>
      </trkpt>
      <trkpt lat="45.62192" lon="6.54393">
        <ele>2091</ele>
        <time>2014-07-15T13:35:59Z</time>
      </trkpt>
      <trkpt lat="45.62187" lon="6.54424">
        <ele>2094</ele>
        <time>2014-07-15T13:36:24Z</time>
      </trkpt>
      <trkpt lat="45.62179" lon="6.54442">
        <ele>2095</ele>
        <time>2014-07-15T13:36:38Z</time>
      </trkpt>
      <trkpt lat="45.62176" lon="6.54442">
        <ele>2096</ele>
        <time>2014-07-15T13:36:41Z</time>
      </trkpt>
      <trkpt lat="45.62175" lon="6.54443">
        <ele>2096</ele>
        <time>2014-07-15T13:36:44Z</time>
      </trkpt>
      <trkpt lat="45.62173" lon="6.54447">
        <ele>2096</ele>
        <time>2014-07-15T13:36:50Z</time>
      </trkpt>
      <trkpt lat="45.62171" lon="6.54445">
        <ele>2097</ele>
        <time>2014-07-15T13:36:55Z</time>
      </trkpt>
      <trkpt lat="45.6217" lon="6.54444">
        <ele>2097</ele>
        <time>2014-07-15T13:36:58Z</time>
      </trkpt>
      <trkpt lat="45.62168" lon="6.54443">
        <ele>2097</ele>
        <time>2014-07-15T13:37:00Z</time>
      </trkpt>
      <trkpt lat="45.62167" lon="6.54442">
        <ele>2097</ele>
        <time>2014-07-15T13:37:03Z</time>
      </trkpt>
      <trkpt lat="45.62165" lon="6.54444">
        <ele>2098</ele>
        <time>2014-07-15T13:37:06Z</time>
      </trkpt>
      <trkpt lat="45.62162" lon="6.54449">
        <ele>2098</ele>
        <time>2014-07-15T13:37:11Z</time>
      </trkpt>
      <trkpt lat="45.62161" lon="6.5445">
        <ele>2098</ele>
        <time>2014-07-15T13:37:14Z</time>
      </trkpt>
      <trkpt lat="45.62158" lon="6.54457">
        <ele>2098</ele>
        <time>2014-07-15T13:37:23Z</time>
      </trkpt>
      <trkpt lat="45.62157" lon="6.54458">
        <ele>2098</ele>
        <time>2014-07-15T13:37:27Z</time>
      </trkpt>
      <trkpt lat="45.62153" lon="6.54468">
        <ele>2099</ele>
        <time>2014-07-15T13:37:37Z</time>
      </trkpt>
      <trkpt lat="45.62152" lon="6.54475">
        <ele>2099</ele>
        <time>2014-07-15T13:37:43Z</time>
      </trkpt>
      <trkpt lat="45.62156" lon="6.54486">
        <ele>2098</ele>
        <time>2014-07-15T13:38:10Z</time>
      </trkpt>
      <trkpt lat="45.62156" lon="6.54489">
        <ele>2098</ele>
        <time>2014-07-15T13:38:16Z</time>
      </trkpt>
      <trkpt lat="45.62154" lon="6.54494">
        <ele>2098</ele>
        <time>2014-07-15T13:38:31Z</time>
      </trkpt>
      <trkpt lat="45.62154" lon="6.54497">
        <ele>2098</ele>
        <time>2014-07-15T13:38:35Z</time>
      </trkpt>
      <trkpt lat="45.62158" lon="6.54504">
        <ele>2098</ele>
        <time>2014-07-15T13:38:48Z</time>
      </trkpt>
      <trkpt lat="45.62157" lon="6.54515">
        <ele>2096</ele>
        <time>2014-07-15T13:39:28Z</time>
      </trkpt>
      <trkpt lat="45.62159" lon="6.54516">
        <ele>2096</ele>
        <time>2014-07-15T13:39:30Z</time>
      </trkpt>
      <trkpt lat="45.62162" lon="6.54517">
        <ele>2096</ele>
        <time>2014-07-15T13:39:32Z</time>
      </trkpt>
      <trkpt lat="45.62164" lon="6.5452">
        <ele>2096</ele>
        <time>2014-07-15T13:39:37Z</time>
      </trkpt>
      <trkpt lat="45.62176" lon="6.54546">
        <ele>2097</ele>
        <time>2014-07-15T13:40:09Z</time>
      </trkpt>
      <trkpt lat="45.62177" lon="6.54558">
        <ele>2097</ele>
        <time>2014-07-15T13:40:20Z</time>
      </trkpt>
      <trkpt lat="45.62181" lon="6.54561">
        <ele>2097</ele>
        <time>2014-07-15T13:40:25Z</time>
      </trkpt>
      <trkpt lat="45.6218" lon="6.5456">
        <ele>2097</ele>
        <time>2014-07-15T13:40:28Z</time>
      </trkpt>
      <trkpt lat="45.62182" lon="6.54564">
        <ele>2096</ele>
        <time>2014-07-15T13:41:38Z</time>
      </trkpt>
      <trkpt lat="45.62183" lon="6.54568">
        <ele>2096</ele>
        <time>2014-07-15T13:41:42Z</time>
      </trkpt>
      <trkpt lat="45.62191" lon="6.54577">
        <ele>2095</ele>
        <time>2014-07-15T13:41:57Z</time>
      </trkpt>
      <trkpt lat="45.62191" lon="6.5458">
        <ele>2095</ele>
        <time>2014-07-15T13:41:59Z</time>
      </trkpt>
      <trkpt lat="45.62194" lon="6.54583">
        <ele>2096</ele>
        <time>2014-07-15T13:42:16Z</time>
      </trkpt>
      <trkpt lat="45.622" lon="6.54593">
        <ele>2095</ele>
        <time>2014-07-15T13:42:27Z</time>
      </trkpt>
      <trkpt lat="45.62206" lon="6.54595">
        <ele>2095</ele>
        <time>2014-07-15T13:42:35Z</time>
      </trkpt>
      <trkpt lat="45.62206" lon="6.54601">
        <ele>2095</ele>
        <time>2014-07-15T13:42:50Z</time>
      </trkpt>
      <trkpt lat="45.62204" lon="6.54604">
        <ele>2095</ele>
        <time>2014-07-15T13:42:54Z</time>
      </trkpt>
      <trkpt lat="45.62202" lon="6.5461">
        <ele>2095</ele>
        <time>2014-07-15T13:42:58Z</time>
      </trkpt>
      <trkpt lat="45.622" lon="6.54613">
        <ele>2095</ele>
        <time>2014-07-15T13:43:03Z</time>
      </trkpt>
      <trkpt lat="45.62197" lon="6.54614">
        <ele>2095</ele>
        <time>2014-07-15T13:43:15Z</time>
      </trkpt>
      <trkpt lat="45.62197" lon="6.54622">
        <ele>2095</ele>
        <time>2014-07-15T13:43:25Z</time>
      </trkpt>
      <trkpt lat="45.62196" lon="6.54626">
        <ele>2095</ele>
        <time>2014-07-15T13:43:30Z</time>
      </trkpt>
      <trkpt lat="45.62194" lon="6.54627">
        <ele>2095</ele>
        <time>2014-07-15T13:43:33Z</time>
      </trkpt>
      <trkpt lat="45.62196" lon="6.54624">
        <ele>2097</ele>
        <time>2014-07-15T13:45:00Z</time>
      </trkpt>
      <trkpt lat="45.62195" lon="6.54624">
        <ele>2097</ele>
        <time>2014-07-15T13:45:30Z</time>
      </trkpt>
      <trkpt lat="45.62193" lon="6.54629">
        <ele>2098</ele>
        <time>2014-07-15T13:46:36Z</time>
      </trkpt>
      <trkpt lat="45.62193" lon="6.54631">
        <ele>2097</ele>
        <time>2014-07-15T13:46:38Z</time>
      </trkpt>
      <trkpt lat="45.62195" lon="6.54646">
        <ele>2097</ele>
        <time>2014-07-15T13:46:54Z</time>
      </trkpt>
      <trkpt lat="45.62196" lon="6.54648">
        <ele>2097</ele>
        <time>2014-07-15T13:46:56Z</time>
      </trkpt>
      <trkpt lat="45.62197" lon="6.54651">
        <ele>2097</ele>
        <time>2014-07-15T13:46:58Z</time>
      </trkpt>
      <trkpt lat="45.62204" lon="6.54657">
        <ele>2096</ele>
        <time>2014-07-15T13:47:03Z</time>
      </trkpt>
      <trkpt lat="45.62205" lon="6.5466">
        <ele>2096</ele>
        <time>2014-07-15T13:47:05Z</time>
      </trkpt>
      <trkpt lat="45.62207" lon="6.54661">
        <ele>2096</ele>
        <time>2014-07-15T13:47:08Z</time>
      </trkpt>
      <trkpt lat="45.6221" lon="6.54664">
        <ele>2096</ele>
        <time>2014-07-15T13:47:15Z</time>
      </trkpt>
      <trkpt lat="45.62206" lon="6.5469">
        <ele>2094</ele>
        <time>2014-07-15T13:48:31Z</time>
      </trkpt>
      <trkpt lat="45.6221" lon="6.54698">
        <ele>2093</ele>
        <time>2014-07-15T13:49:20Z</time>
      </trkpt>
      <trkpt lat="45.62216" lon="6.54709">
        <ele>2092</ele>
        <time>2014-07-15T13:49:39Z</time>
      </trkpt>
      <trkpt lat="45.62214" lon="6.54712">
        <ele>2092</ele>
        <time>2014-07-15T13:49:43Z</time>
      </trkpt>
      <trkpt lat="45.62212" lon="6.54723">
        <ele>2091</ele>
        <time>2014-07-15T13:49:55Z</time>
      </trkpt>
      <trkpt lat="45.62214" lon="6.54729">
        <ele>2090</ele>
        <time>2014-07-15T13:50:02Z</time>
      </trkpt>
      <trkpt lat="45.62212" lon="6.54732">
        <ele>2089</ele>
        <time>2014-07-15T13:50:06Z</time>
      </trkpt>
      <trkpt lat="45.62215" lon="6.54745">
        <ele>2087</ele>
        <time>2014-07-15T13:50:47Z</time>
      </trkpt>
      <trkpt lat="45.62217" lon="6.54745">
        <ele>2087</ele>
        <time>2014-07-15T13:50:50Z</time>
      </trkpt>
      <trkpt lat="45.62219" lon="6.54756">
        <ele>2086</ele>
        <time>2014-07-15T13:51:07Z</time>
      </trkpt>
      <trkpt lat="45.62218" lon="6.54758">
        <ele>2086</ele>
        <time>2014-07-15T13:51:09Z</time>
      </trkpt>
      <trkpt lat="45.62221" lon="6.54761">
        <ele>2086</ele>
        <time>2014-07-15T13:51:12Z</time>
      </trkpt>
      <trkpt lat="45.62228" lon="6.54807">
        <ele>2085</ele>
        <time>2014-07-15T13:51:42Z</time>
      </trkpt>
      <trkpt lat="45.62228" lon="6.54811">
        <ele>2085</ele>
        <time>2014-07-15T13:51:45Z</time>
      </trkpt>
      <trkpt lat="45.62227" lon="6.54813">
        <ele>2085</ele>
        <time>2014-07-15T13:51:46Z</time>
      </trkpt>
      <trkpt lat="45.62229" lon="6.54832">
        <ele>2084</ele>
        <time>2014-07-15T13:52:00Z</time>
      </trkpt>
      <trkpt lat="45.62231" lon="6.54832">
        <ele>2084</ele>
        <time>2014-07-15T13:52:02Z</time>
      </trkpt>
      <trkpt lat="45.62238" lon="6.54843">
        <ele>2081</ele>
        <time>2014-07-15T13:52:22Z</time>
      </trkpt>
      <trkpt lat="45.62238" lon="6.54847">
        <ele>2081</ele>
        <time>2014-07-15T13:52:25Z</time>
      </trkpt>
      <trkpt lat="45.62258" lon="6.54867">
        <ele>2079</ele>
        <time>2014-07-15T13:52:48Z</time>
      </trkpt>
      <trkpt lat="45.62262" lon="6.54868">
        <ele>2079</ele>
        <time>2014-07-15T13:52:53Z</time>
      </trkpt>
      <trkpt lat="45.62263" lon="6.5487">
        <ele>2079</ele>
        <time>2014-07-15T13:52:56Z</time>
      </trkpt>
      <trkpt lat="45.62263" lon="6.54874">
        <ele>2078</ele>
        <time>2014-07-15T13:53:04Z</time>
      </trkpt>
      <trkpt lat="45.62261" lon="6.54894">
        <ele>2078</ele>
        <time>2014-07-15T13:53:16Z</time>
      </trkpt>
      <trkpt lat="45.62262" lon="6.54897">
        <ele>2077</ele>
        <time>2014-07-15T13:53:19Z</time>
      </trkpt>
      <trkpt lat="45.62265" lon="6.54898">
        <ele>2077</ele>
        <time>2014-07-15T13:53:20Z</time>
      </trkpt>
      <trkpt lat="45.62267" lon="6.54909">
        <ele>2077</ele>
        <time>2014-07-15T13:53:28Z</time>
      </trkpt>
      <trkpt lat="45.62268" lon="6.54911">
        <ele>2076</ele>
        <time>2014-07-15T13:53:31Z</time>
      </trkpt>
      <trkpt lat="45.62269" lon="6.54918">
        <ele>2076</ele>
        <time>2014-07-15T13:53:39Z</time>
      </trkpt>
      <trkpt lat="45.62271" lon="6.54927">
        <ele>2076</ele>
        <time>2014-07-15T13:53:48Z</time>
      </trkpt>
      <trkpt lat="45.62279" lon="6.54933">
        <ele>2075</ele>
        <time>2014-07-15T13:54:02Z</time>
      </trkpt>
      <trkpt lat="45.62279" lon="6.54935">
        <ele>2075</ele>
        <time>2014-07-15T13:54:04Z</time>
      </trkpt>
      <trkpt lat="45.62279" lon="6.54938">
        <ele>2075</ele>
        <time>2014-07-15T13:54:06Z</time>
      </trkpt>
      <trkpt lat="45.62281" lon="6.5494">
        <ele>2074</ele>
        <time>2014-07-15T13:54:10Z</time>
      </trkpt>
      <trkpt lat="45.62283" lon="6.54941">
        <ele>2074</ele>
        <time>2014-07-15T13:54:13Z</time>
      </trkpt>
      <trkpt lat="45.62284" lon="6.54943">
        <ele>2074</ele>
        <time>2014-07-15T13:54:17Z</time>
      </trkpt>
      <trkpt lat="45.62288" lon="6.54949">
        <ele>2074</ele>
        <time>2014-07-15T13:54:26Z</time>
      </trkpt>
      <trkpt lat="45.62289" lon="6.54953">
        <ele>2074</ele>
        <time>2014-07-15T13:54:31Z</time>
      </trkpt>
      <trkpt lat="45.62292" lon="6.54957">
        <ele>2074</ele>
        <time>2014-07-15T13:54:38Z</time>
      </trkpt>
      <trkpt lat="45.62293" lon="6.5496">
        <ele>2074</ele>
        <time>2014-07-15T13:54:41Z</time>
      </trkpt>
      <trkpt lat="45.62291" lon="6.54965">
        <ele>2074</ele>
        <time>2014-07-15T13:54:48Z</time>
      </trkpt>
      <trkpt lat="45.62294" lon="6.54968">
        <ele>2074</ele>
        <time>2014-07-15T13:54:54Z</time>
      </trkpt>
      <trkpt lat="45.62293" lon="6.54971">
        <ele>2073</ele>
        <time>2014-07-15T13:55:09Z</time>
      </trkpt>
      <trkpt lat="45.62294" lon="6.54978">
        <ele>2073</ele>
        <time>2014-07-15T13:55:14Z</time>
      </trkpt>
      <trkpt lat="45.62296" lon="6.54981">
        <ele>2073</ele>
        <time>2014-07-15T13:55:16Z</time>
      </trkpt>
      <trkpt lat="45.62296" lon="6.54984">
        <ele>2073</ele>
        <time>2014-07-15T13:55:18Z</time>
      </trkpt>
      <trkpt lat="45.62304" lon="6.55012">
        <ele>2074</ele>
        <time>2014-07-15T13:55:50Z</time>
      </trkpt>
      <trkpt lat="45.62303" lon="6.5502">
        <ele>2075</ele>
        <time>2014-07-15T13:55:56Z</time>
      </trkpt>
      <trkpt lat="45.62305" lon="6.5502">
        <ele>2075</ele>
        <time>2014-07-15T13:55:57Z</time>
      </trkpt>
      <trkpt lat="45.62306" lon="6.55022">
        <ele>2075</ele>
        <time>2014-07-15T13:55:59Z</time>
      </trkpt>
      <trkpt lat="45.62307" lon="6.55028">
        <ele>2074</ele>
        <time>2014-07-15T13:56:03Z</time>
      </trkpt>
      <trkpt lat="45.62308" lon="6.55032">
        <ele>2074</ele>
        <time>2014-07-15T13:56:10Z</time>
      </trkpt>
      <trkpt lat="45.62306" lon="6.55065">
        <ele>2074</ele>
        <time>2014-07-15T13:56:41Z</time>
      </trkpt>
      <trkpt lat="45.62307" lon="6.5507">
        <ele>2074</ele>
        <time>2014-07-15T13:56:46Z</time>
      </trkpt>
      <trkpt lat="45.6231" lon="6.55071">
        <ele>2074</ele>
        <time>2014-07-15T13:56:48Z</time>
      </trkpt>
      <trkpt lat="45.62311" lon="6.55074">
        <ele>2074</ele>
        <time>2014-07-15T13:56:52Z</time>
      </trkpt>
      <trkpt lat="45.6232" lon="6.55079">
        <ele>2075</ele>
        <time>2014-07-15T13:57:08Z</time>
      </trkpt>
      <trkpt lat="45.62319" lon="6.55081">
        <ele>2075</ele>
        <time>2014-07-15T13:57:10Z</time>
      </trkpt>
      <trkpt lat="45.62321" lon="6.55087">
        <ele>2076</ele>
        <time>2014-07-15T13:57:30Z</time>
      </trkpt>
      <trkpt lat="45.62324" lon="6.55086">
        <ele>2076</ele>
        <time>2014-07-15T13:57:39Z</time>
      </trkpt>
      <trkpt lat="45.62325" lon="6.55093">
        <ele>2077</ele>
        <time>2014-07-15T13:57:49Z</time>
      </trkpt>
      <trkpt lat="45.62324" lon="6.55095">
        <ele>2077</ele>
        <time>2014-07-15T13:57:51Z</time>
      </trkpt>
      <trkpt lat="45.62323" lon="6.55097">
        <ele>2077</ele>
        <time>2014-07-15T13:57:54Z</time>
      </trkpt>
      <trkpt lat="45.62323" lon="6.55103">
        <ele>2077</ele>
        <time>2014-07-15T13:58:06Z</time>
      </trkpt>
      <trkpt lat="45.62324" lon="6.55105">
        <ele>2077</ele>
        <time>2014-07-15T13:58:08Z</time>
      </trkpt>
      <trkpt lat="45.62329" lon="6.55112">
        <ele>2076</ele>
        <time>2014-07-15T13:58:23Z</time>
      </trkpt>
      <trkpt lat="45.62329" lon="6.55115">
        <ele>2076</ele>
        <time>2014-07-15T13:58:30Z</time>
      </trkpt>
      <trkpt lat="45.62335" lon="6.55122">
        <ele>2077</ele>
        <time>2014-07-15T13:58:41Z</time>
      </trkpt>
      <trkpt lat="45.62339" lon="6.55138">
        <ele>2076</ele>
        <time>2014-07-15T13:59:12Z</time>
      </trkpt>
      <trkpt lat="45.62347" lon="6.55156">
        <ele>2076</ele>
        <time>2014-07-15T13:59:44Z</time>
      </trkpt>
      <trkpt lat="45.62348" lon="6.55157">
        <ele>2076</ele>
        <time>2014-07-15T13:59:47Z</time>
      </trkpt>
      <trkpt lat="45.62352" lon="6.55159">
        <ele>2077</ele>
        <time>2014-07-15T13:59:54Z</time>
      </trkpt>
      <trkpt lat="45.62354" lon="6.55156">
        <ele>2077</ele>
        <time>2014-07-15T14:00:03Z</time>
      </trkpt>
      <trkpt lat="45.62362" lon="6.55179">
        <ele>2078</ele>
        <time>2014-07-15T14:00:52Z</time>
      </trkpt>
      <trkpt lat="45.62378" lon="6.55205">
        <ele>2077</ele>
        <time>2014-07-15T14:01:24Z</time>
      </trkpt>
      <trkpt lat="45.62387" lon="6.55219">
        <ele>2077</ele>
        <time>2014-07-15T14:01:54Z</time>
      </trkpt>
      <trkpt lat="45.62392" lon="6.55223">
        <ele>2077</ele>
        <time>2014-07-15T14:02:06Z</time>
      </trkpt>
      <trkpt lat="45.624" lon="6.55249">
        <ele>2074</ele>
        <time>2014-07-15T14:02:38Z</time>
      </trkpt>
      <trkpt lat="45.624" lon="6.55255">
        <ele>2074</ele>
        <time>2014-07-15T14:02:42Z</time>
      </trkpt>
      <trkpt lat="45.62398" lon="6.55258">
        <ele>2074</ele>
        <time>2014-07-15T14:02:46Z</time>
      </trkpt>
      <trkpt lat="45.62399" lon="6.55263">
        <ele>2073</ele>
        <time>2014-07-15T14:02:50Z</time>
      </trkpt>
      <trkpt lat="45.62413" lon="6.55303">
        <ele>2069</ele>
        <time>2014-07-15T14:03:21Z</time>
      </trkpt>
      <trkpt lat="45.62423" lon="6.55338">
        <ele>2067</ele>
        <time>2014-07-15T14:03:53Z</time>
      </trkpt>
      <trkpt lat="45.62426" lon="6.55346">
        <ele>2067</ele>
        <time>2014-07-15T14:04:30Z</time>
      </trkpt>
      <trkpt lat="45.62425" lon="6.55348">
        <ele>2067</ele>
        <time>2014-07-15T14:04:33Z</time>
      </trkpt>
      <trkpt lat="45.62426" lon="6.55355">
        <ele>2067</ele>
        <time>2014-07-15T14:04:39Z</time>
      </trkpt>
      <trkpt lat="45.62426" lon="6.5536">
        <ele>2068</ele>
        <time>2014-07-15T14:04:44Z</time>
      </trkpt>
      <trkpt lat="45.62427" lon="6.55363">
        <ele>2068</ele>
        <time>2014-07-15T14:04:46Z</time>
      </trkpt>
      <trkpt lat="45.62435" lon="6.55409">
        <ele>2068</ele>
        <time>2014-07-15T14:05:17Z</time>
      </trkpt>
      <trkpt lat="45.62435" lon="6.5542">
        <ele>2068</ele>
        <time>2014-07-15T14:05:35Z</time>
      </trkpt>
      <trkpt lat="45.62434" lon="6.55422">
        <ele>2068</ele>
        <time>2014-07-15T14:05:37Z</time>
      </trkpt>
      <trkpt lat="45.62438" lon="6.55433">
        <ele>2068</ele>
        <time>2014-07-15T14:05:47Z</time>
      </trkpt>
      <trkpt lat="45.6244" lon="6.55434">
        <ele>2068</ele>
        <time>2014-07-15T14:05:48Z</time>
      </trkpt>
      <trkpt lat="45.62443" lon="6.55439">
        <ele>2068</ele>
        <time>2014-07-15T14:05:53Z</time>
      </trkpt>
      <trkpt lat="45.62443" lon="6.55436">
        <ele>2068</ele>
        <time>2014-07-15T14:05:56Z</time>
      </trkpt>
      <trkpt lat="45.6244" lon="6.55444">
        <ele>2068</ele>
        <time>2014-07-15T14:06:15Z</time>
      </trkpt>
      <trkpt lat="45.62442" lon="6.55452">
        <ele>2068</ele>
        <time>2014-07-15T14:06:27Z</time>
      </trkpt>
      <trkpt lat="45.62454" lon="6.55459">
        <ele>2068</ele>
        <time>2014-07-15T14:06:41Z</time>
      </trkpt>
      <trkpt lat="45.62462" lon="6.55461">
        <ele>2068</ele>
        <time>2014-07-15T14:06:51Z</time>
      </trkpt>
      <trkpt lat="45.62464" lon="6.5546">
        <ele>2067</ele>
        <time>2014-07-15T14:07:01Z</time>
      </trkpt>
      <trkpt lat="45.62468" lon="6.55462">
        <ele>2067</ele>
        <time>2014-07-15T14:07:07Z</time>
      </trkpt>
      <trkpt lat="45.62473" lon="6.55468">
        <ele>2067</ele>
        <time>2014-07-15T14:07:13Z</time>
      </trkpt>
      <trkpt lat="45.62474" lon="6.55475">
        <ele>2066</ele>
        <time>2014-07-15T14:07:19Z</time>
      </trkpt>
      <trkpt lat="45.62491" lon="6.55493">
        <ele>2064</ele>
        <time>2014-07-15T14:07:50Z</time>
      </trkpt>
      <trkpt lat="45.62493" lon="6.55496">
        <ele>2064</ele>
        <time>2014-07-15T14:07:53Z</time>
      </trkpt>
      <trkpt lat="45.62494" lon="6.555">
        <ele>2063</ele>
        <time>2014-07-15T14:07:59Z</time>
      </trkpt>
      <trkpt lat="45.62508" lon="6.55523">
        <ele>2060</ele>
        <time>2014-07-15T14:08:29Z</time>
      </trkpt>
      <trkpt lat="45.62512" lon="6.55527">
        <ele>2059</ele>
        <time>2014-07-15T14:08:35Z</time>
      </trkpt>
      <trkpt lat="45.62513" lon="6.55529">
        <ele>2059</ele>
        <time>2014-07-15T14:08:38Z</time>
      </trkpt>
      <trkpt lat="45.6252" lon="6.55536">
        <ele>2057</ele>
        <time>2014-07-15T14:08:48Z</time>
      </trkpt>
      <trkpt lat="45.62532" lon="6.55555">
        <ele>2053</ele>
        <time>2014-07-15T14:09:18Z</time>
      </trkpt>
      <trkpt lat="45.62537" lon="6.55562">
        <ele>2052</ele>
        <time>2014-07-15T14:09:28Z</time>
      </trkpt>
      <trkpt lat="45.6256" lon="6.55582">
        <ele>2047</ele>
        <time>2014-07-15T14:09:59Z</time>
      </trkpt>
      <trkpt lat="45.62573" lon="6.55599">
        <ele>2044</ele>
        <time>2014-07-15T14:10:19Z</time>
      </trkpt>
      <trkpt lat="45.62574" lon="6.55602">
        <ele>2041</ele>
        <time>2014-07-15T14:10:35Z</time>
      </trkpt>
      <trkpt lat="45.62596" lon="6.55625">
        <ele>2038</ele>
        <time>2014-07-15T14:11:05Z</time>
      </trkpt>
      <trkpt lat="45.62619" lon="6.55641">
        <ele>2033</ele>
        <time>2014-07-15T14:11:36Z</time>
      </trkpt>
      <trkpt lat="45.62638" lon="6.5566">
        <ele>2028</ele>
        <time>2014-07-15T14:12:08Z</time>
      </trkpt>
      <trkpt lat="45.62638" lon="6.55662">
        <ele>2028</ele>
        <time>2014-07-15T14:12:12Z</time>
      </trkpt>
      <trkpt lat="45.62642" lon="6.55665">
        <ele>2027</ele>
        <time>2014-07-15T14:12:17Z</time>
      </trkpt>
      <trkpt lat="45.62653" lon="6.55681">
        <ele>2022</ele>
        <time>2014-07-15T14:12:37Z</time>
      </trkpt>
      <trkpt lat="45.62652" lon="6.55684">
        <ele>2022</ele>
        <time>2014-07-15T14:12:41Z</time>
      </trkpt>
      <trkpt lat="45.62655" lon="6.55686">
        <ele>2021</ele>
        <time>2014-07-15T14:12:44Z</time>
      </trkpt>
      <trkpt lat="45.62656" lon="6.55686">
        <ele>2020</ele>
        <time>2014-07-15T14:12:47Z</time>
      </trkpt>
      <trkpt lat="45.62657" lon="6.55688">
        <ele>2020</ele>
        <time>2014-07-15T14:12:49Z</time>
      </trkpt>
      <trkpt lat="45.62673" lon="6.55709">
        <ele>2014</ele>
        <time>2014-07-15T14:13:19Z</time>
      </trkpt>
      <trkpt lat="45.62675" lon="6.5571">
        <ele>2013</ele>
        <time>2014-07-15T14:13:22Z</time>
      </trkpt>
      <trkpt lat="45.62676" lon="6.55713">
        <ele>2013</ele>
        <time>2014-07-15T14:13:25Z</time>
      </trkpt>
      <trkpt lat="45.62692" lon="6.55715">
        <ele>2009</ele>
        <time>2014-07-15T14:13:55Z</time>
      </trkpt>
      <trkpt lat="45.62697" lon="6.55716">
        <ele>2009</ele>
        <time>2014-07-15T14:14:00Z</time>
      </trkpt>
      <trkpt lat="45.62699" lon="6.55715">
        <ele>2009</ele>
        <time>2014-07-15T14:14:03Z</time>
      </trkpt>
      <trkpt lat="45.62701" lon="6.55723">
        <ele>2008</ele>
        <time>2014-07-15T14:14:13Z</time>
      </trkpt>
      <trkpt lat="45.62699" lon="6.55728">
        <ele>2008</ele>
        <time>2014-07-15T14:14:19Z</time>
      </trkpt>
      <trkpt lat="45.62697" lon="6.55731">
        <ele>2008</ele>
        <time>2014-07-15T14:14:22Z</time>
      </trkpt>
      <trkpt lat="45.62693" lon="6.55734">
        <ele>2007</ele>
        <time>2014-07-15T14:14:26Z</time>
      </trkpt>
      <trkpt lat="45.62693" lon="6.55738">
        <ele>2007</ele>
        <time>2014-07-15T14:14:29Z</time>
      </trkpt>
      <trkpt lat="45.62694" lon="6.55741">
        <ele>2006</ele>
        <time>2014-07-15T14:14:31Z</time>
      </trkpt>
      <trkpt lat="45.62695" lon="6.55754">
        <ele>2005</ele>
        <time>2014-07-15T14:14:42Z</time>
      </trkpt>
      <trkpt lat="45.62688" lon="6.55753">
        <ele>2004</ele>
        <time>2014-07-15T14:14:44Z</time>
      </trkpt>
      <trkpt lat="45.62686" lon="6.55755">
        <ele>2003</ele>
        <time>2014-07-15T14:14:48Z</time>
      </trkpt>
      <trkpt lat="45.62689" lon="6.55764">
        <ele>2001</ele>
        <time>2014-07-15T14:14:58Z</time>
      </trkpt>
      <trkpt lat="45.62694" lon="6.55769">
        <ele>2000</ele>
        <time>2014-07-15T14:15:05Z</time>
      </trkpt>
      <trkpt lat="45.627" lon="6.55775">
        <ele>1999</ele>
        <time>2014-07-15T14:15:13Z</time>
      </trkpt>
      <trkpt lat="45.62706" lon="6.55772">
        <ele>1996</ele>
        <time>2014-07-15T14:15:47Z</time>
      </trkpt>
      <trkpt lat="45.62708" lon="6.55778">
        <ele>1994</ele>
        <time>2014-07-15T14:15:59Z</time>
      </trkpt>
      <trkpt lat="45.62712" lon="6.5578">
        <ele>1993</ele>
        <time>2014-07-15T14:16:04Z</time>
      </trkpt>
      <trkpt lat="45.62703" lon="6.55782">
        <ele>1988</ele>
        <time>2014-07-15T14:17:00Z</time>
      </trkpt>
      <trkpt lat="45.62701" lon="6.55782">
        <ele>1988</ele>
        <time>2014-07-15T14:17:03Z</time>
      </trkpt>
      <trkpt lat="45.62696" lon="6.55788">
        <ele>1987</ele>
        <time>2014-07-15T14:17:06Z</time>
      </trkpt>
      <trkpt lat="45.62704" lon="6.55778">
        <ele>1986</ele>
        <time>2014-07-15T14:17:27Z</time>
      </trkpt>
      <trkpt lat="45.62712" lon="6.55784">
        <ele>1986</ele>
        <time>2014-07-15T14:18:12Z</time>
      </trkpt>
      <trkpt lat="45.62714" lon="6.55789">
        <ele>1986</ele>
        <time>2014-07-15T14:18:20Z</time>
      </trkpt>
      <trkpt lat="45.62713" lon="6.558">
        <ele>1986</ele>
        <time>2014-07-15T14:18:31Z</time>
      </trkpt>
      <trkpt lat="45.62715" lon="6.55805">
        <ele>1985</ele>
        <time>2014-07-15T14:18:42Z</time>
      </trkpt>
      <trkpt lat="45.62719" lon="6.55807">
        <ele>1984</ele>
        <time>2014-07-15T14:18:47Z</time>
      </trkpt>
      <trkpt lat="45.62721" lon="6.55806">
        <ele>1984</ele>
        <time>2014-07-15T14:18:50Z</time>
      </trkpt>
      <trkpt lat="45.62722" lon="6.55807">
        <ele>1984</ele>
        <time>2014-07-15T14:18:52Z</time>
      </trkpt>
      <trkpt lat="45.62723" lon="6.55809">
        <ele>1984</ele>
        <time>2014-07-15T14:18:54Z</time>
      </trkpt>
      <trkpt lat="45.62724" lon="6.55815">
        <ele>1983</ele>
        <time>2014-07-15T14:19:03Z</time>
      </trkpt>
      <trkpt lat="45.62727" lon="6.55817">
        <ele>1983</ele>
        <time>2014-07-15T14:19:05Z</time>
      </trkpt>
      <trkpt lat="45.62736" lon="6.55827">
        <ele>1982</ele>
        <time>2014-07-15T14:19:18Z</time>
      </trkpt>
      <trkpt lat="45.62741" lon="6.55842">
        <ele>1980</ele>
        <time>2014-07-15T14:19:31Z</time>
      </trkpt>
      <trkpt lat="45.62738" lon="6.55848">
        <ele>1980</ele>
        <time>2014-07-15T14:19:34Z</time>
      </trkpt>
      <trkpt lat="45.62755" lon="6.55871">
        <ele>1978</ele>
        <time>2014-07-15T14:19:54Z</time>
      </trkpt>
      <trkpt lat="45.62755" lon="6.55875">
        <ele>1978</ele>
        <time>2014-07-15T14:19:58Z</time>
      </trkpt>
      <trkpt lat="45.62759" lon="6.55879">
        <ele>1977</ele>
        <time>2014-07-15T14:20:01Z</time>
      </trkpt>
      <trkpt lat="45.6277" lon="6.55898">
        <ele>1975</ele>
        <time>2014-07-15T14:20:24Z</time>
      </trkpt>
      <trkpt lat="45.62776" lon="6.55899">
        <ele>1972</ele>
        <time>2014-07-15T14:20:31Z</time>
      </trkpt>
      <trkpt lat="45.6279" lon="6.55923">
        <ele>1968</ele>
        <time>2014-07-15T14:21:01Z</time>
      </trkpt>
      <trkpt lat="45.62793" lon="6.55929">
        <ele>1968</ele>
        <time>2014-07-15T14:21:07Z</time>
      </trkpt>
      <trkpt lat="45.62793" lon="6.55932">
        <ele>1968</ele>
        <time>2014-07-15T14:21:09Z</time>
      </trkpt>
      <trkpt lat="45.62805" lon="6.55957">
        <ele>1963</ele>
        <time>2014-07-15T14:21:38Z</time>
      </trkpt>
      <trkpt lat="45.62804" lon="6.5596">
        <ele>1962</ele>
        <time>2014-07-15T14:21:44Z</time>
      </trkpt>
      <trkpt lat="45.62822" lon="6.5597">
        <ele>1958</ele>
        <time>2014-07-15T14:22:14Z</time>
      </trkpt>
      <trkpt lat="45.62825" lon="6.55974">
        <ele>1958</ele>
        <time>2014-07-15T14:22:19Z</time>
      </trkpt>
      <trkpt lat="45.62851" lon="6.5598">
        <ele>1951</ele>
        <time>2014-07-15T14:22:53Z</time>
      </trkpt>
      <trkpt lat="45.62855" lon="6.55981">
        <ele>1950</ele>
        <time>2014-07-15T14:23:02Z</time>
      </trkpt>
      <trkpt lat="45.62858" lon="6.55979">
        <ele>1948</ele>
        <time>2014-07-15T14:23:05Z</time>
      </trkpt>
      <trkpt lat="45.62859" lon="6.55981">
        <ele>1948</ele>
        <time>2014-07-15T14:23:07Z</time>
      </trkpt>
      <trkpt lat="45.62863" lon="6.55981">
        <ele>1946</ele>
        <time>2014-07-15T14:23:11Z</time>
      </trkpt>
      <trkpt lat="45.62866" lon="6.5598">
        <ele>1944</ele>
        <time>2014-07-15T14:23:14Z</time>
      </trkpt>
      <trkpt lat="45.62878" lon="6.55993">
        <ele>1940</ele>
        <time>2014-07-15T14:23:27Z</time>
      </trkpt>
      <trkpt lat="45.62885" lon="6.56004">
        <ele>1936</ele>
        <time>2014-07-15T14:23:39Z</time>
      </trkpt>
      <trkpt lat="45.62895" lon="6.56006">
        <ele>1931</ele>
        <time>2014-07-15T14:23:52Z</time>
      </trkpt>
      <trkpt lat="45.62898" lon="6.56008">
        <ele>1927</ele>
        <time>2014-07-15T14:24:06Z</time>
      </trkpt>
      <trkpt lat="45.62902" lon="6.56006">
        <ele>1924</ele>
        <time>2014-07-15T14:24:11Z</time>
      </trkpt>
      <trkpt lat="45.62904" lon="6.56006">
        <ele>1923</ele>
        <time>2014-07-15T14:24:13Z</time>
      </trkpt>
      <trkpt lat="45.62907" lon="6.56006">
        <ele>1921</ele>
        <time>2014-07-15T14:24:17Z</time>
      </trkpt>
      <trkpt lat="45.62914" lon="6.56014">
        <ele>1918</ele>
        <time>2014-07-15T14:24:25Z</time>
      </trkpt>
      <trkpt lat="45.6293" lon="6.56042">
        <ele>1911</ele>
        <time>2014-07-15T14:24:48Z</time>
      </trkpt>
      <trkpt lat="45.62928" lon="6.56051">
        <ele>1908</ele>
        <time>2014-07-15T14:24:58Z</time>
      </trkpt>
      <trkpt lat="45.62929" lon="6.56052">
        <ele>1907</ele>
        <time>2014-07-15T14:25:00Z</time>
      </trkpt>
      <trkpt lat="45.62936" lon="6.56054">
        <ele>1906</ele>
        <time>2014-07-15T14:25:05Z</time>
      </trkpt>
      <trkpt lat="45.6294" lon="6.56055">
        <ele>1904</ele>
        <time>2014-07-15T14:25:12Z</time>
      </trkpt>
      <trkpt lat="45.62948" lon="6.56067">
        <ele>1899</ele>
        <time>2014-07-15T14:25:26Z</time>
      </trkpt>
      <trkpt lat="45.62961" lon="6.56081">
        <ele>1892</ele>
        <time>2014-07-15T14:25:57Z</time>
      </trkpt>
      <trkpt lat="45.62962" lon="6.56081">
        <ele>1891</ele>
        <time>2014-07-15T14:26:01Z</time>
      </trkpt>
      <trkpt lat="45.62964" lon="6.56083">
        <ele>1890</ele>
        <time>2014-07-15T14:26:03Z</time>
      </trkpt>
      <trkpt lat="45.62965" lon="6.5609">
        <ele>1889</ele>
        <time>2014-07-15T14:26:07Z</time>
      </trkpt>
      <trkpt lat="45.62964" lon="6.56092">
        <ele>1888</ele>
        <time>2014-07-15T14:26:09Z</time>
      </trkpt>
      <trkpt lat="45.62965" lon="6.56095">
        <ele>1888</ele>
        <time>2014-07-15T14:26:12Z</time>
      </trkpt>
      <trkpt lat="45.62967" lon="6.56096">
        <ele>1887</ele>
        <time>2014-07-15T14:26:14Z</time>
      </trkpt>
      <trkpt lat="45.6297" lon="6.56097">
        <ele>1886</ele>
        <time>2014-07-15T14:26:19Z</time>
      </trkpt>
      <trkpt lat="45.62971" lon="6.56099">
        <ele>1885</ele>
        <time>2014-07-15T14:26:22Z</time>
      </trkpt>
      <trkpt lat="45.62972" lon="6.56104">
        <ele>1884</ele>
        <time>2014-07-15T14:26:28Z</time>
      </trkpt>
      <trkpt lat="45.62971" lon="6.56106">
        <ele>1883</ele>
        <time>2014-07-15T14:26:31Z</time>
      </trkpt>
      <trkpt lat="45.62971" lon="6.56112">
        <ele>1882</ele>
        <time>2014-07-15T14:26:37Z</time>
      </trkpt>
      <trkpt lat="45.62972" lon="6.56114">
        <ele>1882</ele>
        <time>2014-07-15T14:26:40Z</time>
      </trkpt>
      <trkpt lat="45.62974" lon="6.56115">
        <ele>1882</ele>
        <time>2014-07-15T14:26:41Z</time>
      </trkpt>
      <trkpt lat="45.62977" lon="6.56119">
        <ele>1880</ele>
        <time>2014-07-15T14:26:48Z</time>
      </trkpt>
      <trkpt lat="45.62977" lon="6.56122">
        <ele>1880</ele>
        <time>2014-07-15T14:26:51Z</time>
      </trkpt>
      <trkpt lat="45.62977" lon="6.56124">
        <ele>1879</ele>
        <time>2014-07-15T14:26:54Z</time>
      </trkpt>
      <trkpt lat="45.6298" lon="6.5613">
        <ele>1878</ele>
        <time>2014-07-15T14:27:02Z</time>
      </trkpt>
      <trkpt lat="45.62987" lon="6.56142">
        <ele>1875</ele>
        <time>2014-07-15T14:27:16Z</time>
      </trkpt>
      <trkpt lat="45.62987" lon="6.56146">
        <ele>1874</ele>
        <time>2014-07-15T14:27:21Z</time>
      </trkpt>
      <trkpt lat="45.62999" lon="6.56168">
        <ele>1867</ele>
        <time>2014-07-15T14:27:49Z</time>
      </trkpt>
      <trkpt lat="45.63" lon="6.56169">
        <ele>1867</ele>
        <time>2014-07-15T14:27:51Z</time>
      </trkpt>
      <trkpt lat="45.63007" lon="6.56176">
        <ele>1865</ele>
        <time>2014-07-15T14:27:59Z</time>
      </trkpt>
      <trkpt lat="45.63005" lon="6.56179">
        <ele>1864</ele>
        <time>2014-07-15T14:28:08Z</time>
      </trkpt>
      <trkpt lat="45.63004" lon="6.56183">
        <ele>1860</ele>
        <time>2014-07-15T14:29:29Z</time>
      </trkpt>
      <trkpt lat="45.63005" lon="6.56185">
        <ele>1860</ele>
        <time>2014-07-15T14:29:31Z</time>
      </trkpt>
      <trkpt lat="45.63006" lon="6.56186">
        <ele>1860</ele>
        <time>2014-07-15T14:29:33Z</time>
      </trkpt>
      <trkpt lat="45.63015" lon="6.56196">
        <ele>1859</ele>
        <time>2014-07-15T14:29:48Z</time>
      </trkpt>
      <trkpt lat="45.63019" lon="6.56199">
        <ele>1859</ele>
        <time>2014-07-15T14:29:55Z</time>
      </trkpt>
      <trkpt lat="45.63019" lon="6.56203">
        <ele>1858</ele>
        <time>2014-07-15T14:30:02Z</time>
      </trkpt>
      <trkpt lat="45.6302" lon="6.56205">
        <ele>1858</ele>
        <time>2014-07-15T14:30:05Z</time>
      </trkpt>
      <trkpt lat="45.6302" lon="6.56211">
        <ele>1858</ele>
        <time>2014-07-15T14:30:11Z</time>
      </trkpt>
      <trkpt lat="45.63023" lon="6.56215">
        <ele>1856</ele>
        <time>2014-07-15T14:30:18Z</time>
      </trkpt>
      <trkpt lat="45.63021" lon="6.56217">
        <ele>1856</ele>
        <time>2014-07-15T14:30:20Z</time>
      </trkpt>
      <trkpt lat="45.6302" lon="6.5622">
        <ele>1856</ele>
        <time>2014-07-15T14:30:23Z</time>
      </trkpt>
      <trkpt lat="45.63021" lon="6.56224">
        <ele>1855</ele>
        <time>2014-07-15T14:30:32Z</time>
      </trkpt>
      <trkpt lat="45.63029" lon="6.56231">
        <ele>1854</ele>
        <time>2014-07-15T14:30:54Z</time>
      </trkpt>
      <trkpt lat="45.6303" lon="6.56235">
        <ele>1853</ele>
        <time>2014-07-15T14:31:00Z</time>
      </trkpt>
      <trkpt lat="45.63033" lon="6.56239">
        <ele>1853</ele>
        <time>2014-07-15T14:31:06Z</time>
      </trkpt>
      <trkpt lat="45.63032" lon="6.56242">
        <ele>1853</ele>
        <time>2014-07-15T14:31:11Z</time>
      </trkpt>
      <trkpt lat="45.63035" lon="6.56247">
        <ele>1852</ele>
        <time>2014-07-15T14:31:17Z</time>
      </trkpt>
      <trkpt lat="45.63039" lon="6.56248">
        <ele>1852</ele>
        <time>2014-07-15T14:31:27Z</time>
      </trkpt>
      <trkpt lat="45.63042" lon="6.56247">
        <ele>1852</ele>
        <time>2014-07-15T14:31:31Z</time>
      </trkpt>
      <trkpt lat="45.63056" lon="6.56257">
        <ele>1851</ele>
        <time>2014-07-15T14:31:54Z</time>
      </trkpt>
      <trkpt lat="45.63057" lon="6.56254">
        <ele>1850</ele>
        <time>2014-07-15T14:31:57Z</time>
      </trkpt>
      <trkpt lat="45.63061" lon="6.56257">
        <ele>1850</ele>
        <time>2014-07-15T14:32:08Z</time>
      </trkpt>
      <trkpt lat="45.63062" lon="6.56261">
        <ele>1849</ele>
        <time>2014-07-15T14:32:15Z</time>
      </trkpt>
      <trkpt lat="45.63064" lon="6.56265">
        <ele>1849</ele>
        <time>2014-07-15T14:32:22Z</time>
      </trkpt>
      <trkpt lat="45.63066" lon="6.56266">
        <ele>1848</ele>
        <time>2014-07-15T14:32:28Z</time>
      </trkpt>
      <trkpt lat="45.63068" lon="6.56271">
        <ele>1848</ele>
        <time>2014-07-15T14:32:42Z</time>
      </trkpt>
      <trkpt lat="45.6308" lon="6.56271">
        <ele>1846</ele>
        <time>2014-07-15T14:33:06Z</time>
      </trkpt>
      <trkpt lat="45.63097" lon="6.56279">
        <ele>1844</ele>
        <time>2014-07-15T14:33:34Z</time>
      </trkpt>
      <trkpt lat="45.63098" lon="6.56284">
        <ele>1843</ele>
        <time>2014-07-15T14:33:52Z</time>
      </trkpt>
      <trkpt lat="45.63099" lon="6.56292">
        <ele>1842</ele>
        <time>2014-07-15T14:33:59Z</time>
      </trkpt>
      <trkpt lat="45.63103" lon="6.56292">
        <ele>1842</ele>
        <time>2014-07-15T14:34:04Z</time>
      </trkpt>
      <trkpt lat="45.63112" lon="6.56282">
        <ele>1840</ele>
        <time>2014-07-15T14:34:20Z</time>
      </trkpt>
      <trkpt lat="45.63109" lon="6.56283">
        <ele>1840</ele>
        <time>2014-07-15T14:34:22Z</time>
      </trkpt>
      <trkpt lat="45.63108" lon="6.56286">
        <ele>1840</ele>
        <time>2014-07-15T14:34:28Z</time>
      </trkpt>
      <trkpt lat="45.63112" lon="6.5629">
        <ele>1840</ele>
        <time>2014-07-15T14:34:32Z</time>
      </trkpt>
      <trkpt lat="45.63111" lon="6.56293">
        <ele>1840</ele>
        <time>2014-07-15T14:34:34Z</time>
      </trkpt>
      <trkpt lat="45.63114" lon="6.56301">
        <ele>1839</ele>
        <time>2014-07-15T14:34:43Z</time>
      </trkpt>
      <trkpt lat="45.63113" lon="6.56303">
        <ele>1839</ele>
        <time>2014-07-15T14:34:47Z</time>
      </trkpt>
      <trkpt lat="45.63113" lon="6.56306">
        <ele>1839</ele>
        <time>2014-07-15T14:34:50Z</time>
      </trkpt>
      <trkpt lat="45.63115" lon="6.56307">
        <ele>1838</ele>
        <time>2014-07-15T14:34:53Z</time>
      </trkpt>
      <trkpt lat="45.63119" lon="6.56304">
        <ele>1838</ele>
        <time>2014-07-15T14:35:00Z</time>
      </trkpt>
      <trkpt lat="45.63125" lon="6.56306">
        <ele>1837</ele>
        <time>2014-07-15T14:35:12Z</time>
      </trkpt>
      <trkpt lat="45.63135" lon="6.5632">
        <ele>1835</ele>
        <time>2014-07-15T14:35:31Z</time>
      </trkpt>
      <trkpt lat="45.63136" lon="6.56325">
        <ele>1833</ele>
        <time>2014-07-15T14:35:37Z</time>
      </trkpt>
      <trkpt lat="45.63137" lon="6.56332">
        <ele>1830</ele>
        <time>2014-07-15T14:35:56Z</time>
      </trkpt>
      <trkpt lat="45.63142" lon="6.56333">
        <ele>1829</ele>
        <time>2014-07-15T14:36:07Z</time>
      </trkpt>
      <trkpt lat="45.63155" lon="6.56353">
        <ele>1827</ele>
        <time>2014-07-15T14:36:29Z</time>
      </trkpt>
      <trkpt lat="45.63154" lon="6.56356">
        <ele>1827</ele>
        <time>2014-07-15T14:36:31Z</time>
      </trkpt>
      <trkpt lat="45.63158" lon="6.56364">
        <ele>1827</ele>
        <time>2014-07-15T14:36:37Z</time>
      </trkpt>
      <trkpt lat="45.63156" lon="6.56366">
        <ele>1827</ele>
        <time>2014-07-15T14:36:38Z</time>
      </trkpt>
      <trkpt lat="45.63164" lon="6.56406">
        <ele>1822</ele>
        <time>2014-07-15T14:37:09Z</time>
      </trkpt>
      <trkpt lat="45.6317" lon="6.56428">
        <ele>1819</ele>
        <time>2014-07-15T14:37:30Z</time>
      </trkpt>
      <trkpt lat="45.63177" lon="6.56434">
        <ele>1817</ele>
        <time>2014-07-15T14:37:42Z</time>
      </trkpt>
      <trkpt lat="45.63175" lon="6.56438">
        <ele>1817</ele>
        <time>2014-07-15T14:37:45Z</time>
      </trkpt>
      <trkpt lat="45.63176" lon="6.56446">
        <ele>1816</ele>
        <time>2014-07-15T14:37:51Z</time>
      </trkpt>
      <trkpt lat="45.63185" lon="6.56455">
        <ele>1815</ele>
        <time>2014-07-15T14:38:04Z</time>
      </trkpt>
      <trkpt lat="45.63191" lon="6.56456">
        <ele>1815</ele>
        <time>2014-07-15T14:38:07Z</time>
      </trkpt>
      <trkpt lat="45.63219" lon="6.56477">
        <ele>1812</ele>
        <time>2014-07-15T14:38:34Z</time>
      </trkpt>
      <trkpt lat="45.63219" lon="6.56482">
        <ele>1810</ele>
        <time>2014-07-15T14:38:39Z</time>
      </trkpt>
      <trkpt lat="45.63223" lon="6.56486">
        <ele>1810</ele>
        <time>2014-07-15T14:38:51Z</time>
      </trkpt>
      <trkpt lat="45.63227" lon="6.56484">
        <ele>1808</ele>
        <time>2014-07-15T14:38:57Z</time>
      </trkpt>
      <trkpt lat="45.63229" lon="6.56484">
        <ele>1808</ele>
        <time>2014-07-15T14:39:03Z</time>
      </trkpt>
      <trkpt lat="45.63231" lon="6.56482">
        <ele>1808</ele>
        <time>2014-07-15T14:39:09Z</time>
      </trkpt>
      <trkpt lat="45.63236" lon="6.56484">
        <ele>1807</ele>
        <time>2014-07-15T14:39:13Z</time>
      </trkpt>
      <trkpt lat="45.63233" lon="6.56487">
        <ele>1807</ele>
        <time>2014-07-15T14:39:16Z</time>
      </trkpt>
      <trkpt lat="45.63235" lon="6.56491">
        <ele>1805</ele>
        <time>2014-07-15T14:39:22Z</time>
      </trkpt>
      <trkpt lat="45.63235" lon="6.56494">
        <ele>1804</ele>
        <time>2014-07-15T14:39:27Z</time>
      </trkpt>
      <trkpt lat="45.63234" lon="6.56496">
        <ele>1804</ele>
        <time>2014-07-15T14:39:30Z</time>
      </trkpt>
      <trkpt lat="45.6323" lon="6.56499">
        <ele>1802</ele>
        <time>2014-07-15T14:39:34Z</time>
      </trkpt>
      <trkpt lat="45.63229" lon="6.56503">
        <ele>1802</ele>
        <time>2014-07-15T14:39:39Z</time>
      </trkpt>
      <trkpt lat="45.6323" lon="6.56511">
        <ele>1797</ele>
        <time>2014-07-15T14:39:58Z</time>
      </trkpt>
      <trkpt lat="45.63233" lon="6.56511">
        <ele>1796</ele>
        <time>2014-07-15T14:40:03Z</time>
      </trkpt>
      <trkpt lat="45.63233" lon="6.56513">
        <ele>1796</ele>
        <time>2014-07-15T14:40:15Z</time>
      </trkpt>
      <trkpt lat="45.63241" lon="6.56515">
        <ele>1788</ele>
        <time>2014-07-15T14:40:35Z</time>
      </trkpt>
      <trkpt lat="45.63245" lon="6.5652">
        <ele>1787</ele>
        <time>2014-07-15T14:40:43Z</time>
      </trkpt>
      <trkpt lat="45.63243" lon="6.56523">
        <ele>1786</ele>
        <time>2014-07-15T14:40:48Z</time>
      </trkpt>
      <trkpt lat="45.63243" lon="6.56526">
        <ele>1785</ele>
        <time>2014-07-15T14:40:52Z</time>
      </trkpt>
      <trkpt lat="45.63248" lon="6.56533">
        <ele>1784</ele>
        <time>2014-07-15T14:41:02Z</time>
      </trkpt>
      <trkpt lat="45.63249" lon="6.56536">
        <ele>1784</ele>
        <time>2014-07-15T14:41:05Z</time>
      </trkpt>
      <trkpt lat="45.63252" lon="6.56538">
        <ele>1783</ele>
        <time>2014-07-15T14:41:08Z</time>
      </trkpt>
      <trkpt lat="45.6325" lon="6.56542">
        <ele>1783</ele>
        <time>2014-07-15T14:41:11Z</time>
      </trkpt>
      <trkpt lat="45.63253" lon="6.56551">
        <ele>1782</ele>
        <time>2014-07-15T14:41:20Z</time>
      </trkpt>
      <trkpt lat="45.63255" lon="6.56551">
        <ele>1782</ele>
        <time>2014-07-15T14:41:23Z</time>
      </trkpt>
      <trkpt lat="45.6328" lon="6.56548">
        <ele>1779</ele>
        <time>2014-07-15T14:41:53Z</time>
      </trkpt>
      <trkpt lat="45.63285" lon="6.56553">
        <ele>1779</ele>
        <time>2014-07-15T14:41:59Z</time>
      </trkpt>
      <trkpt lat="45.63289" lon="6.5655">
        <ele>1777</ele>
        <time>2014-07-15T14:42:04Z</time>
      </trkpt>
      <trkpt lat="45.63291" lon="6.5655">
        <ele>1777</ele>
        <time>2014-07-15T14:42:06Z</time>
      </trkpt>
      <trkpt lat="45.63292" lon="6.56552">
        <ele>1777</ele>
        <time>2014-07-15T14:42:08Z</time>
      </trkpt>
      <trkpt lat="45.63293" lon="6.56556">
        <ele>1777</ele>
        <time>2014-07-15T14:42:10Z</time>
      </trkpt>
      <trkpt lat="45.63313" lon="6.56573">
        <ele>1774</ele>
        <time>2014-07-15T14:42:36Z</time>
      </trkpt>
      <trkpt lat="45.63312" lon="6.56576">
        <ele>1771</ele>
        <time>2014-07-15T14:42:41Z</time>
      </trkpt>
      <trkpt lat="45.63318" lon="6.56593">
        <ele>1767</ele>
        <time>2014-07-15T14:42:59Z</time>
      </trkpt>
      <trkpt lat="45.63313" lon="6.56593">
        <ele>1760</ele>
        <time>2014-07-15T14:43:37Z</time>
      </trkpt>
      <trkpt lat="45.63302" lon="6.56585">
        <ele>1745</ele>
        <time>2014-07-15T14:45:15Z</time>
      </trkpt>
      <trkpt lat="45.63301" lon="6.56586">
        <ele>1744</ele>
        <time>2014-07-15T14:46:10Z</time>
      </trkpt>
      <trkpt lat="45.63303" lon="6.56576">
        <ele>1732</ele>
        <time>2014-07-15T14:47:07Z</time>
      </trkpt>
      <trkpt lat="45.63311" lon="6.56569">
        <ele>1731</ele>
        <time>2014-07-15T14:47:15Z</time>
      </trkpt>
      <trkpt lat="45.63312" lon="6.56566">
        <ele>1731</ele>
        <time>2014-07-15T14:47:17Z</time>
      </trkpt>
      <trkpt lat="45.63325" lon="6.5655">
        <ele>1730</ele>
        <time>2014-07-15T14:47:37Z</time>
      </trkpt>
      <trkpt lat="45.63328" lon="6.56555">
        <ele>1730</ele>
        <time>2014-07-15T14:47:51Z</time>
      </trkpt>
      <trkpt lat="45.63337" lon="6.56555">
        <ele>1729</ele>
        <time>2014-07-15T14:48:02Z</time>
      </trkpt>
      <trkpt lat="45.6334" lon="6.56553">
        <ele>1728</ele>
        <time>2014-07-15T14:48:06Z</time>
      </trkpt>
      <trkpt lat="45.63345" lon="6.56554">
        <ele>1727</ele>
        <time>2014-07-15T14:48:25Z</time>
      </trkpt>
      <trkpt lat="45.63353" lon="6.56567">
        <ele>1726</ele>
        <time>2014-07-15T14:48:42Z</time>
      </trkpt>
      <trkpt lat="45.63382" lon="6.56581">
        <ele>1723</ele>
        <time>2014-07-15T14:49:14Z</time>
      </trkpt>
      <trkpt lat="45.6339" lon="6.56584">
        <ele>1722</ele>
        <time>2014-07-15T14:49:26Z</time>
      </trkpt>
      <trkpt lat="45.63389" lon="6.56588">
        <ele>1721</ele>
        <time>2014-07-15T14:49:30Z</time>
      </trkpt>
      <trkpt lat="45.63394" lon="6.56593">
        <ele>1720</ele>
        <time>2014-07-15T14:49:40Z</time>
      </trkpt>
      <trkpt lat="45.63394" lon="6.56596">
        <ele>1719</ele>
        <time>2014-07-15T14:49:42Z</time>
      </trkpt>
      <trkpt lat="45.63395" lon="6.56599">
        <ele>1719</ele>
        <time>2014-07-15T14:49:46Z</time>
      </trkpt>
      <trkpt lat="45.63403" lon="6.566">
        <ele>1717</ele>
        <time>2014-07-15T14:50:01Z</time>
      </trkpt>
      <trkpt lat="45.63404" lon="6.56603">
        <ele>1716</ele>
        <time>2014-07-15T14:50:08Z</time>
      </trkpt>
      <trkpt lat="45.63406" lon="6.56604">
        <ele>1716</ele>
        <time>2014-07-15T14:50:10Z</time>
      </trkpt>
      <trkpt lat="45.63409" lon="6.56611">
        <ele>1716</ele>
        <time>2014-07-15T14:50:17Z</time>
      </trkpt>
      <trkpt lat="45.63417" lon="6.56617">
        <ele>1714</ele>
        <time>2014-07-15T14:50:26Z</time>
      </trkpt>
      <trkpt lat="45.63416" lon="6.56619">
        <ele>1713</ele>
        <time>2014-07-15T14:50:29Z</time>
      </trkpt>
      <trkpt lat="45.63415" lon="6.56622">
        <ele>1713</ele>
        <time>2014-07-15T14:50:32Z</time>
      </trkpt>
      <trkpt lat="45.63413" lon="6.56628">
        <ele>1712</ele>
        <time>2014-07-15T14:50:39Z</time>
      </trkpt>
      <trkpt lat="45.63415" lon="6.56636">
        <ele>1711</ele>
        <time>2014-07-15T14:50:46Z</time>
      </trkpt>
      <trkpt lat="45.63414" lon="6.56638">
        <ele>1711</ele>
        <time>2014-07-15T14:50:49Z</time>
      </trkpt>
      <trkpt lat="45.63412" lon="6.56642">
        <ele>1710</ele>
        <time>2014-07-15T14:50:56Z</time>
      </trkpt>
      <trkpt lat="45.6341" lon="6.56647">
        <ele>1708</ele>
        <time>2014-07-15T14:51:03Z</time>
      </trkpt>
      <trkpt lat="45.63412" lon="6.56651">
        <ele>1707</ele>
        <time>2014-07-15T14:51:08Z</time>
      </trkpt>
      <trkpt lat="45.63422" lon="6.56665">
        <ele>1704</ele>
        <time>2014-07-15T14:51:30Z</time>
      </trkpt>
      <trkpt lat="45.63424" lon="6.56666">
        <ele>1703</ele>
        <time>2014-07-15T14:51:32Z</time>
      </trkpt>
      <trkpt lat="45.63424" lon="6.5667">
        <ele>1703</ele>
        <time>2014-07-15T14:51:37Z</time>
      </trkpt>
      <trkpt lat="45.63423" lon="6.56672">
        <ele>1702</ele>
        <time>2014-07-15T14:51:41Z</time>
      </trkpt>
      <trkpt lat="45.63419" lon="6.56675">
        <ele>1701</ele>
        <time>2014-07-15T14:51:47Z</time>
      </trkpt>
      <trkpt lat="45.63414" lon="6.56676">
        <ele>1700</ele>
        <time>2014-07-15T14:51:54Z</time>
      </trkpt>
      <trkpt lat="45.63412" lon="6.56679">
        <ele>1699</ele>
        <time>2014-07-15T14:52:00Z</time>
      </trkpt>
      <trkpt lat="45.63413" lon="6.56682">
        <ele>1697</ele>
        <time>2014-07-15T14:52:17Z</time>
      </trkpt>
      <trkpt lat="45.63424" lon="6.56687">
        <ele>1696</ele>
        <time>2014-07-15T14:52:39Z</time>
      </trkpt>
      <trkpt lat="45.63425" lon="6.56684">
        <ele>1696</ele>
        <time>2014-07-15T14:52:42Z</time>
      </trkpt>
      <trkpt lat="45.63429" lon="6.56683">
        <ele>1696</ele>
        <time>2014-07-15T14:52:45Z</time>
      </trkpt>
      <trkpt lat="45.63436" lon="6.56689">
        <ele>1696</ele>
        <time>2014-07-15T14:52:53Z</time>
      </trkpt>
      <trkpt lat="45.63438" lon="6.56698">
        <ele>1696</ele>
        <time>2014-07-15T14:53:01Z</time>
      </trkpt>
      <trkpt lat="45.63438" lon="6.56701">
        <ele>1695</ele>
        <time>2014-07-15T14:53:03Z</time>
      </trkpt>
      <trkpt lat="45.63441" lon="6.56704">
        <ele>1695</ele>
        <time>2014-07-15T14:53:07Z</time>
      </trkpt>
      <trkpt lat="45.63442" lon="6.56707">
        <ele>1695</ele>
        <time>2014-07-15T14:53:09Z</time>
      </trkpt>
      <trkpt lat="45.63451" lon="6.5672">
        <ele>1694</ele>
        <time>2014-07-15T14:53:21Z</time>
      </trkpt>
      <trkpt lat="45.63455" lon="6.56736">
        <ele>1693</ele>
        <time>2014-07-15T14:53:33Z</time>
      </trkpt>
      <trkpt lat="45.63458" lon="6.56738">
        <ele>1693</ele>
        <time>2014-07-15T14:53:35Z</time>
      </trkpt>
      <trkpt lat="45.63458" lon="6.56741">
        <ele>1692</ele>
        <time>2014-07-15T14:53:37Z</time>
      </trkpt>
      <trkpt lat="45.63454" lon="6.56748">
        <ele>1691</ele>
        <time>2014-07-15T14:53:40Z</time>
      </trkpt>
      <trkpt lat="45.63455" lon="6.56751">
        <ele>1691</ele>
        <time>2014-07-15T14:53:42Z</time>
      </trkpt>
      <trkpt lat="45.63459" lon="6.56759">
        <ele>1690</ele>
        <time>2014-07-15T14:53:51Z</time>
      </trkpt>
      <trkpt lat="45.63469" lon="6.56762">
        <ele>1690</ele>
        <time>2014-07-15T14:54:06Z</time>
      </trkpt>
      <trkpt lat="45.63471" lon="6.56764">
        <ele>1690</ele>
        <time>2014-07-15T14:54:09Z</time>
      </trkpt>
      <trkpt lat="45.63483" lon="6.56767">
        <ele>1690</ele>
        <time>2014-07-15T14:54:21Z</time>
      </trkpt>
      <trkpt lat="45.63486" lon="6.56771">
        <ele>1690</ele>
        <time>2014-07-15T14:54:26Z</time>
      </trkpt>
      <trkpt lat="45.63487" lon="6.56775">
        <ele>1689</ele>
        <time>2014-07-15T14:54:28Z</time>
      </trkpt>
      <trkpt lat="45.63492" lon="6.56778">
        <ele>1689</ele>
        <time>2014-07-15T14:54:32Z</time>
      </trkpt>
      <trkpt lat="45.63493" lon="6.56783">
        <ele>1688</ele>
        <time>2014-07-15T14:54:38Z</time>
      </trkpt>
      <trkpt lat="45.6349" lon="6.56787">
        <ele>1688</ele>
        <time>2014-07-15T14:54:40Z</time>
      </trkpt>
      <trkpt lat="45.6349" lon="6.5679">
        <ele>1687</ele>
        <time>2014-07-15T14:54:44Z</time>
      </trkpt>
      <trkpt lat="45.63493" lon="6.56799">
        <ele>1685</ele>
        <time>2014-07-15T14:54:57Z</time>
      </trkpt>
      <trkpt lat="45.63492" lon="6.56804">
        <ele>1684</ele>
        <time>2014-07-15T14:55:02Z</time>
      </trkpt>
      <trkpt lat="45.63492" lon="6.56809">
        <ele>1683</ele>
        <time>2014-07-15T14:55:06Z</time>
      </trkpt>
      <trkpt lat="45.63489" lon="6.56819">
        <ele>1682</ele>
        <time>2014-07-15T14:55:14Z</time>
      </trkpt>
      <trkpt lat="45.63494" lon="6.56836">
        <ele>1681</ele>
        <time>2014-07-15T14:55:24Z</time>
      </trkpt>
      <trkpt lat="45.63498" lon="6.56838">
        <ele>1680</ele>
        <time>2014-07-15T14:55:28Z</time>
      </trkpt>
      <trkpt lat="45.635" lon="6.56839">
        <ele>1680</ele>
        <time>2014-07-15T14:55:30Z</time>
      </trkpt>
      <trkpt lat="45.635" lon="6.56842">
        <ele>1680</ele>
        <time>2014-07-15T14:55:42Z</time>
      </trkpt>
      <trkpt lat="45.63502" lon="6.56843">
        <ele>1680</ele>
        <time>2014-07-15T14:55:45Z</time>
      </trkpt>
      <trkpt lat="45.63504" lon="6.56844">
        <ele>1680</ele>
        <time>2014-07-15T14:55:49Z</time>
      </trkpt>
      <trkpt lat="45.63527" lon="6.56853">
        <ele>1680</ele>
        <time>2014-07-15T14:56:14Z</time>
      </trkpt>
      <trkpt lat="45.63528" lon="6.56856">
        <ele>1680</ele>
        <time>2014-07-15T14:56:16Z</time>
      </trkpt>
      <trkpt lat="45.63536" lon="6.56861">
        <ele>1680</ele>
        <time>2014-07-15T14:56:24Z</time>
      </trkpt>
      <trkpt lat="45.63543" lon="6.56867">
        <ele>1679</ele>
        <time>2014-07-15T14:56:31Z</time>
      </trkpt>
      <trkpt lat="45.63544" lon="6.56872">
        <ele>1679</ele>
        <time>2014-07-15T14:56:35Z</time>
      </trkpt>
      <trkpt lat="45.63539" lon="6.56882">
        <ele>1677</ele>
        <time>2014-07-15T14:56:40Z</time>
      </trkpt>
      <trkpt lat="45.63539" lon="6.56885">
        <ele>1677</ele>
        <time>2014-07-15T14:56:42Z</time>
      </trkpt>
      <trkpt lat="45.63547" lon="6.56899">
        <ele>1674</ele>
        <time>2014-07-15T14:56:54Z</time>
      </trkpt>
      <trkpt lat="45.63556" lon="6.56902">
        <ele>1674</ele>
        <time>2014-07-15T14:57:00Z</time>
      </trkpt>
      <trkpt lat="45.63559" lon="6.56907">
        <ele>1673</ele>
        <time>2014-07-15T14:57:08Z</time>
      </trkpt>
      <trkpt lat="45.6357" lon="6.56913">
        <ele>1671</ele>
        <time>2014-07-15T14:57:27Z</time>
      </trkpt>
      <trkpt lat="45.6357" lon="6.56907">
        <ele>1671</ele>
        <time>2014-07-15T14:57:45Z</time>
      </trkpt>
      <trkpt lat="45.63574" lon="6.56906">
        <ele>1671</ele>
        <time>2014-07-15T14:57:59Z</time>
      </trkpt>
      <trkpt lat="45.63578" lon="6.56907">
        <ele>1671</ele>
        <time>2014-07-15T14:58:01Z</time>
      </trkpt>
      <trkpt lat="45.63601" lon="6.56916">
        <ele>1672</ele>
        <time>2014-07-15T14:58:07Z</time>
      </trkpt>
      <trkpt lat="45.63602" lon="6.5692">
        <ele>1671</ele>
        <time>2014-07-15T14:58:09Z</time>
      </trkpt>
      <trkpt lat="45.63598" lon="6.56926">
        <ele>1669</ele>
        <time>2014-07-15T14:58:13Z</time>
      </trkpt>
      <trkpt lat="45.63599" lon="6.56929">
        <ele>1669</ele>
        <time>2014-07-15T14:58:16Z</time>
      </trkpt>
      <trkpt lat="45.63606" lon="6.56932">
        <ele>1667</ele>
        <time>2014-07-15T14:58:23Z</time>
      </trkpt>
      <trkpt lat="45.63604" lon="6.56936">
        <ele>1666</ele>
        <time>2014-07-15T14:58:28Z</time>
      </trkpt>
      <trkpt lat="45.63605" lon="6.56939">
        <ele>1665</ele>
        <time>2014-07-15T14:58:31Z</time>
      </trkpt>
      <trkpt lat="45.636" lon="6.56948">
        <ele>1660</ele>
        <time>2014-07-15T14:58:40Z</time>
      </trkpt>
      <trkpt lat="45.63599" lon="6.5695">
        <ele>1659</ele>
        <time>2014-07-15T14:58:43Z</time>
      </trkpt>
      <trkpt lat="45.63598" lon="6.56954">
        <ele>1658</ele>
        <time>2014-07-15T14:58:49Z</time>
      </trkpt>
      <trkpt lat="45.63599" lon="6.56956">
        <ele>1657</ele>
        <time>2014-07-15T14:58:54Z</time>
      </trkpt>
      <trkpt lat="45.63601" lon="6.56958">
        <ele>1656</ele>
        <time>2014-07-15T14:58:59Z</time>
      </trkpt>
      <trkpt lat="45.63612" lon="6.56955">
        <ele>1655</ele>
        <time>2014-07-15T14:59:08Z</time>
      </trkpt>
      <trkpt lat="45.63618" lon="6.56958">
        <ele>1654</ele>
        <time>2014-07-15T14:59:13Z</time>
      </trkpt>
      <trkpt lat="45.63641" lon="6.56989">
        <ele>1651</ele>
        <time>2014-07-15T14:59:38Z</time>
      </trkpt>
      <trkpt lat="45.63642" lon="6.56991">
        <ele>1650</ele>
        <time>2014-07-15T14:59:47Z</time>
      </trkpt>
      <trkpt lat="45.63643" lon="6.56995">
        <ele>1650</ele>
        <time>2014-07-15T14:59:51Z</time>
      </trkpt>
      <trkpt lat="45.63642" lon="6.56999">
        <ele>1647</ele>
        <time>2014-07-15T14:59:59Z</time>
      </trkpt>
      <trkpt lat="45.63639" lon="6.57005">
        <ele>1645</ele>
        <time>2014-07-15T15:00:05Z</time>
      </trkpt>
      <trkpt lat="45.63639" lon="6.57009">
        <ele>1643</ele>
        <time>2014-07-15T15:00:12Z</time>
      </trkpt>
      <trkpt lat="45.63638" lon="6.57015">
        <ele>1641</ele>
        <time>2014-07-15T15:00:21Z</time>
      </trkpt>
      <trkpt lat="45.63636" lon="6.57019">
        <ele>1639</ele>
        <time>2014-07-15T15:00:27Z</time>
      </trkpt>
      <trkpt lat="45.63634" lon="6.57021">
        <ele>1638</ele>
        <time>2014-07-15T15:00:30Z</time>
      </trkpt>
      <trkpt lat="45.63633" lon="6.57023">
        <ele>1638</ele>
        <time>2014-07-15T15:00:33Z</time>
      </trkpt>
      <trkpt lat="45.63628" lon="6.57028">
        <ele>1637</ele>
        <time>2014-07-15T15:00:39Z</time>
      </trkpt>
      <trkpt lat="45.63635" lon="6.57034">
        <ele>1637</ele>
        <time>2014-07-15T15:01:39Z</time>
      </trkpt>
      <trkpt lat="45.6364" lon="6.57036">
        <ele>1637</ele>
        <time>2014-07-15T15:01:47Z</time>
      </trkpt>
      <trkpt lat="45.63656" lon="6.57036">
        <ele>1637</ele>
        <time>2014-07-15T15:02:00Z</time>
      </trkpt>
      <trkpt lat="45.63672" lon="6.57051">
        <ele>1637</ele>
        <time>2014-07-15T15:02:18Z</time>
      </trkpt>
      <trkpt lat="45.63679" lon="6.57049">
        <ele>1637</ele>
        <time>2014-07-15T15:02:28Z</time>
      </trkpt>
      <trkpt lat="45.63689" lon="6.57064">
        <ele>1637</ele>
        <time>2014-07-15T15:02:56Z</time>
      </trkpt>
      <trkpt lat="45.63708" lon="6.57053">
        <ele>1635</ele>
        <time>2014-07-15T15:03:20Z</time>
      </trkpt>
      <trkpt lat="45.6371" lon="6.57057">
        <ele>1634</ele>
        <time>2014-07-15T15:03:28Z</time>
      </trkpt>
      <trkpt lat="45.63718" lon="6.57056">
        <ele>1633</ele>
        <time>2014-07-15T15:03:41Z</time>
      </trkpt>
      <trkpt lat="45.63718" lon="6.57064">
        <ele>1631</ele>
        <time>2014-07-15T15:03:50Z</time>
      </trkpt>
      <trkpt lat="45.6372" lon="6.57072">
        <ele>1631</ele>
        <time>2014-07-15T15:03:57Z</time>
      </trkpt>
      <trkpt lat="45.63722" lon="6.57074">
        <ele>1631</ele>
        <time>2014-07-15T15:04:01Z</time>
      </trkpt>
      <trkpt lat="45.63724" lon="6.57074">
        <ele>1630</ele>
        <time>2014-07-15T15:04:03Z</time>
      </trkpt>
      <trkpt lat="45.63726" lon="6.57078">
        <ele>1630</ele>
        <time>2014-07-15T15:04:09Z</time>
      </trkpt>
      <trkpt lat="45.63729" lon="6.57079">
        <ele>1630</ele>
        <time>2014-07-15T15:04:12Z</time>
      </trkpt>
      <trkpt lat="45.63732" lon="6.57083">
        <ele>1629</ele>
        <time>2014-07-15T15:04:18Z</time>
      </trkpt>
      <trkpt lat="45.63741" lon="6.57088">
        <ele>1628</ele>
        <time>2014-07-15T15:04:30Z</time>
      </trkpt>
      <trkpt lat="45.63746" lon="6.57081">
        <ele>1627</ele>
        <time>2014-07-15T15:04:36Z</time>
      </trkpt>
      <trkpt lat="45.63743" lon="6.57082">
        <ele>1626</ele>
        <time>2014-07-15T15:04:38Z</time>
      </trkpt>
      <trkpt lat="45.63746" lon="6.57088">
        <ele>1625</ele>
        <time>2014-07-15T15:04:48Z</time>
      </trkpt>
      <trkpt lat="45.63758" lon="6.57087">
        <ele>1624</ele>
        <time>2014-07-15T15:05:00Z</time>
      </trkpt>
      <trkpt lat="45.63758" lon="6.57091">
        <ele>1622</ele>
        <time>2014-07-15T15:05:06Z</time>
      </trkpt>
      <trkpt lat="45.63762" lon="6.57099">
        <ele>1621</ele>
        <time>2014-07-15T15:05:15Z</time>
      </trkpt>
      <trkpt lat="45.63766" lon="6.57098">
        <ele>1621</ele>
        <time>2014-07-15T15:05:18Z</time>
      </trkpt>
      <trkpt lat="45.63767" lon="6.57097">
        <ele>1620</ele>
        <time>2014-07-15T15:05:20Z</time>
      </trkpt>
      <trkpt lat="45.63769" lon="6.57094">
        <ele>1620</ele>
        <time>2014-07-15T15:05:22Z</time>
      </trkpt>
      <trkpt lat="45.6377" lon="6.57092">
        <ele>1619</ele>
        <time>2014-07-15T15:05:32Z</time>
      </trkpt>
      <trkpt lat="45.63774" lon="6.57091">
        <ele>1619</ele>
        <time>2014-07-15T15:05:40Z</time>
      </trkpt>
      <trkpt lat="45.63777" lon="6.57092">
        <ele>1619</ele>
        <time>2014-07-15T15:05:42Z</time>
      </trkpt>
      <trkpt lat="45.63782" lon="6.57093">
        <ele>1619</ele>
        <time>2014-07-15T15:05:46Z</time>
      </trkpt>
      <trkpt lat="45.63783" lon="6.57096">
        <ele>1619</ele>
        <time>2014-07-15T15:05:49Z</time>
      </trkpt>
      <trkpt lat="45.63778" lon="6.57101">
        <ele>1617</ele>
        <time>2014-07-15T15:05:52Z</time>
      </trkpt>
      <trkpt lat="45.63779" lon="6.57105">
        <ele>1617</ele>
        <time>2014-07-15T15:05:55Z</time>
      </trkpt>
      <trkpt lat="45.6378" lon="6.57107">
        <ele>1616</ele>
        <time>2014-07-15T15:05:57Z</time>
      </trkpt>
      <trkpt lat="45.63782" lon="6.57108">
        <ele>1616</ele>
        <time>2014-07-15T15:05:59Z</time>
      </trkpt>
      <trkpt lat="45.63785" lon="6.57106">
        <ele>1616</ele>
        <time>2014-07-15T15:06:01Z</time>
      </trkpt>
      <trkpt lat="45.63786" lon="6.57109">
        <ele>1614</ele>
        <time>2014-07-15T15:06:05Z</time>
      </trkpt>
      <trkpt lat="45.63786" lon="6.57115">
        <ele>1613</ele>
        <time>2014-07-15T15:06:12Z</time>
      </trkpt>
      <trkpt lat="45.63788" lon="6.57113">
        <ele>1613</ele>
        <time>2014-07-15T15:06:16Z</time>
      </trkpt>
      <trkpt lat="45.63791" lon="6.57115">
        <ele>1613</ele>
        <time>2014-07-15T15:06:19Z</time>
      </trkpt>
      <trkpt lat="45.63793" lon="6.57115">
        <ele>1612</ele>
        <time>2014-07-15T15:06:21Z</time>
      </trkpt>
      <trkpt lat="45.638" lon="6.57107">
        <ele>1612</ele>
        <time>2014-07-15T15:06:28Z</time>
      </trkpt>
      <trkpt lat="45.638" lon="6.57102">
        <ele>1611</ele>
        <time>2014-07-15T15:06:31Z</time>
      </trkpt>
      <trkpt lat="45.63796" lon="6.57101">
        <ele>1611</ele>
        <time>2014-07-15T15:06:36Z</time>
      </trkpt>
      <trkpt lat="45.63795" lon="6.57098">
        <ele>1611</ele>
        <time>2014-07-15T15:06:40Z</time>
      </trkpt>
      <trkpt lat="45.63796" lon="6.57095">
        <ele>1610</ele>
        <time>2014-07-15T15:06:43Z</time>
      </trkpt>
      <trkpt lat="45.638" lon="6.57092">
        <ele>1610</ele>
        <time>2014-07-15T15:06:49Z</time>
      </trkpt>
      <trkpt lat="45.63802" lon="6.57092">
        <ele>1610</ele>
        <time>2014-07-15T15:06:52Z</time>
      </trkpt>
      <trkpt lat="45.63806" lon="6.57095">
        <ele>1609</ele>
        <time>2014-07-15T15:06:59Z</time>
      </trkpt>
      <trkpt lat="45.63806" lon="6.57099">
        <ele>1608</ele>
        <time>2014-07-15T15:07:03Z</time>
      </trkpt>
      <trkpt lat="45.63807" lon="6.57102">
        <ele>1608</ele>
        <time>2014-07-15T15:07:06Z</time>
      </trkpt>
      <trkpt lat="45.63808" lon="6.57112">
        <ele>1607</ele>
        <time>2014-07-15T15:07:16Z</time>
      </trkpt>
      <trkpt lat="45.6381" lon="6.57111">
        <ele>1607</ele>
        <time>2014-07-15T15:07:17Z</time>
      </trkpt>
      <trkpt lat="45.63812" lon="6.57112">
        <ele>1607</ele>
        <time>2014-07-15T15:07:21Z</time>
      </trkpt>
      <trkpt lat="45.63813" lon="6.57115">
        <ele>1607</ele>
        <time>2014-07-15T15:07:23Z</time>
      </trkpt>
      <trkpt lat="45.63815" lon="6.57117">
        <ele>1607</ele>
        <time>2014-07-15T15:07:26Z</time>
      </trkpt>
      <trkpt lat="45.63815" lon="6.57121">
        <ele>1606</ele>
        <time>2014-07-15T15:07:30Z</time>
      </trkpt>
      <trkpt lat="45.63816" lon="6.57124">
        <ele>1606</ele>
        <time>2014-07-15T15:07:34Z</time>
      </trkpt>
      <trkpt lat="45.63815" lon="6.57129">
        <ele>1606</ele>
        <time>2014-07-15T15:07:37Z</time>
      </trkpt>
      <trkpt lat="45.63816" lon="6.57132">
        <ele>1606</ele>
        <time>2014-07-15T15:07:42Z</time>
      </trkpt>
      <trkpt lat="45.63822" lon="6.57147">
        <ele>1606</ele>
        <time>2014-07-15T15:07:55Z</time>
      </trkpt>
      <trkpt lat="45.63824" lon="6.57149">
        <ele>1606</ele>
        <time>2014-07-15T15:07:58Z</time>
      </trkpt>
      <trkpt lat="45.63828" lon="6.57145">
        <ele>1607</ele>
        <time>2014-07-15T15:08:04Z</time>
      </trkpt>
      <trkpt lat="45.63833" lon="6.57146">
        <ele>1607</ele>
        <time>2014-07-15T15:08:10Z</time>
      </trkpt>
      <trkpt lat="45.63835" lon="6.57151">
        <ele>1606</ele>
        <time>2014-07-15T15:08:18Z</time>
      </trkpt>
      <trkpt lat="45.6385" lon="6.57156">
        <ele>1606</ele>
        <time>2014-07-15T15:08:43Z</time>
      </trkpt>
      <trkpt lat="45.6385" lon="6.5716">
        <ele>1606</ele>
        <time>2014-07-15T15:08:47Z</time>
      </trkpt>
      <trkpt lat="45.63855" lon="6.57175">
        <ele>1605</ele>
        <time>2014-07-15T15:08:59Z</time>
      </trkpt>
      <trkpt lat="45.63854" lon="6.57177">
        <ele>1604</ele>
        <time>2014-07-15T15:09:01Z</time>
      </trkpt>
      <trkpt lat="45.63862" lon="6.57195">
        <ele>1602</ele>
        <time>2014-07-15T15:09:15Z</time>
      </trkpt>
      <trkpt lat="45.6387" lon="6.572">
        <ele>1600</ele>
        <time>2014-07-15T15:09:26Z</time>
      </trkpt>
      <trkpt lat="45.63874" lon="6.57207">
        <ele>1600</ele>
        <time>2014-07-15T15:09:38Z</time>
      </trkpt>
      <trkpt lat="45.63882" lon="6.5721">
        <ele>1598</ele>
        <time>2014-07-15T15:09:47Z</time>
      </trkpt>
      <trkpt lat="45.63902" lon="6.57242">
        <ele>1594</ele>
        <time>2014-07-15T15:10:18Z</time>
      </trkpt>
      <trkpt lat="45.63908" lon="6.57252">
        <ele>1593</ele>
        <time>2014-07-15T15:10:27Z</time>
      </trkpt>
      <trkpt lat="45.63912" lon="6.57254">
        <ele>1593</ele>
        <time>2014-07-15T15:10:30Z</time>
      </trkpt>
      <trkpt lat="45.63914" lon="6.57263">
        <ele>1591</ele>
        <time>2014-07-15T15:10:38Z</time>
      </trkpt>
      <trkpt lat="45.6393" lon="6.57276">
        <ele>1590</ele>
        <time>2014-07-15T15:10:53Z</time>
      </trkpt>
      <trkpt lat="45.63944" lon="6.57316">
        <ele>1587</ele>
        <time>2014-07-15T15:11:23Z</time>
      </trkpt>
      <trkpt lat="45.63947" lon="6.57321">
        <ele>1586</ele>
        <time>2014-07-15T15:11:27Z</time>
      </trkpt>
      <trkpt lat="45.63952" lon="6.57323">
        <ele>1586</ele>
        <time>2014-07-15T15:11:31Z</time>
      </trkpt>
      <trkpt lat="45.63956" lon="6.57332">
        <ele>1585</ele>
        <time>2014-07-15T15:11:38Z</time>
      </trkpt>
      <trkpt lat="45.63959" lon="6.57332">
        <ele>1585</ele>
        <time>2014-07-15T15:11:42Z</time>
      </trkpt>
      <trkpt lat="45.63961" lon="6.57335">
        <ele>1585</ele>
        <time>2014-07-15T15:11:45Z</time>
      </trkpt>
      <trkpt lat="45.63975" lon="6.57337">
        <ele>1583</ele>
        <time>2014-07-15T15:11:58Z</time>
      </trkpt>
      <trkpt lat="45.63973" lon="6.57343">
        <ele>1580</ele>
        <time>2014-07-15T15:12:10Z</time>
      </trkpt>
      <trkpt lat="45.63986" lon="6.5735">
        <ele>1578</ele>
        <time>2014-07-15T15:12:29Z</time>
      </trkpt>
      <trkpt lat="45.64005" lon="6.57357">
        <ele>1577</ele>
        <time>2014-07-15T15:12:43Z</time>
      </trkpt>
      <trkpt lat="45.64007" lon="6.57361">
        <ele>1577</ele>
        <time>2014-07-15T15:12:46Z</time>
      </trkpt>
      <trkpt lat="45.64009" lon="6.57362">
        <ele>1577</ele>
        <time>2014-07-15T15:12:49Z</time>
      </trkpt>
      <trkpt lat="45.6401" lon="6.57366">
        <ele>1577</ele>
        <time>2014-07-15T15:12:52Z</time>
      </trkpt>
      <trkpt lat="45.6402" lon="6.57373">
        <ele>1576</ele>
        <time>2014-07-15T15:13:03Z</time>
      </trkpt>
      <trkpt lat="45.64021" lon="6.57375">
        <ele>1575</ele>
        <time>2014-07-15T15:13:06Z</time>
      </trkpt>
      <trkpt lat="45.64028" lon="6.57387">
        <ele>1572</ele>
        <time>2014-07-15T15:13:28Z</time>
      </trkpt>
      <trkpt lat="45.64039" lon="6.57427">
        <ele>1570</ele>
        <time>2014-07-15T15:13:58Z</time>
      </trkpt>
      <trkpt lat="45.64048" lon="6.57432">
        <ele>1570</ele>
        <time>2014-07-15T15:14:06Z</time>
      </trkpt>
      <trkpt lat="45.6405" lon="6.57433">
        <ele>1570</ele>
        <time>2014-07-15T15:14:08Z</time>
      </trkpt>
      <trkpt lat="45.64059" lon="6.57429">
        <ele>1568</ele>
        <time>2014-07-15T15:14:20Z</time>
      </trkpt>
      <trkpt lat="45.64075" lon="6.5744">
        <ele>1565</ele>
        <time>2014-07-15T15:14:34Z</time>
      </trkpt>
      <trkpt lat="45.64075" lon="6.57443">
        <ele>1565</ele>
        <time>2014-07-15T15:14:37Z</time>
      </trkpt>
      <trkpt lat="45.6408" lon="6.57448">
        <ele>1564</ele>
        <time>2014-07-15T15:14:41Z</time>
      </trkpt>
      <trkpt lat="45.6408" lon="6.57451">
        <ele>1564</ele>
        <time>2014-07-15T15:14:43Z</time>
      </trkpt>
      <trkpt lat="45.64091" lon="6.57462">
        <ele>1562</ele>
        <time>2014-07-15T15:14:55Z</time>
      </trkpt>
      <trkpt lat="45.64091" lon="6.57467">
        <ele>1562</ele>
        <time>2014-07-15T15:14:58Z</time>
      </trkpt>
      <trkpt lat="45.64089" lon="6.57476">
        <ele>1562</ele>
        <time>2014-07-15T15:15:02Z</time>
      </trkpt>
      <trkpt lat="45.64093" lon="6.57488">
        <ele>1561</ele>
        <time>2014-07-15T15:15:10Z</time>
      </trkpt>
      <trkpt lat="45.64098" lon="6.5749">
        <ele>1561</ele>
        <time>2014-07-15T15:15:15Z</time>
      </trkpt>
      <trkpt lat="45.64109" lon="6.57476">
        <ele>1560</ele>
        <time>2014-07-15T15:15:48Z</time>
      </trkpt>
      <trkpt lat="45.64108" lon="6.57481">
        <ele>1560</ele>
        <time>2014-07-15T15:15:55Z</time>
      </trkpt>
      <trkpt lat="45.64111" lon="6.57484">
        <ele>1559</ele>
        <time>2014-07-15T15:15:57Z</time>
      </trkpt>
      <trkpt lat="45.64115" lon="6.5749">
        <ele>1558</ele>
        <time>2014-07-15T15:16:04Z</time>
      </trkpt>
      <trkpt lat="45.64115" lon="6.57494">
        <ele>1558</ele>
        <time>2014-07-15T15:16:07Z</time>
      </trkpt>
      <trkpt lat="45.64118" lon="6.57496">
        <ele>1557</ele>
        <time>2014-07-15T15:16:10Z</time>
      </trkpt>
      <trkpt lat="45.6412" lon="6.57504">
        <ele>1557</ele>
        <time>2014-07-15T15:16:15Z</time>
      </trkpt>
      <trkpt lat="45.64118" lon="6.57508">
        <ele>1556</ele>
        <time>2014-07-15T15:16:17Z</time>
      </trkpt>
      <trkpt lat="45.64119" lon="6.57516">
        <ele>1555</ele>
        <time>2014-07-15T15:16:23Z</time>
      </trkpt>
      <trkpt lat="45.64119" lon="6.5752">
        <ele>1553</ele>
        <time>2014-07-15T15:16:28Z</time>
      </trkpt>
      <trkpt lat="45.64122" lon="6.57523">
        <ele>1552</ele>
        <time>2014-07-15T15:16:31Z</time>
      </trkpt>
      <trkpt lat="45.64123" lon="6.57527">
        <ele>1552</ele>
        <time>2014-07-15T15:16:33Z</time>
      </trkpt>
      <trkpt lat="45.64117" lon="6.57547">
        <ele>1551</ele>
        <time>2014-07-15T15:16:47Z</time>
      </trkpt>
      <trkpt lat="45.64115" lon="6.57553">
        <ele>1549</ele>
        <time>2014-07-15T15:16:53Z</time>
      </trkpt>
      <trkpt lat="45.64116" lon="6.57557">
        <ele>1548</ele>
        <time>2014-07-15T15:16:57Z</time>
      </trkpt>
      <trkpt lat="45.64116" lon="6.5756">
        <ele>1548</ele>
        <time>2014-07-15T15:17:01Z</time>
      </trkpt>
      <trkpt lat="45.6413" lon="6.5757">
        <ele>1547</ele>
        <time>2014-07-15T15:17:11Z</time>
      </trkpt>
      <trkpt lat="45.6414" lon="6.57573">
        <ele>1545</ele>
        <time>2014-07-15T15:17:19Z</time>
      </trkpt>
      <trkpt lat="45.6414" lon="6.57581">
        <ele>1542</ele>
        <time>2014-07-15T15:17:29Z</time>
      </trkpt>
      <trkpt lat="45.6408" lon="6.57638">
        <ele>1544</ele>
        <time>2014-07-15T15:19:30Z</time>
      </trkpt>
      <trkpt lat="45.64083" lon="6.57645">
        <ele>1544</ele>
        <time>2014-07-15T15:19:37Z</time>
      </trkpt>
      <trkpt lat="45.64092" lon="6.57649">
        <ele>1544</ele>
        <time>2014-07-15T15:19:47Z</time>
      </trkpt>
      <trkpt lat="45.64097" lon="6.57653">
        <ele>1544</ele>
        <time>2014-07-15T15:19:51Z</time>
      </trkpt>
      <trkpt lat="45.641" lon="6.57656">
        <ele>1544</ele>
        <time>2014-07-15T15:19:54Z</time>
      </trkpt>
      <trkpt lat="45.64147" lon="6.5766">
        <ele>1544</ele>
        <time>2014-07-15T15:20:07Z</time>
      </trkpt>
      <trkpt lat="45.64156" lon="6.5767">
        <ele>1544</ele>
        <time>2014-07-15T15:20:14Z</time>
      </trkpt>
      <trkpt lat="45.64152" lon="6.57678">
        <ele>1544</ele>
        <time>2014-07-15T15:20:21Z</time>
      </trkpt>
      <trkpt lat="45.64145" lon="6.5768">
        <ele>1544</ele>
        <time>2014-07-15T15:20:22Z</time>
      </trkpt>
      <trkpt lat="45.64128" lon="6.57685">
        <ele>1544</ele>
        <time>2014-07-15T15:20:27Z</time>
      </trkpt>
      <trkpt lat="45.64134" lon="6.5769">
        <ele>1544</ele>
        <time>2014-07-15T15:20:30Z</time>
      </trkpt>
      <trkpt lat="45.64138" lon="6.57696">
        <ele>1544</ele>
        <time>2014-07-15T15:20:34Z</time>
      </trkpt>
      <trkpt lat="45.6414" lon="6.577">
        <ele>1544</ele>
        <time>2014-07-15T15:20:37Z</time>
      </trkpt>
      <trkpt lat="45.65136" lon="6.58197">
        <ele>1618</ele>
        <time>2014-07-15T15:58:45Z</time>
      </trkpt>
    </trkseg>
  </trk>
</gpx>